     2              OBSERVATION DATA    GPS                 RINEX VERSION / TYPE
ASRINEXO V2.4.4 UX USGS 27-APR-98 15:18                     PGM / RUN BY / DATE
                                                            COMMENT
Original Marker Name: edom Edom_2_1974_NCER                 COMMENT
Campaign Name: usgs.coach.monit                             COMMENT
4-Character Station Name: EDOM                              COMMENT
6-Character Antenna Code: DMRCHT                            COMMENT
Vertical Measurement Point: BCR                             COMMENT
Vertical Offset to Rinex Ref. Point: 0.0348                 COMMENT
Radial Measurement Point: ECF                               COMMENT
Radial Offset to Rinex Ref. Point: 0.1897                   COMMENT
Antenna Height from Field Measurement: 1.4140 m             COMMENT
Additional Antenna Identification Info.:                    COMMENT
Turborogue and Ashtech Choke Ring                           COMMENT
Original XYZ: -2359889.5881 -4747498.3244 3534795.7909      COMMENT
New XYZ position is based on association with SCEC monument COMMENT
E1D0U1U6+0011. Position of that monument is believed to be  COMMENT
valid to within 1 m horizontally; vertical accuracy         COMMENT
should be no worse than 3-times this value.                 COMMENT
                                                            COMMENT
Revised Rinex header created by UCSD GPS archive for        COMMENT
GSAC on 10-Nov-1999 (1999:314) 22:23:29 GMT                 COMMENT
For assistance contact dagnew@ucsd.edu or hjohnson@ucsd.edu COMMENT
                                                            COMMENT
EDOM EDOM_2_1974_NCER                                       MARKER NAME
JMS US GEOLOGICAL SURVEY                                    OBSERVER / AGENCY
597 ASHTECH Z-XII3 1E95                                     REC # / TYPE / VERS
330 DORNE-MARGOL. TYPE T                                    ANT # / TYPE
 -2359882.0000 -4747477.0000  3534774.0000                  APPROX POSITION XYZ
        1.3664        0.0000        0.0000                  ANTENNA: DELTA H/E/N
     1     1     0                                          WAVELENGTH FACT L1/2
     5    C1    L1    L2    P1    P2                        # / TYPES OF OBSERV
    30                                                      INTERVAL
  1998     4    22     0     0   30.000000                  TIME OF FIRST OBS
  1998     4    22    22    29   60.000000                  TIME OF LAST OBS
                                                            END OF HEADER
 98  4 22  0  0 30.0000000  0  9 26 23 24 30 17  5 10 13  6
  23775701.115   -10949680.18849  -8084462.52949  23775700.7854   23775707.3344
  23990376.784    -8449197.16249  -6283641.91249  23990375.1194   23990382.4174
  24668220.702   -13270938.37449 -10328484.86149  24668220.8264   24668226.3554
  21736826.560   -25109871.40249 -18740559.37949  21736826.3084   21736831.4244
  22075514.264   -21672088.27949 -16602309.65249  22075513.4504   22075518.7254
  23737552.432   -17414638.51049 -13104638.11049  23737553.2444   23737559.4194
  22438360.625   -21910120.36749 -17061998.57549  22438359.9374   22438364.4964
  24618347.998    -6880117.03849  -5175715.42349  24618349.0024   24618353.1874
  20672340.823   -29730563.66749 -22939947.14549  20672340.4564   20672344.5504
 98  4 22  0  1  0.0000000  0  9 26 23 24 30 17  5 10 13  6
  23758416.142   -11040513.30249  -8155241.48049  23758415.9514   23758422.1234
  23968909.446    -8562007.67149  -6371545.98749  23968909.8294   23968917.1944
  24680103.529   -13208493.91149 -10279826.89249  24680104.0004   24680111.2524
  21749083.455   -25045460.92949 -18690369.44049  21749083.2634   21749088.1774
  22063919.501   -21733019.05849 -16649788.15449  22063918.8874   22063924.0224
  23755499.215   -17320328.43749 -13031149.87749  23755498.9404   23755505.8294
  22451429.814   -21841442.47549 -17008483.33949  22451428.5194   22451432.8424
  24618730.545    -6878107.33849  -5174149.42349  24618729.8584   24618735.2124
  20663818.162   -29775350.62249 -22974846.06849  20663817.6574   20663821.8084
 98  4 22  0  1 30.0000000  0  9 26 23 24 30 17  5 10 13  6
  23741174.335   -11131118.88849  -8225843.14449  23741173.8974   23741180.2924
  23947488.184    -8674576.89549  -6459262.05649  23947486.1804   23947494.7654
  24691987.986   -13146041.17749 -10231162.50749  24691986.7834   24691993.2254
  21761427.258   -24980593.78949 -18639823.66149  21761427.3674   21761432.1654
  22052374.579   -21793688.01249 -16697062.64049  22052373.5194   22052379.0544
  23773473.836   -17225872.08749 -12957547.68649  23773473.3574   23773481.1304
  22464570.121   -21772388.99149 -16954675.46249  22464569.7124   22464574.2664
  24619215.940    -6875556.51249  -5172161.76449  24619214.4134   24619220.1584
  20655366.711   -29819763.08049 -23009453.17849  20655366.0584   20655370.4064
 98  4 22  0  2  0.0000000  0  9 26 23 24 30 17  5 10 13  6
  23723969.603   -11221529.83649  -8296293.14049  23723968.7784   23723975.8474
  23926111.117    -8786912.92449  -6546796.40149  23926108.4004   23926116.8294
  24703869.375   -13083605.38249 -10182511.29749  24703868.9974   24703876.6604
  21773852.696   -24915297.76049 -18588943.66849  21773852.8954   21773857.3754
  22040875.180   -21854117.63749 -16744150.64049  22040874.0204   22040879.7404
  23791468.376   -17131310.38649 -12883863.41449  23791467.3204   23791475.4044
  22477775.194   -21702996.85849 -16900603.68849  22477773.8614   22477778.6494
  24619800.405    -6872484.70749  -5169768.14849  24619798.8884   24619804.4264
  20646983.693   -29863816.01249 -23043780.12849  20646983.3214   20646987.4484
 98  4 22  0  2 30.0000000  0  9 26 23 24 30 17  5 10 13  6
  23706772.813   -11311899.12149  -8366710.66449  23706772.3834   23706779.4434
  23904750.556    -8899161.63449  -6634262.66249  23904749.0874   23904755.4884
  24715721.245   -13021323.37449 -10133979.90449  24715720.0934   24715728.6054
  21786330.624   -24849725.87949 -18537848.73749  21786330.5874   21786335.6474
  22029396.350   -21914439.22549 -16791154.45549  22029395.2974   22029400.7174
  23809451.827   -17036806.81249 -12810224.43349  23809451.2404   23809459.0744
  22491019.632   -21633396.38549 -16846369.57849  22491018.8724   22491023.4304
  24620457.911    -6869028.73649  -5167075.18549  24620458.2214   24620461.1304
  20638643.452   -29907644.31049 -23077932.04749  20638642.8254   20638647.0754
 98  4 22  0  3  0.0000000  0  8 26 23 30 17  5 10 13  6
  23689605.900   -11402111.23949  -8437005.72949  23689605.1884   23689611.9604
  23883430.690    -9011196.99149  -6721562.74349  23883430.9954   23883439.0324
  21798887.121   -24783741.12049 -18486432.07849  21798887.1844   21798892.1324
  22017964.627   -21974513.53149 -16837965.58749  22017963.6714   22017969.2324
  23827450.517   -16942223.56049 -12736523.36249  23827450.4794   23827457.9554
  22504331.083   -21563444.46849 -16791861.62049  22504329.8074   22504335.3974
  24621216.591    -6865041.72949  -5163968.43149  24621215.4974   24621221.1684
  20630371.984   -29951111.21649 -23111802.36149  20630371.4914   20630375.7074
 98  4 22  0  3 30.0000000  0  8 26 23 30 17  5 10 13  6
  23672444.636   -11492294.17449  -8507278.04449  23672444.1384   23672451.1594
  23862130.174    -9123131.35149  -6808784.12049  23862128.2824   23862137.5064
  21811498.367   -24717468.74549 -18434791.30149  21811498.3444   21811503.3004
  22006557.392   -22034458.93249 -16884676.26949  22006556.5984   22006562.0704
  23845441.942   -16847678.66749 -12662852.16449  23845441.4444   23845450.2354
  22517688.598   -21493249.99749 -16737164.64949  22517687.1204   22517692.2694
  24622057.286    -6860623.78349  -5160525.83849  24622056.4454   24622061.6374
  20622148.757   -29994324.32149 -23145474.91149  20622148.3644   20622152.4624
 98  4 22  0  4  0.0000000  0  8 26 23 30 17  5 10 13  6
  23655297.321   -11582403.46049  -8577492.98949  23655296.4594   23655301.5234
  23840853.407    -9234940.92749  -6895908.24349  23840850.9924   23840859.7624
  21824172.413   -24650866.22649 -18382893.26949  21824172.3404   21824177.3624
  21995180.183   -22094246.58549 -16931264.03449  21995179.0244   21995184.5284
  23863434.943   -16753125.83949 -12589174.78849  23863434.7184   23863442.1534
  22531101.529   -21422764.62449 -16682241.00749  22531100.4044   22531106.6284
  24622988.229    -6855731.94649  -5156713.99249  24622987.5704   24622992.5084
  20613983.599   -30037232.57649 -23178909.91249  20613982.9174   20613987.1304
 98  4 22  0  4 30.0000000  0  8 26 23 30 17  5 10 13  6
  23638182.471   -11672341.76449  -8647574.70249  23638182.4774   23638187.6484
  23819612.408    -9346561.88649  -6982885.41949  23819611.0864   23819619.1724
  21836925.167   -24583850.21149 -18330673.03549  21836924.9114   21836929.9644
  21983846.804   -22153803.67649 -16977672.14849  21983845.9704   21983851.1424
  23881448.358   -16658465.32649 -12515413.50349  23881447.2984   23881456.0794
  22544586.247   -21351902.45549 -16627023.76549  22544585.4584   22544590.4444
  24624023.576    -6850291.19449  -5152474.45649  24624023.2634   24624028.0744
  20605888.822   -30079770.90549 -23212056.66849  20605888.3704   20605892.4944
 98  4 22  0  5  0.0000000  0  8 26 23 30 17  5 10 13  6
  23621103.013   -11762094.58649  -8717511.85749  23621102.5514   23621108.9764
  23798404.218    -9458010.98949  -7069728.66949  23798402.5394   23798409.5334
  21849753.389   -24516437.63749 -18278143.79449  21849753.2414   21849758.3624
  21972552.498   -22213155.55249 -17023920.34849  21972551.5294   21972556.9334
  23899480.097   -16563708.86849 -12441577.49749  23899479.8144   23899487.5724
  22558138.736   -21280683.27149 -16571528.32349  22558137.7264   22558141.7774
  24625156.953    -6844335.42549  -5147833.61149  24625156.6894   24625160.6864
  20597860.992   -30121957.55849 -23244929.38549  20597860.4084   20597864.5844
 98  4 22  0  5 30.0000000  0  8 26 23 30 17  5 10 13  6
  23604098.665   -11851452.36549  -8787141.21349  23604097.6034   23604104.6304
  23777261.569    -9569115.81649  -7156303.66749  23777260.2154   23777267.5674
  21862690.864   -24448450.83749 -18225167.10449  21862690.7844   21862696.0124
  21961329.717   -22272131.40249 -17069875.53449  21961328.4694   21961333.9694
  23917562.208   -16468687.32349 -12367534.91649  23917561.2274   23917569.9654
  22571790.885   -21208941.01649 -16515625.28649  22571789.6454   22571795.4724
  24626419.822    -6837699.67049  -5142662.91849  24626421.2134   24626423.4904
  20589932.521   -30163621.69949 -23277394.94749  20589932.0374   20589936.1884
 98  4 22  0  6  0.0000000  0  8 26 23 30 17  5 10 13  6
  23587180.617   -11940356.84049  -8856417.32549  23587180.8844   23587186.9524
  23756190.836    -9679842.44149  -7242583.98749  23756189.7524   23756196.6004
  21875747.401   -24379838.51049 -18171702.99049  21875747.3454   21875752.2354
  21950185.709   -22330693.26549 -17115508.13049  21950184.7034   21950190.2214
  23935701.449   -16373365.61149 -12293258.42849  23935701.3694   23935709.2374
  22585549.918   -21136636.73449 -16459284.32549  22585549.0104   22585554.1614
  24627817.107    -6830357.17949  -5136941.48549  24627817.2574   24627820.5774
  20582109.289   -30204733.23449 -23309429.90549  20582108.8334   20582113.0934
 98  4 22  0  6 30.0000000  0  8 26 23 30 17  5 10 13  6
  23570326.855   -12028924.02149  -8925430.61549  23570326.1934   23570333.9684
  23735170.202    -9790305.67049  -7328659.04349  23735167.9154   23735177.1484
  21888892.726   -24310759.59749 -18117875.29949  21888892.6754   21888897.3554
  21939099.005   -22388954.27749 -17160906.29949  21939098.0484   21939103.4744
  23953867.372   -16277903.79449 -12218872.77349  23953866.5734   23953874.0264
  22599390.382   -21063905.12449 -16402610.36449  22599389.2284   22599393.8374
  24629321.204    -6822452.90249  -5130782.30049  24629319.8474   24629325.0894
  20574366.276   -30245423.00949 -23341136.22349  20574365.6134   20574369.8494
 98  4 22  0  7  0.0000000  0  8 26 23 30 17  5 10 13  6
  23553496.586   -12117367.33049  -8994347.38149  23553495.4244   23553502.0094
  23714163.265    -9900696.70849  -7414677.85649  23714162.2374   23714171.0554
  21902085.239   -24241432.69049 -18063854.37849  21902085.4024   21902090.1024
  21928030.191   -22447121.28249 -17206231.22049  21928029.2314   21928034.9184
  23972016.145   -16182532.05749 -12144557.30349  23972015.8294   23972024.0224
  22613268.375   -20990975.39749 -16345782.03649  22613267.4914   22613272.8274
  24630892.541    -6814194.80949  -5124347.42549  24630891.3294   24630897.3684
  20566664.903   -30285893.93949 -23372672.01049  20566664.3654   20566668.3434
 98  4 22  0  7 30.0000000  0  8 26 23 30 17  5 10 13  6
  23536717.830   -12205539.71849  -9063053.06949  23536717.4504   23536723.3414
  23693205.274   -10010831.45949  -7500496.99149  23693202.9374   23693212.2964
  21915355.685   -24171696.19149 -18009514.28649  21915355.5654   21915360.5484
  21917012.914   -22505017.18349 -17251344.88149  21917011.7984   21917016.9524
  23990178.910   -16087086.69749 -12070184.46649  23990179.0254   23990185.9014
  22627217.419   -20917672.95649 -16288663.28949  22627216.8644   22627221.3624
  24632567.901    -6805390.73049  -5117487.08349  24632567.3184   24632573.5814
  20559038.157   -30325972.94049 -23403902.39849  20559037.6144   20559041.7514
 98  4 22  0  8  0.0000000  0  8 26 23 30 17  5 10 13  6
  23519998.777   -12293398.93249  -9131514.71849  23519998.4744   23520004.1254
  23672308.969   -10120641.93149  -7586063.42349  23672307.5524   23672316.2784
  21928712.986   -24101503.41049 -17954818.64649  21928712.9084   21928717.9444
  21906059.618   -22562577.20749 -17296196.82549  21906058.7914   21906064.1104
  24008366.538   -15991510.89449 -11995709.99949  24008365.3944   24008373.7954
  22641248.061   -20843941.90049 -16231210.53649  22641246.1314   22641251.7184
  24634360.024    -6795973.33249  -5110148.85549  24634360.7974   24634365.1204
  20551497.078   -30365601.39749 -23434781.71849  20551496.6654   20551500.8514
 98  4 22  0  8 30.0000000  0  8 26 23 30 17  5 10 13  6
  23503321.063   -12381040.45549  -9199806.73949  23503320.8104   23503326.8754
  23651460.985   -10230198.31149  -7671431.86849  23651459.4754   23651467.1604
  21942141.161   -24030938.15349 -17899832.77549  21942141.5124   21942145.6584
  21895156.486   -22619873.67249 -17340843.40049  21895155.5494   21895160.8564
  24026564.312   -15895882.29549 -11921194.37349  24026563.1864   24026571.4434
  22655342.870   -20769872.45149 -16173494.12549  22655341.9234   22655347.1474
  24636255.046    -6786015.03049  -5102389.15049  24636255.1854   24636258.6504
  20544026.745   -30404858.16749 -23465371.41349  20544026.3174   20544030.5004
 98  4 22  0  9  0.0000000  0  8 26 23 30 17  5 10 13  6
  23486661.241   -12468587.85449  -9268025.41649  23486661.1634   23486667.5694
  23630639.785   -10339613.77649  -7756690.51749  23630639.0694   23630646.8984
  21955623.284   -23960089.26149 -17844625.86949  21955623.0584   21955628.0684
  21884280.776   -22677025.64049 -17385377.37449  21884279.7084   21884285.1264
  24044754.306   -15800294.02549 -11846710.19049  24044754.2634   24044761.9324
  22669481.060   -20695576.47949 -16115601.17949  22669479.3864   22669484.7714
  24638234.154    -6775615.24249  -5094285.43449  24638235.1054   24638237.2434
  20536604.508   -30443862.46249 -23495764.35949  20536604.0854   20536608.2494
 98  4 22  0  9 30.0000000  0  7 26 23 30 17  5 10  6
  23470043.098   -12555916.34849  -9336073.50149  23470041.9284   23470048.5004
  23609866.554   -10448777.24649  -7841752.79249  23609863.5124   23609872.6424
  21969182.760   -23888833.74049 -17789102.12449  21969182.7914   21969187.5354
  21873456.351   -22733908.45749 -17429701.62749  21873455.2824   21873460.7854
  24062961.351   -15704616.40449 -11772156.36049  24062960.8994   24062969.6894
  22683686.492   -20620926.07749 -16057432.05549  22683685.1124   22683690.2814
  20529254.226   -30482488.41649 -23525862.50349  20529253.5634   20529257.8664
 98  4 22  0 10  0.0000000  0  7 26 23 30 17  5 10  6
  23453459.457   -12643063.54549  -9403980.33449  23453458.8784   23453464.9274
  23589131.461   -10557740.32649  -7926658.91349  23589130.5854   23589137.2034
  21982811.642   -23817213.56349 -17733294.24249  21982811.8964   21982816.6454
  21862672.449   -22790578.13349 -17473859.79749  21862671.6874   21862676.7904
  24081176.535   -15608894.85749 -11697568.33749  24081176.7984   24081184.1834
  22697946.109   -20545991.60249 -15999041.59849  22697945.6094   22697951.0694
  20521966.459   -30520785.90549 -23555704.71049  20521966.1184   20521970.1904
 98  4 22  0 10 30.0000000  0  7 26 23 30 17  5 10  6
  23436920.755   -12729975.08749  -9471703.53649  23436920.4984   23436926.1444
  23568443.710   -10666454.70749  -8011371.26649  23568441.3684   23568449.2354
  21996519.245   -23745179.79149 -17677164.07049  21996518.9774   21996524.0484
  21851937.011   -22846993.20949 -17517819.57849  21851936.2094   21851941.5934
  24099407.836   -15513088.27949 -11622914.06649  24099407.3274   24099415.1454
  22712270.148   -20470718.34549 -15940387.15949  22712268.8234   22712273.6854
  20514753.179   -30558691.98049 -23585241.91849  20514752.7524   20514756.9384
 98  4 22  0 11  0.0000000  0  7 26 23 30 17  5 10  6
  23420442.265   -12816569.46949  -9539179.59549  23420441.7764   23420448.3454
  23547813.450   -10774866.32449  -8095847.68649  23547812.4394   23547818.3864
  22010315.900   -23672677.76749 -17620669.03249  22010316.0554   22010320.7934
  21841260.964   -22903096.17249 -17561536.15249  21841259.7014   21841265.5804
  24117664.624   -15417148.64749 -11548156.11649  24117664.5684   24117672.7534
  22726669.758   -20395048.46249 -15881423.63049  22726668.9344   22726673.3994
  20507630.623   -30596121.31449 -23614407.63349  20507630.2534   20507634.3244
 98  4 22  0 11 30.0000000  0  7 26 23 30 17  5 10  6
  23403993.063   -12903010.25849  -9606535.98849  23403992.0734   23403999.1624
  23527207.790   -10883148.86749  -8180223.54849  23527206.8644   23527213.3764
  22024167.228   -23599888.66249 -17563950.29149  22024166.9174   22024172.4334
  21830613.079   -22959050.95149 -17605137.25349  21830612.0624   21830617.6604
  24135911.886   -15321259.69449 -11473437.66049  24135912.0364   24135919.7644
  22741110.021   -20319164.47349 -15822293.28349  22741108.7084   22741115.1254
  20500567.747   -30633237.01049 -23643328.95349  20500567.2934   20500571.3014
 98  4 22  0 12  0.0000000  0  7 26 23 30 17  5 10  6
  23387577.059   -12989276.86149  -9673756.65549  23387576.2784   23387583.4384
  23506630.622   -10991281.85649  -8264482.87749  23506628.5704   23506637.3094
  22038075.578   -23526799.88349 -17506998.04549  22038075.3984   22038080.5384
  21819997.245   -23014837.40349 -17648607.19549  21819996.6514   21820001.4774
  24154151.945   -15225408.70849 -11398748.78649  24154151.6194   24154160.3984
  22755593.894   -20243051.38349 -15762984.40949  22755593.0914   22755598.0644
  20493568.892   -30670016.27749 -23671988.12249  20493568.5184   20493572.5364
 98  4 22  0 12 30.0000000  0  7 26 23 30 17  5 10  6
  23371195.756   -13075361.25549  -9740835.33049  23371195.8284   23371201.5854
  23486081.585   -11099266.87549  -8348626.88949  23486080.3454   23486087.7804
  22052038.802   -23453422.74749 -17449821.10549  22052038.6214   22052043.9954
  21809413.581   -23070455.03249 -17691945.58149  21809412.4484   21809417.4204
  24172384.419   -15129597.22749 -11324090.69049  24172384.6364   24172391.9004
  22770121.963   -20166705.73549 -15703494.33049  22770120.8534   22770125.4694
  20486634.229   -30706458.13349 -23700384.38049  20486633.8094   20486637.9184
 98  4 22  0 13  0.0000000  0  7 26 23 30 17  5 10  6
  23354867.081   -13161168.71649  -9807698.22949  23354866.4024   23354872.7804
  23465577.731   -11207014.71349  -8432586.09749  23465576.4594   23465582.7054
  22066073.156   -23379672.05649 -17392353.07649  22066073.3454   22066078.2804
  21798877.704   -23125821.22249 -17735088.03249  21798876.6324   21798882.2104
  24190625.967   -15033738.53449 -11249395.78049  24190625.9584   24190634.8574
  22784708.143   -20090054.87749 -15643766.40149  22784707.9154   22784712.4254
  20479777.918   -30742488.25949 -23728459.79549  20479777.4954   20479781.4464
 98  4 22  0 13 30.0000000  0  8 26 23 30 17  5 10 22  6
  23338577.505   -13246770.62349  -9874400.95849  23338577.0594   23338583.5134
  23445109.650   -11314574.62949  -8516398.89649  23445108.8794   23445116.0384
  22080166.087   -23305613.37049 -17334645.06749  22080165.8994   22080171.2464
  21788374.327   -23181016.73349 -17778097.50249  21788373.4334   21788378.6394
  24208867.580   -14937879.01249 -11174700.23449  24208867.9694   24208875.2114
  22799341.185   -20013158.38649 -15583847.11449  22799340.3354   22799345.0824
  24749088.497    -4404288.79749  -3411845.52349  24749087.0844   24749093.3194
  20472984.503   -30778187.90949 -23756277.70949  20472983.9284   20472988.1574
 98  4 22  0 14  0.0000000  0  8 26 23 30 17  5 10 22  6
  23322351.527   -13332038.52149  -9940843.40049  23322350.6134   23322357.1414
  23424701.751   -11421818.37549  -8599965.34249  23424701.3474   23424708.0974
  22094339.447   -23231132.14249 -17276607.79149  22094339.6674   22094344.2674
  21777921.287   -23235947.75249 -17820900.87149  21777920.0604   21777925.3174
  24227133.259   -14841892.81449 -11099905.99249  24227132.0754   24227141.4694
  22814046.334   -19935882.14249 -15523631.87249  22814044.0464   22814050.6384
  24733163.740    -4487974.68249  -3477055.26849  24733162.7384   24733168.0444
  20466278.964   -30813425.71549 -23783735.74049  20466278.6204   20466282.7124
 98  4 22  0 14 30.0000000  0  8 26 23 30 17  5 10 22  6
  23306190.250   -13416966.14049 -10007020.68849  23306189.9704   23306195.8834
  23404354.579   -11528742.70949  -8683282.86449  23404353.6234   23404360.0514
  22108592.965   -23156229.69449 -17218242.29049  22108592.7004   22108598.2254
  21767518.036   -23290617.24949 -17863500.45849  21767517.0524   21767522.3844
  24245422.364   -14745784.48349 -11025016.59349  24245421.1844   24245430.3954
  22828824.936   -19858220.44349 -15463116.29549  22828823.2754   22828829.0784
  24717327.640    -4571194.08149  -3541901.52449  24717326.1414   24717333.9284
  20459661.109   -30848202.83649 -23810834.79949  20459660.7624   20459664.7854
 98  4 22  0 15  0.0000000  0  8 26 23 30 17  5 10 22  6
  23290056.141   -13501750.98049 -10073086.71649  23290055.5004   23290061.4904
  23384030.504   -11635546.01249  -8766506.07649  23384029.0744   23384036.4164
  22122887.194   -23081112.93349 -17159709.79949  22122887.1044   22122892.1364
  21757125.626   -23345229.53249 -17906055.46249  21757124.6864   21757129.9174
  24263694.197   -14649765.88449 -10950197.12449  24263694.4944   24263701.8744
  22843638.080   -19780376.44949 -15402458.67449  22843636.2004   22843641.6454
  24701546.128    -4654126.61349  -3606524.25249  24701545.9664   24701551.5084
  20453093.241   -30882717.32349 -23837729.21449  20453092.7894   20453096.8194
 98  4 22  0 15 30.0000000  0  8 26 23 30 17  5 10 22  6
  23273971.348   -13586276.47349 -10138950.65649  23273971.1554   23273977.1574
  23363751.905   -11742110.42049  -8849543.16349  23363750.6324   23363758.1394
  22137240.411   -23005686.21949 -17100935.79549  22137240.6574   22137245.6544
  21746767.583   -23399661.27249 -17948469.78549  21746766.6174   21746771.9864
  24281970.310   -14553724.86149 -10875360.17449  24281969.2424   24281977.7984
  22858507.978   -19702234.76949 -15341569.06049  22858506.2654   22858512.8104
  24685838.860    -4736668.99149  -3670842.94749  24685837.7404   24685843.7974
  20446598.839   -30916845.67249 -23864322.74549  20446598.2954   20446602.4354
 98  4 22  0 16  0.0000000  0  8 26 23 30 17  5 10 22  6
  23257937.469   -13670534.55049 -10204606.23049  23257936.9054   23257943.4884
  23343516.862   -11848446.22949  -8932402.13449  23343515.7804   23343523.0884
  22151650.478   -22929961.00849 -17041929.18449  22151650.4224   22151656.1344
  21736446.285   -23453899.93149 -17990733.64749  21736445.0924   21736450.6104
  24300244.521   -14457694.11249 -10800531.23649  24300244.0214   24300252.7824
  22873431.079   -19623813.09449 -15280461.31049  22873429.1254   22873435.5884
  24670206.298    -4818818.49349  -3734855.50749  24670205.1524   24670209.9944
  20440176.738   -30950594.14149 -23890620.25449  20440176.2604   20440180.3564
 98  4 22  0 16 30.0000000  0  8 26 23 30 17  5 10 22  6
  23241969.037   -13754449.21749 -10269994.20849  23241968.2804   23241975.3824
  23323340.383   -11954473.74849  -9015020.85149  23323339.4484   23323346.0554
  22166128.817   -22853877.12449 -16982643.09949  22166128.9884   22166133.9464
  21726179.163   -23507854.04949 -18032775.79249  21726178.4904   21726183.4054
  24318526.182   -14361623.51849 -10725671.28149  24318526.2654   24318534.8464
  22888415.312   -19545070.74249 -15219103.64949  22888414.2214   22888419.6454
  24654658.352    -4900522.27749  -3798520.75449  24654656.6864   24654663.7784
  20433837.903   -30983904.86449 -23916576.66349  20433837.4794   20433841.4984
 98  4 22  0 17  0.0000000  0  8 26 23 30 17  5 10 22  6
  23226035.161   -13838181.96349 -10335240.42749  23226034.3114   23226041.0414
  23303195.592   -12060335.14749  -9097510.15149  23303193.9944   23303201.5124
  22180644.956   -22777594.51649 -16923202.15749  22180644.7294   22180650.0764
  21715934.856   -23561688.20149 -18074724.45749  21715933.8624   21715939.0764
  24336783.849   -14265680.13349 -10650910.45449  24336783.5054   24336793.3494
  22903427.058   -19466183.49049 -15157633.10249  22903425.6984   22903431.6184
  24639160.781    -4981962.67049  -3861980.76649  24639159.5154   24639166.6964
  20427551.222   -31016941.76549 -23942319.69949  20427550.7114   20427554.7814
 98  4 22  0 17 30.0000000  0  8 26 23 30 17  5 10 22  6
  23210190.388   -13921446.40049 -10400121.73449  23210189.8304   23210195.8194
  23283138.821   -12165733.48449  -9179638.61449  23283137.6694   23283144.4574
  22195255.828   -22700813.89249 -16863373.16749  22195255.7444   22195261.3874
  21705769.618   -23615106.59749 -18116349.15749  21705768.6194   21705773.9114
  24355072.679   -14169571.71449 -10576021.00949  24355073.0944   24355080.7944
  22918523.551   -19386851.19649 -15095815.76549  22918522.9474   22918527.3774
  24623767.863    -5062853.04649  -3925012.21749  24623765.8924   24623772.4474
  20421370.234   -31049423.10749 -23967629.83749  20421369.8904   20421373.8924
 98  4 22  0 18  0.0000000  0  8 26 23 30 17  5 10 22  6
  23194386.865   -14004494.09949 -10464834.14749  23194386.7804   23194392.6734
  23263122.393   -12270919.96449  -9261601.99249  23263121.2464   23263128.3804
  22209917.383   -22623766.93349 -16803336.63349  22209917.3944   22209922.5994
  21695634.991   -23668364.26449 -18157848.61549  21695633.8654   21695639.2074
  24373345.910   -14073547.01749 -10501196.79249  24373346.2244   24373353.6184
  22933658.536   -19307316.67749 -15033840.83649  22933656.7404   22933662.8004
  24608434.134    -5143432.34549  -3987801.22649  24608431.9574   24608436.7144
  20415246.498   -31081603.65049 -23992705.58249  20415246.0294   20415249.9254
 98  4 22  0 18 30.0000000  0  8 26 23 30 17  5 10 22  6
  23178627.882   -14087307.60949 -10529364.08749  23178627.0204   23178633.8634
  23243151.547   -12375867.19049  -9343378.95849  23243150.6624   23243156.7914
  22224634.458   -22546428.44849 -16743072.94249  22224634.1764   22224639.3074
  21685536.107   -23721434.13049 -18199201.74049  21685535.2964   21685540.5064
  24391610.666   -13977566.22749 -10426406.76649  24391610.9594   24391619.7434
  22948837.798   -19227549.02549 -14971684.25949  22948836.1914   22948841.4544
  24593166.840    -5223662.25849  -4050317.99349  24593164.4574   24593171.1244
  20409185.970   -31113451.92449 -24017522.42149  20409185.4554   20409189.5444
 98  4 22  0 19  0.0000000  0  8 26 23 30 17  5 10 22  6
  23162938.647   -14169754.94549 -10593608.70649  23162939.0014   23162943.8594
  23223248.312   -12480459.03449  -9424878.99949  23223246.7214   23223255.1474
  22239435.284   -22468649.81549 -16682466.27149  22239435.3494   22239440.4494
  21675498.579   -23774181.68149 -18240303.70849  21675497.8554   21675502.8344
  24409896.235   -13881475.34849 -10351530.97449  24409896.5904   24409906.8764
  22964091.544   -19147390.15549 -14909222.82949  22964089.8414   22964095.6844
  24577998.830    -5303370.50949  -4112428.32249  24577995.9774   24578004.2424
  20403216.334   -31144822.54949 -24041967.06749  20403215.7484   20403219.8574
 98  4 22  0 19 30.0000000  0  8 26 23 30 17  5 10 22  6
  23147268.971   -14252099.54349 -10657773.26649  23147268.8794   23147274.4354
  23203355.305   -12584996.68749  -9506336.79449  23203353.9624   23203360.8984
  22254265.263   -22390717.96949 -16621740.21349  22254265.3334   22254270.5794
  21665470.782   -23826878.12849 -18281365.84849  21665469.9474   21665475.1574
  24428152.431   -13785538.56749 -10276775.28849  24428152.0024   24428162.0194
  22979368.045   -19067111.36949 -14846667.97749  22979367.8054   22979372.1004
  24562880.984    -5382815.81149  -4174333.72749  24562878.7034   24562885.9044
  20397289.414   -31175968.65549 -24066236.76449  20397288.9114   20397293.0794
 98  4 22  0 20  0.0000000  0  8 26 23 30 17  5 10 22  6
  23131651.233   -14334171.08249 -10721725.05449  23131650.6814   23131656.7274
  23183500.497   -12689333.88049  -9587638.41649  23183500.0874   23183505.9524
  22269152.738   -22312484.13649 -16560778.83049  22269152.7864   22269157.5844
  21655484.042   -23879358.74049 -18322259.81349  21655482.9614   21655488.0614
  24446409.362   -13689598.49049 -10202017.03549  24446408.8234   24446418.4454
  22994694.300   -18986572.38949 -14783910.34249  22994692.6864   22994699.1904
  24547843.010    -5461840.37049  -4235911.27049  24547841.5634   24547845.8704
  20391440.125   -31206706.85849 -24090188.61249  20391439.7504   20391443.6584
 98  4 22  0 20 30.0000000  0  8 26 23 30 17  5 10 22  6
  23116089.214   -14415949.62549 -10785448.53149  23116089.2044   23116094.3314
  23163687.038   -12793454.20649  -9668771.04849  23163685.6944   23163692.7114
  22284097.826   -22233947.22549 -16499581.28749  22284097.8304   22284103.6234
  21645543.175   -23931598.20449 -18362965.86749  21645542.1134   21645547.5104
  24464669.002   -13593644.67349 -10127248.05949  24464668.4324   24464677.7964
  23010071.449   -18905763.87849 -14720942.72749  23010069.7004   23010075.4574
  24532887.843    -5540429.29949  -4297149.34549  24532886.3864   24532891.3504
  20385673.985   -31237008.08549 -24113799.96849  20385673.3024   20385677.5754
 98  4 22  0 21  0.0000000  0  8 26 23 30 17  5 10 22  6
  23100590.760   -14497394.66349 -10848912.12749  23100590.0244   23100596.5124
  23143919.889   -12897330.86749  -9749713.79349  23143918.3994   23143925.7584
  22299104.773   -22155085.55149 -16438130.67949  22299104.7514   22299109.8984
  21635651.767   -23983577.66449 -18403469.32449  21635650.4614   21635655.5714
  24482935.219   -13497655.05949 -10052451.21549  24482934.9974   24482944.0604
  23025505.706   -18824656.76049 -14657742.37749  23025504.6654   23025510.0654
  24518018.523    -5618568.39049  -4358036.92649  24518016.4104   24518022.9914
  20379996.676   -31266842.37849 -24137047.47349  20379996.1624   20380000.1954
 98  4 22  0 21 30.0000000  0  8 26 23 30 17  5 10 22  6
  23085135.501   -14578612.73249 -10912198.86449  23085135.1534   23085140.5284
  23124182.632   -13001049.77249  -9830533.63649  23124182.0424   23124188.7474
  22314151.454   -22076015.07949 -16376517.37049  22314151.6044   22314156.8874
  21625787.357   -24035415.12049 -18443862.12549  21625786.2104   21625791.8374
  24501185.839   -13401748.48249  -9977719.04149  24501186.7814   24501194.7384
  23040973.690   -18743372.16549 -14594403.79249  23040972.2474   23040978.4054
  24503211.042    -5696381.72949  -4418670.66249  24503209.6614   24503216.2274
  20374388.018   -31296316.09349 -24160014.00549  20374387.5254   20374391.7364
 98  4 22  0 22  0.0000000  0  8 26 23 30 17  5 10 22  6
  23069746.608   -14659481.10949 -10975213.13349  23069746.5374   23069752.0724
  23104504.645   -13104458.13749  -9911111.50049  23104503.0654   23104509.9254
  22329263.133   -21996602.81849 -16314637.73649  22329263.3934   22329268.6264
  21615973.108   -24086989.13749 -18484049.65549  21615971.8444   21615977.2844
  24519442.322   -13305811.43249  -9902963.13649  24519442.4034   24519450.4654
  23056499.834   -18661781.65549 -14530826.80749  23056499.4884   23056503.7484
  24488493.111    -5773723.96849  -4478937.31749  24488491.3804   24488497.6164
  20368868.703   -31325320.46349 -24182614.81949  20368868.2264   20368872.2874
 98  4 22  0 22 30.0000000  0  8 26 23 30 17  5 10 22  6
  23054414.958   -14740049.34549 -11037993.51249  23054414.2514   23054420.3404
  23084881.602   -13207577.51349  -9991464.18149  23084880.3304   23084887.5734
  22344430.485   -21916898.18549 -16252530.28349  22344430.5834   22344436.0084
  21606196.867   -24138363.71149 -18524081.77149  21606195.7624   21606201.1234
  24537696.482   -13209886.31549  -9828216.56749  24537696.4964   24537706.4354
  23072074.763   -18579935.54849 -14467050.64449  23072071.9674   23072078.9254
  24473857.486    -5850634.63749  -4538867.68349  24473857.1914   24473863.5624
  20363428.286   -31353909.94449 -24204892.33949  20363427.7724   20363431.8644
 98  4 22  0 23  0.0000000  0  8 26 23 30 17  5 10 22  6
  23039154.701   -14820242.45349 -11100481.58649  23039155.4454   23039160.2364
  23065328.556   -13310328.80549 -10071530.03849  23065327.6564   23065334.2744
  22359666.215   -21836833.97349 -16190142.62949  22359666.3954   22359671.8254
  21596468.286   -24189487.83249 -18563918.72949  21596467.1074   21596472.6874
  24555961.516   -13113903.68449  -9753425.19649  24555961.4724   24555970.5274
  23087707.365   -18497785.15749 -14403037.38949  23087706.5934   23087711.6844
  24459318.349    -5927038.88349  -4598403.43149  24459318.9964   24459322.3934
  20358079.150   -31382019.87149 -24226796.17549  20358078.6354   20358082.6964
 98  4 22  0 23 30.0000000  0  8 26 23 30 17  5 10 22  6
  23023960.352   -14900089.43449 -11162699.96049  23023960.0444   23023965.4014
  23045842.257   -13412729.89049 -10151323.01349  23045840.9664   23045847.3934
  22374964.724   -21756440.19849 -16127498.17949  22374964.6544   22374969.8894
  21586783.254   -24240382.99149 -18603577.27449  21586782.2524   21586787.4374
  24574231.149   -13017897.78649  -9678615.68649  24574230.3744   24574240.8054
  23103389.917   -18415373.26049 -14338820.35549  23103388.4674   23103393.5264
  24444872.912    -6002950.29249  -4657555.14349  24444871.9974   24444877.9614
  20352816.385   -31409675.70949 -24248346.18149  20352816.1094   20352820.0044
 98  4 22  0 24  0.0000000  0  8 26 23 30 17  5 10 22  6
  23008814.990   -14979678.79349 -11224717.56849  23008814.4694   23008820.0634
  23026403.458   -13514881.09649 -10230921.29549  23026402.7234   23026409.4444
  22390306.507   -21675818.57349 -16064676.18349  22390306.4134   22390312.1054
  21577125.878   -24291132.77249 -18643122.53249  21577125.0674   21577130.3464
  24592486.738   -12921964.84249  -9603862.99249  24592487.4354   24592496.4744
  23119103.090   -18332799.49749 -14274477.20849  23119101.8194   23119106.7804
  24430503.525    -6078461.38849  -4716394.94049  24430501.9854   24430508.2274
  20347620.112   -31436982.33949 -24269624.08449  20347619.6264   20347623.9234
 98  4 22  0 24 30.0000000  0  8 26 23 30 17  5 10 22  6
  22993749.815   -15058846.06849 -11286406.29449  22993750.3184   22993755.0654
  23007039.272   -13616640.01249 -10310213.87949  23007038.0194   23007044.9494
  22405720.776   -21594816.24749 -16001557.54149  22405720.8724   22405726.2784
  21567526.493   -24341577.79949 -18682430.31849  21567525.4434   21567530.5774
  24610757.682   -12825951.50349  -9529047.67549  24610757.5374   24610768.4624
  23134873.418   -18249925.95949 -14209900.45349  23134872.7914   23134877.9624
  24416233.779    -6153449.40249  -4774827.13049  24416231.9844   24416238.7204
  20342520.193   -31463782.63049 -24290507.43949  20342519.7674   20342523.8224
 98  4 22  0 25  0.0000000  0  8 26 23 30 17  5 10 22  6
  22978728.146   -15137785.09049 -11347917.16149  22978727.6284   22978733.2154
  22987707.875   -13718226.89649 -10389372.40849  22987706.8924   22987713.6534
  22421170.923   -21513625.47449 -15938292.06049  22421170.9164   22421176.5464
  21557949.548   -24391904.81049 -18721646.14149  21557948.3034   21557953.4664
  24629003.567   -12730070.23849  -9454335.27649  24629004.6154   24629013.4254
  23150665.599   -18166937.64749 -14145234.27549  23150664.0294   23150670.1354
  24402025.256    -6228116.40849  -4833009.16749  24402023.6514   24402030.0144
  20337479.504   -31490271.73449 -24311148.30249  20337479.0564   20337483.1134
 98  4 22  0 25 30.0000000  0  8 26 23 30 17  5 10 22  6
  22963759.094   -15216447.86749 -11409212.77049  22963758.8714   22963764.5134
  22968416.345   -13819604.47749 -10468367.86549  22968415.4874   22968422.2514
  22436666.986   -21432193.22949 -15874838.42249  22436666.7694   22436672.3834
  21548405.332   -24442059.63149 -18760727.80349  21548404.5004   21548409.5994
  24647231.678   -12634281.59049  -9379695.02149  24647231.6974   24647241.7644
  23166492.514   -18083766.85249 -14080425.89449  23166491.9014   23166496.3744
  24387886.010    -6302417.95349  -4890906.44949  24387883.8794   24387891.3814
  20332507.391   -31516400.29349 -24331508.22549  20332506.9384   20332510.9674
 98  4 22  0 26  0.0000000  0  8 26 23 30 17  5 10 22  6
  22948877.771   -15294649.73049 -11470149.21849  22948878.2824   22948883.0104
  22949198.118   -13920597.07949 -10547063.33849  22949197.0814   22949203.6614
  22452242.175   -21350345.01649 -15811060.64549  22452242.0664   22452247.7814
  21538927.173   -24491867.89649 -18799539.42649  21538925.9624   21538931.1084
  24665476.832   -12538404.04849  -9304985.50449  24665477.0964   24665486.0914
  23182389.429   -18000227.93349 -14015330.66249  23182388.8764   23182394.9624
  24373847.463    -6376191.04749  -4948391.94649  24373846.0974   24373851.9844
  20327640.200   -31541977.47949 -24351438.50549  20327639.4484   20327643.7644
 98  4 22  0 26 30.0000000  0  8 26 23 30 17  5 10 22  6
  22934050.593   -15372567.25049 -11530864.10949  22934049.4684   22934055.3934
  22930019.661   -14021379.85349 -10625595.29649  22930018.9084   22930025.0464
  22467862.172   -21268261.38349 -15747099.42949  22467862.3334   22467867.6604
  21529481.414   -24541505.70549 -18838218.21349  21529480.1614   21529485.7404
  24683703.029   -12442625.77649  -9230353.36849  24683702.1994   24683712.7994
  23198323.871   -17916492.30549 -13950082.16149  23198323.3254   23198327.5114
  24359877.078    -6449605.43349  -5005597.93649  24359875.2294   24359883.2424
  20322847.045   -31567165.57749 -24371065.59149  20322846.5464   20322850.8094
 98  4 22  0 27  0.0000000  0  8 26 23 30 17  5 10 22  6
  22919276.808   -15450203.71549 -11591359.99349  22919276.5954   22919281.6214
  22910882.510   -14121945.83349 -10703958.32849  22910882.2864   22910887.5014
  22483522.506   -21185966.10149 -15682973.29349  22483522.1714   22483528.4524
  21520068.304   -24590971.79949 -18876763.20549  21520067.2174   21520072.4344
  24701908.464   -12346956.80449  -9155806.43349  24701907.4554   24701920.1474
  23214298.668   -17832544.66849 -13884668.44649  23214297.5264   23214303.0534
  24345979.408    -6522637.37949  -5062505.94449  24345977.5704   24345984.3184
  20318128.253   -31591963.20949 -24390388.42949  20318127.7234   20318131.8974
 98  4 22  0 27 30.0000000  0  8 26 23 30 17  5 10 22  6
  22904555.939   -15527561.80049 -11651638.94549  22904554.2974   22904561.7064
  22891789.459   -14222280.31749 -10782140.96649  22891788.6544   22891794.9324
  22499218.015   -21103485.83249 -15618703.02249  22499217.7164   22499223.6114
  21510687.505   -24640268.06549 -18915175.86549  21510686.5024   21510691.6544
  24720090.663   -12251408.78749  -9081353.70849  24720089.8384   24720102.1354
  23230311.043   -17748399.45749 -13819100.78549  23230310.1914   23230314.5524
  24332153.641    -6595291.26249  -5119119.32249  24332151.8324   24332159.1944
  20313481.055   -31616384.26349 -24409417.83449  20313480.5504   20313484.7104
 98  4 22  0 28  0.0000000  0  7 26 23 30 17 10 22  6
  22889887.358   -15604645.37349 -11711703.98049  22889886.6814   22889892.3554
  22872739.038   -14322390.51149 -10860148.84649  22872738.5534   22872744.5284
  22514943.737   -21020846.96949 -15554309.14949  22514943.6894   22514948.6324
  21501335.757   -24689411.98649 -18953469.81049  21501335.0164   21501339.8584
  23246355.532   -17664085.66449 -13753401.75149  23246354.8434   23246359.6254
  24318398.031    -6667578.58849  -5175447.08549  24318396.4544   24318404.5664
  20308900.895   -31640452.98349 -24428172.68849  20308900.4414   20308904.6514
 98  4 22  0 28 30.0000000  0  7 26 23 30 17 10 22  6
  22875279.942   -15681407.68349 -11771518.70949  22875279.8034   22875285.0964
  22853740.335   -14422229.11149 -10937945.08649  22853739.2064   22853745.4814
  22530708.596   -20938002.39149 -15489754.99049  22530708.6654   22530714.2884
  21492021.015   -24738361.00349 -18991611.88349  21492019.8344   21492025.1554
  23262438.586   -17579568.87849 -13687544.55049  23262437.2104   23262441.8834
  24304724.737    -6739431.41349  -5231436.27249  24304723.4904   24304729.5034
  20304393.156   -31664141.49549 -24446631.27749  20304392.7614   20304397.0384
 98  4 22  0 29  0.0000000  0  7 26 23 30 17 10 22  6
  22860755.892   -15757731.61349 -11830991.83749  22860755.0694   22860761.0324
  22834815.000   -14521681.94449 -11015440.74049  22834813.5484   22834820.6204
  22546533.000   -20854844.82349 -15424956.94349  22546533.1804   22546538.3384
  21482762.557   -24787014.32349 -19029523.54349  21482761.3144   21482766.6454
  23278578.327   -17494754.38749 -13621455.36749  23278576.8374   23278582.8304
  24291155.848    -6810736.00449  -5286998.26049  24291154.4044   24291161.3544
  20299978.425   -31687341.30149 -24464709.05849  20299977.9884   20299982.1764
 98  4 22  0 29 30.0000000  0  7 26 23 30 17 10 22  6
  22846304.234   -15833675.96349 -11890169.19249  22846303.1234   22846309.6484
  22815949.294   -14620821.62949 -11092692.37949  22815948.4784   22815955.2484
  22562408.545   -20771418.36249 -15359949.37349  22562408.1804   22562414.0694
  21473544.842   -24835453.70649 -19067268.49649  21473543.8654   21473549.1864
  23294756.380   -17409737.30149 -13555208.33749  23294755.3164   23294760.3544
  24277676.667    -6881569.29849  -5342193.00149  24277675.6454   24277681.5254
  20295642.603   -31710126.11349 -24482463.46749  20295642.1494   20295646.2804
 98  4 22  0 30  0.0000000  0  7 26 23 30 17 10 22  6
  22831909.336   -15909320.85049 -11949113.19349  22831908.5594   22831914.8384
  22797126.001   -14719738.45549 -11169770.36349  22797125.9484   22797130.9444
  22578322.528   -20687790.10049 -15294784.55449  22578322.5434   22578327.7284
  21464349.964   -24883773.14449 -19104919.99049  21464348.9904   21464354.3734
  23310955.765   -17324609.50849 -13488875.00149  23310952.8034   23310960.3864
  24264273.185    -6952005.64449  -5397078.44749  24264273.1534   24264277.9964
  20291371.214   -31732572.35749 -24499954.05249  20291370.7364   20291374.8184
 98  4 22  0 30 30.0000000  0  7 26 23 30 17 10 22  6
  22817578.344   -15984630.28249 -12007795.79449  22817577.4304   22817582.9044
  22778355.536   -14818377.61349 -11246631.96949  22778354.9534   22778360.7694
  22594283.554   -20603914.40149 -15229426.92449  22594283.7334   22594289.0574
  21455188.159   -24931918.49349 -19142435.81249  21455187.1834   21455192.1514
  23327187.047   -17239312.97649 -13422410.23149  23327187.1044   23327191.4874
  24250953.321    -7022002.12949  -5451621.12649  24250953.2544   24250958.6414
  20287177.345   -31754611.38549 -24517127.32149  20287176.8204   20287181.0384
 98  4 22  0 31  0.0000000  0  7 26 23 30 17 10 22  6
  22803327.308   -16059519.63549 -12066151.06949  22803326.4664   22803332.9824
  22759652.628   -14916661.89949 -11323217.06749  22759650.7824   22759658.3834
  22610304.869   -20519722.33249 -15163822.77949  22610305.4814   22610310.9204
  21446074.691   -24979810.00849 -19179753.85249  21446073.5524   21446078.6724
  23343467.450   -17153759.04549 -13355744.84549  23343466.1354   23343472.6104
  24237727.411    -7091505.35849  -5505779.46149  24237725.8124   24237732.6454
  20283076.459   -31776161.77449 -24533919.83249  20283075.8994   20283080.2134
 98  4 22  0 31 30.0000000  0  7 26 23 30 17 10 22  6
  22789149.783   -16134022.98849 -12124205.56749  22789148.8614   22789154.7464
  22741010.523   -15014626.64649 -11399553.16949  22741009.2074   22741015.7174
  22626378.717   -20435253.74449 -15098003.16249  22626378.6744   22626384.4464
  21437001.829   -25027488.20549 -19216905.67449  21437000.6934   21437005.8304
  23359793.773   -17067963.68549 -13288891.36249  23359792.2624   23359798.7944
  24224587.742    -7160554.42949  -5559583.90249  24224586.4184   24224593.3524
  20279063.389   -31797250.63149 -24550352.71649  20279062.9374   20279066.9814
 98  4 22  0 32  0.0000000  0  7 26 23 30 17 10 22  6
  22775040.393   -16208168.22149 -12181981.01149  22775039.7584   22775045.3864
  22722424.553   -15112296.21649 -11475659.26849  22722423.5734   22722429.9654
  22642494.169   -20350566.51049 -15032013.16449  22642494.1674   22642499.9444
  21427967.546   -25074963.46449 -19253899.35649  21427966.5974   21427971.4404
  23376163.876   -16981938.28649 -13221858.62449  23376163.2394   23376168.5384
  24211529.924    -7229173.43449  -5613053.21349  24211529.1674   24211535.3994
  20275136.176   -31817888.25949 -24566433.98349  20275135.5964   20275139.8824
 98  4 22  0 32 30.0000000  0  7 26 23 30 17 10 22  6
  22761017.353   -16281859.49849 -12239402.71849  22761016.2164   22761021.9694
  22703909.670   -15209592.67749 -11551474.63449  22703908.6914   22703915.3044
  22658663.303   -20265597.57049 -14965803.66449  22658663.2944   22658669.1544
  21418989.846   -25122141.26649 -19290661.25349  21418988.8034   21418993.9234
  23392592.649   -16895604.58949 -13154585.63049  23392591.8064   23392597.8084
  24198570.297    -7297276.37649  -5666120.40249  24198569.6494   24198575.4534
  20271310.384   -31837992.85249 -24582099.90749  20271309.9444   20271314.1534
 98  4 22  0 33  0.0000000  0  7 26 23 30 17 10 22  6
  22747062.859   -16355190.15049 -12296543.42949  22747061.8674   22747067.4314
  22685442.219   -15306639.73649 -11627095.65449  22685441.7754   22685447.6394
  22674866.261   -20180450.49149 -14899455.35849  22674866.4474   22674872.0214
  21410046.521   -25169138.79449 -19327282.67949  21410045.7544   21410050.6624
  23409054.676   -16809096.61149 -13087176.86349  23409052.5704   23409060.1404
  24185690.988    -7364958.63349  -5718859.80649  24185691.0444   24185696.5094
  20267564.736   -31857676.61349 -24597437.91749  20267564.4274   20267568.4554
 98  4 22  0 33 30.0000000  0  7 26 23 30 17 10 22  6
  22733194.296   -16428069.66549 -12353332.58849  22733194.4274   22733198.7994
  22667041.479   -15403336.17149 -11702443.47749  22667040.3644   22667046.7554
  22691124.723   -20095012.17649 -14832880.10349  22691124.7914   22691130.4514
  21401157.154   -25215852.75349 -19363683.15249  21401156.3684   21401161.0624
  23425562.835   -16722345.47049 -13019578.61849  23425562.0514   23425566.3554
  24172914.213    -7432099.93249  -5771177.66849  24172913.2304   24172920.0514
  20263920.469   -31876827.26749 -24612360.51449  20263920.1204   20263924.1254
 98  4 22  0 34  0.0000000  0  7 26 23 30 17 10 22  6
  22719398.687   -16500565.38049 -12409822.69449  22719399.0874   22719403.8704
  22648695.663   -15499743.72349 -11777566.18549  22648694.8654   22648701.1434
  22707427.895   -20009338.79349 -14766121.68249  22707428.1054   22707433.9354
  21392311.114   -25262339.02449 -19399906.20549  21392310.1524   21392314.9774
  23442100.372   -16635440.26149 -12951860.31749  23442099.5924   23442105.2074
  24160227.154    -7498771.07649  -5823129.17449  24160225.2644   24160231.8834
  20260362.434   -31895525.05849 -24626930.23049  20260361.9734   20260366.0404
 98  4 22  0 34 30.0000000  0  7 26 23 30 17 10 22  6
  22705663.592   -16572743.59249 -12466065.39049  22705663.1664   22705668.1824
  22630395.751   -15595910.28049 -11852501.10749  22630395.0544   22630400.9424
  22723768.182   -19923469.94449 -14699210.95349  22723768.6824   22723773.7424
  21383493.471   -25308675.99449 -19436012.91349  21383492.5364   21383497.5514
  23458653.904   -16548451.11349 -12884076.58349  23458651.1044   23458659.2344
  24147618.391    -7565030.66449  -5874760.00549  24147616.6534   24147622.6344
  20256879.797   -31913826.29449 -24641190.94249  20256879.3144   20256883.4924
 98  4 22  0 35  0.0000000  0  7 26 23 30 17 10 22  6
  22691972.416   -16644690.98849 -12522128.24649  22691972.4844   22691977.2804
  22612133.501   -15691878.84149 -11927281.76149  22612132.2674   22612138.4704
  22740133.437   -19837469.94049 -14632198.03149  22740133.3334   22740138.6074
  21374688.653   -25354945.51649 -19472067.06949  21374687.6324   21374692.9774
  23475211.372   -16461440.35249 -12816276.05049  23475210.9204   23475215.7804
  24135073.332    -7630954.73849  -5926129.37949  24135073.0074   24135078.4014
  20253461.367   -31931790.48849 -24655189.01749  20253460.8714   20253465.1094
 98  4 22  0 35 30.0000000  0  7 26 23 30 17 10 22  6
  22678342.873   -16716314.78149 -12577938.92649  22678342.5404   22678348.2244
  22593930.887   -15787534.02249 -12001818.20349  22593930.1584   22593936.3474
  22756538.077   -19751263.33149 -14565024.10949  22756538.3964   22756544.3714
  21365915.373   -25401049.25849 -19507992.03249  21365914.4454   21365919.3584
  23491793.988   -16374298.35049 -12748373.21949  23491794.0894   23491799.5754
  24122609.365    -7696453.01249  -5977166.98249  24122608.2664   24122615.0674
  20250122.942   -31949334.23949 -24668859.47049  20250122.5024   20250126.6174
 98  4 22  0 36  0.0000000  0  7 26 23 30 17 10 22  6
  22664784.441   -16787564.47049 -12633458.10649  22664783.7674   22664789.3794
  22575796.339   -15882831.41649 -12076075.85949  22575795.1424   22575801.8824
  22772983.406   -19664842.82349 -14497683.51649  22772983.0624   22772989.1814
  21357179.834   -25446954.68349 -19543762.45949  21357178.7934   21357183.8784
  23508412.559   -16286966.84649 -12680322.74849  23508411.4354   23508418.2784
  24110233.613    -7761487.49149  -6027843.16749  24110232.0244   24110238.2984
  20246872.776   -31966413.96749 -24682168.35249  20246872.3024   20246876.5864
 98  4 22  0 36 30.0000000  0  7 26 23 30 17 10 22  6
  22651290.290   -16858476.31549 -12688714.03149  22651290.9184   22651295.1204
  22557719.699   -15977824.52949 -12150096.41249  22557718.4664   22557725.4174
  22789456.519   -19578276.20549 -14430229.07149  22789456.1784   22789462.1614
  21348472.614   -25492711.34749 -19579416.98349  21348471.7114   21348476.6804
  23525059.010   -16199489.98049 -12612158.96749  23525057.5024   23525063.8484
  24097939.205    -7826095.53749  -6078187.08449  24097937.2054   24097943.7774
  20243703.078   -31983070.84349 -24695147.74749  20243702.4164   20243706.6554
 98  4 22  0 37  0.0000000  0  7 26 23 30 17 10 22  6
  22637892.964   -16928879.46049 -12743573.57049  22637893.0734   22637897.7274
  22539730.204   -16072359.71649 -12223760.13749  22539729.2404   22539735.6014
  22805985.474   -19491415.97949 -14362545.84149  22805985.3554   22805991.5104
  21339827.590   -25538141.25149 -19614816.89249  21339826.4464   21339831.5004
  23541763.606   -16111706.37349 -12543756.22349  23541763.1664   23541768.6284
  24085758.430    -7890106.72349  -6128065.90949  24085756.9374   24085761.7494
  20240641.081   -31999161.69449 -24707686.08149  20240640.5764   20240644.6484
 98  4 22  0 37 30.0000000  0  7 26 23 30 17 10 22  6
  22624580.491   -16998836.76949 -12798085.69449  22624579.7694   22624586.2374
  22521807.128   -16166545.96349 -12297151.96449  22521806.1784   22521812.0514
  22822553.466   -19404351.06449 -14294703.12949  22822553.6254   22822559.2354
  21331230.409   -25583319.62649 -19650020.80249  21331229.5374   21331234.5064
  23558509.647   -16023705.83249 -12475184.41349  23558508.7644   23558514.4034
  24073675.936    -7953599.15649  -6177540.49849  24073675.5114   24073681.1064
  20237669.801   -32014775.68849 -24719852.83449  20237669.3034   20237673.3874
 98  4 22  0 38  0.0000000  0  7 26 23 30 17 10 22  6
  22611356.471   -17068329.52749 -12852235.83749  22611356.6444   22611361.2654
  22503950.297   -16260383.88349 -12370272.37649  22503949.2204   22503955.5724
  22839162.713   -19317069.10449 -14226691.27549  22839162.3074   22839168.5594
  21322683.357   -25628234.65949 -19685019.49949  21322682.4544   21322687.0954
  23575298.772   -15935478.74949 -12406436.06249  23575297.5314   23575302.8944
  24061695.799    -8016555.04349  -6226597.01349  24061692.6574   24061701.7394
  20234792.495   -32029895.95549 -24731634.86449  20234791.9254   20234796.0554
 98  4 22  0 38 30.0000000  0  7 26 23 30 17 10 22  6
  22598217.396   -17137375.49249 -12906037.83049  22598216.5904   22598222.9614
  22486156.260   -16353892.02649 -12443135.81449  22486155.3994   22486161.9744
  22855813.400   -19229569.33949 -14158509.71249  22855812.9904   22855819.3924
  21314184.572   -25672895.72549 -19719820.30449  21314183.4284   21314188.6474
  23592127.716   -15847042.71449 -12337524.90449  23592126.9204   23592132.4154
  24049814.746    -8078991.43549  -6275248.72249  24049813.2014   24049818.0424
  20232002.488   -32044557.38549 -24743059.36149  20232001.9964   20232006.0874
 98  4 22  0 39  0.0000000  0  7 26 23 30 17 10 22  6
  22585153.339   -17206027.64649 -12959532.96749  22585152.4744   22585158.2534
  22468416.642   -16447114.13749 -12515776.35949  22468415.8394   22468422.4874
  22872496.971   -19141897.15249 -14090193.78349  22872496.0204   22872502.7844
  21305724.308   -25717354.31249 -19754463.33649  21305723.3454   21305728.6674
  23608986.933   -15758446.91849 -12268489.25449  23608985.5394   23608991.4684
  24038021.892    -8140961.99849  -6323537.43249  24038022.7834   24038025.9904
  20229291.013   -32058806.32449 -24754162.43549  20229290.4044   20229294.6694
 98  4 22  0 39 30.0000000  0  7 26 23 30 17 10 22  6
  22572168.843   -17274260.97949 -13012701.75449  22572168.9434   22572173.7884
  22450732.462   -16540045.06049 -12588190.02349  22450731.5924   22450738.0024
  22889215.487   -19054040.95349 -14021734.48349  22889215.0264   22889221.0754
  21297304.052   -25761603.21849 -19788942.98849  21297302.9844   21297308.2124
  23625879.752   -15669675.39449 -12199316.65749  23625878.9644   23625884.0224
  24026319.188    -8202460.04949  -6371457.97049  24026318.6464   24026323.2294
  20226662.594   -32072618.70049 -24764925.33149  20226662.2734   20226666.4554
 98  4 22  0 40  0.0000000  0  7 26 23 30 17 10 22  6
  22559260.015   -17342097.41849 -13065561.27149  22559259.4304   22559264.9724
  22433103.136   -16632687.54149 -12660378.91849  22433101.9674   22433108.1794
  22905966.260   -18966015.29149 -13953143.13149  22905966.6494   22905972.3824
  21288921.562   -25805653.38549 -19823267.77349  21288920.6074   21288925.6704
  23642803.059   -15580742.77249 -12130018.58049  23642803.1184   23642806.6034
  24014702.304    -8263507.40749  -6419027.35349  24014702.3184   24014707.8254
  20224116.434   -32085999.08249 -24775351.61149  20224115.9864   20224120.1754
 98  4 22  0 40 30.0000000  0  7 26 23 30 17 10 22  6
  22546429.938   -17409519.42149 -13118097.84649  22546429.4824   22546434.9354
  22415533.894   -16725014.10349 -12732321.65349  22415533.1994   22415539.5564
  22922754.940   -18877790.74949 -13884396.80849  22922754.8774   22922761.2014
  21280581.753   -25849479.39549 -19857417.89149  21280580.8304   21280585.7174
  23659757.681   -15491646.32049 -12060592.78649  23659756.5914   23659763.1454
  24003174.394    -8324085.61349  -6466231.12349  24003173.6494   24003179.3054
  20221659.094   -32098912.41149 -24785413.95749  20221658.7074   20221662.8834
 98  4 22  0 41  0.0000000  0  7 26 23 30 17 10 22  6
  22533683.143   -17476504.09149 -13170293.64649  22533682.1564   22533688.3524
  22398026.887   -16817014.01149 -12804009.85449  22398025.9194   22398032.0074
  22939581.979   -18789364.63049 -13815493.40649  22939581.5384   22939588.1514
  21272285.076   -25893078.78549 -19891391.42449  21272284.0444   21272289.2774
  23676742.729   -15402389.16749 -11991041.80649  23676741.3634   23676747.9884
  23991738.458    -8384182.99749  -6513060.24649  23991736.5664   23991743.8754
  20219296.955   -32111325.58549 -24795086.56749  20219296.5224   20219300.6284
 98  4 22  0 41 30.0000000  0  7 26 23 30 17 10 22  6
  22521014.941   -17543075.56149 -13222167.48449  22521014.9964   22521019.8204
  22380578.548   -16908705.53449 -12875457.75349  22380577.4294   22380583.3524
  22956441.735   -18700766.13049 -13746455.69749  22956441.8364   22956447.4994
  21264026.498   -25936477.87649 -19925208.88749  21264025.4224   21264030.3314
  23693751.862   -15313005.53049 -11921392.25449  23693751.2274   23693755.7504
  23980390.752    -8443815.28849  -6559526.94349  23980390.8914   23980394.4074
  20217028.323   -32123247.29449 -24804376.21149  20217027.8434   20217031.9714
 98  4 22  0 42  0.0000000  0  7 26 23 30 17 10 22  6
  22508407.401   -17609328.39849 -13273793.03149  22508407.1044   22508412.1264
  22363177.943   -17000146.39249 -12946710.32349  22363177.3544   22363182.9234
  22973316.558   -18612088.31749 -13677356.18849  22973316.9144   22973321.9474
  21255786.790   -25979777.61149 -19958948.91549  21255785.6564   21255790.6334
  23710765.953   -15223595.66449 -11851722.25349  23710764.6894   23710770.2724
  23969117.108    -8503059.25049  -6605691.04849  23969116.5664   23969121.2594
  20214836.842   -32134763.55349 -24813349.92049  20214836.3604   20214840.6094
 98  4 22  0 42 30.0000000  0  7 26 23 30 17 10 22  6
  22495893.830   -17675087.60849 -13325033.93849  22495893.0174   22495899.4584
  22345857.769   -17091164.40749 -13017633.40449  22345856.7254   22345862.6514
  22990236.896   -18523171.77349 -13608070.64349  22990236.7504   22990242.7804
  21247594.289   -26022829.54049 -19992495.85849  21247593.1974   21247598.1884
  23727817.376   -15133990.23249 -11781899.88849  23727816.0154   23727820.8664
  23957952.196    -8561731.56049  -6651409.73349  23957952.0854   23957956.4314
  20212751.267   -32145723.45749 -24821890.12049  20212750.8844   20212755.0534
 98  4 22  0 42 59.9990000  0  7 26 23 30 17 10 22  6
  22483461.684   -17740418.60349 -13375941.16349  22483460.5644   22483466.3704
  22328606.473   -17181820.20749 -13088274.24949  22328605.7384   22328611.4034
  23007185.646   -18434105.75349 -13538668.61249  23007184.8574   23007191.0684
  21239434.357   -26065710.15749 -20025909.30449  21239433.5364   21239438.3554
  23744896.288   -15044239.21849 -11711964.06749  23744894.9214   23744900.6204
  23946883.514    -8619897.36049  -6696733.71249  23946882.4284   23946888.2654
  20210756.017   -32156208.45949 -24830060.26049  20210755.7354   20210759.8694
 98  4 22  0 43 29.9990000  0  7 26 23 30 17 10 22  6
  22471081.668   -17805475.26249 -13426634.62549  22471081.8644   22471086.9804
  22311395.381   -17272264.95949 -13158750.62949  22311393.9634   22311400.4664
  23024134.546   -18345038.51149 -13469265.63749  23024134.5834   23024140.1944
  21231279.329   -26108565.17249 -20059302.80149  21231277.9524   21231283.2224
  23761978.495   -14954472.15049 -11642015.73749  23761976.8264   23761983.2954
  23935882.722    -8677706.28749  -6741779.60749  23935880.3454   23935888.5694
  20208819.762   -32166383.58449 -24837988.93349  20208819.1364   20208823.3844
 98  4 22  0 43 59.9990000  0  7 26 23 30 17 10 22  6
  22458781.479   -17870113.09349 -13477001.72249  22458780.8104   22458787.3224
  22294247.975   -17362374.93149 -13228966.15149  22294247.1544   22294253.1074
  23041109.922   -18255832.57249 -13399754.58649  23041110.1214   23041115.4384
  21223155.110   -26151258.16849 -20092570.05449  21223154.1464   21223159.1244
  23779088.162   -14864559.94249 -11571954.31049  23779087.9004   23779092.3824
  23924974.230    -8735030.36949  -6786447.71549  23924973.1164   23924978.3814
  20206963.764   -32176136.80849 -24845588.85649  20206963.4504   20206967.6064
 98  4 22  0 44 29.9990000  0  7 26 23 30 17 10 22  6
  22446554.762   -17934364.59349 -13527067.76949  22446554.9434   22446560.4554
  22277155.049   -17452198.74049 -13298958.69149  22277153.7374   22277159.8884
  23058108.707   -18166503.64549 -13330147.71349  23058108.4744   23058114.9704
  21215060.821   -26193793.86749 -20125714.73449  21215059.6304   21215064.6164
  23796219.503   -14774533.73249 -11501804.05349  23796218.6114   23796223.0254
  23914150.273    -8791910.57949  -6830769.92449  23914149.4694   23914154.7204
  20205182.749   -32185496.20449 -24852881.90149  20205182.3534   20205186.4664
 98  4 22  0 44 59.9990000  0  7 26 23 30 17 10 22  6
  22434415.737   -17998155.29749 -13576774.77049  22434415.0884   22434421.4824
  22260128.392   -17541674.10849 -13368679.70949  22260127.5644   22260133.7334
  23075145.418   -18076975.55149 -13260385.62949  23075146.0094   23075151.0594
  21207011.766   -26236091.82349 -20158674.15849  21207010.7724   21207015.5254
  23813380.715   -14684351.10049 -11431531.90849  23813379.2414   23813386.0454
  23903420.789    -8848294.94949  -6874705.80349  23903418.5484   23903426.0774
  20203491.410   -32194384.40349 -24859807.77849  20203490.9244   20203495.0134
 98  4 22  0 45 29.9990000  0  7 26 23 30 17 10 22  6
  22422375.717   -18061425.59249 -13626076.25249  22422375.1834   22422381.7454
  22243177.890   -17630749.43249 -13438089.01449  22243176.8794   22243183.0864
  23092232.585   -17987182.09149 -13190416.77049  23092232.8604   23092238.7634
  21199017.180   -26278103.65149 -20191410.62849  21199016.2664   21199021.2474
  23830575.977   -14593989.29049 -11361120.14749  23830576.2354   23830580.8244
  23892795.315    -8904131.91449  -6918215.10049  23892794.9224   23892799.6694
  20201900.451   -32202744.89249 -24866322.45949  20201900.1964   20201904.0374
 98  4 22  0 45 59.9990000  0  7 26 23 30 17 10 22  6
  22410425.281   -18124225.69649 -13675011.35349  22410424.4964   22410430.1204
  22226295.330   -17719467.65349 -13507220.05349  22226293.8874   22226299.8524
  23109359.662   -17897179.12649 -13120284.65549  23109359.9434   23109366.1214
  21191065.597   -26319889.45349 -20223970.97949  21191064.8714   21191069.5404
  23847793.267   -14503512.28149 -11290618.61649  23847790.9484   23847798.2704
  23882264.068    -8959474.25649  -6961338.99949  23882263.6334   23882268.4804
  20200402.001   -32210619.51949 -24872458.53849  20200401.5934   20200405.9584
 98  4 22  0 46 29.9990000  0  7 26 23 30 17 10 22  6
  22398558.083   -18186588.17249 -13723605.42949  22398558.3214   22398562.5644
  22209476.666   -17807850.21249 -13576089.53849  22209476.0404   22209481.5254
  23126514.204   -17807032.03749 -13050040.25249  23126513.1384   23126519.9114
  21183148.304   -26361495.17049 -20256390.99549  21183147.2624   21183152.2694
  23865025.741   -14412954.91949 -11220054.48449  23865025.3574   23865029.8954
  23871822.547    -9014345.80649  -7004096.02849  23871820.6924   23871826.9734
  20198990.725   -32218035.66849 -24878237.35449  20198990.4104   20198994.3894
 98  4 22  0 46 59.9990000  0  7 26 23 30 17 10 22  6
  22386792.535   -18248416.39649 -13771783.22849  22386792.1564   22386797.1454
  22192737.308   -17895816.16849 -13644634.40149  22192736.3184   22192742.2964
  23143705.052   -17716694.21349 -12979647.23349  23143704.5874   23143711.4654
  21175277.240   -26402857.80249 -20288621.60649  21175275.9424   21175281.2034
  23882289.603   -14322232.95049 -11149362.07649  23882289.2954   23882295.2854
  23861488.287    -9068652.75849  -7046413.13449  23861488.6154   23861491.7714
  20197683.860   -32224903.31349 -24883588.76049  20197683.4054   20197687.6024
 98  4 22  0 47 29.9990000  0  7 26 23 30 17 10 22  6
  22375121.160   -18309749.68149 -13819575.34049  22375120.2774   22375126.3404
  22176072.636   -17983389.38349 -13712873.23049  22176071.6654   22176077.6214
  23160921.355   -17626222.07649 -12909149.52949  23160921.0684   23160927.5064
  21167447.442   -26444003.56349 -20320683.22149  21167446.3824   21167451.2814
  23899583.533   -14231354.03849 -11078547.39349  23899582.9134   23899588.6864
  23851258.041    -9122412.72549  -7088303.99049  23851256.8784   23851261.8494
  20196476.084   -32231250.32549 -24888534.48449  20196475.6914   20196479.8854
 98  4 22  0 47 59.9990000  0  7 26 23 30 17 10 22  6
  22363532.508   -18370648.28349 -13867028.75249  22363532.0694   22363537.0174
  22159471.827   -18070626.99049 -13780850.54149  22159470.6884   22159477.5064
  23178150.138   -17535684.48649 -12838600.81949  23178149.7514   23178155.4824
  21159651.151   -26484973.04449 -20352607.46849  21159650.1294   21159655.1834
  23916899.119   -14140360.36949 -11007643.25749  23916897.9664   23916903.9724
  23841122.009    -9175678.61749  -7129809.87149  23841121.0154   23841126.7844
  20195356.388   -32237134.47649 -24893119.55149  20195355.8464   20195360.0044
 98  4 22  0 48 29.9990000  0  7 26 23 30 17 10 22  6
  22352033.168   -18431077.68649 -13914116.55549  22352032.3004   22352037.3044
  22142939.315   -18157505.75049 -13848548.23749  22142938.0634   22142944.4754
  23195399.209   -17445040.48149 -12767969.20049  23195398.9394   23195406.1364
  21151898.485   -26525713.53449 -20384353.29049  21151897.5864   21151902.5864
  23934243.647   -14049214.08649 -10936620.22849  23934242.2194   23934249.0304
  23831088.245    -9228404.99349  -7170895.33149  23831088.3114   23831092.8794
  20194332.459   -32242515.30649 -24897312.42849  20194332.0554   20194336.2324
 98  4 22  0 48 59.9990000  0  7 26 23 30 17 10 22  6
  22340593.634   -18491192.69449 -13960959.38649  22340593.5694   22340598.0714
  22126445.745   -18244179.77349 -13916086.39949  22126444.5314   22126450.5654
  23212643.647   -17354420.83449 -12697356.56149  23212642.9124   23212649.9064
  21144162.371   -26566366.91649 -20416031.23649  21144161.3224   21144166.2074
  23951589.314   -13958062.18149 -10865592.80449  23951588.9304   23951595.4454
  23821125.221    -9280761.50949  -7211692.61549  23821124.1694   23821129.3584
  20193375.532   -32247543.96849 -24901230.87449  20193375.0874   20193379.2524
 98  4 22  0 49 29.9990000  0  7 26 23 30 17 10 22  6
  22329249.043   -18550809.19649 -14007413.77049  22329249.0634   22329254.1014
  22110027.787   -18330456.35449 -13983314.85749  22110027.0574   22110032.7544
  23229921.841   -17263623.33949 -12626605.36449  23229922.0504   23229927.8454
  21136477.486   -26606751.06749 -20447499.39149  21136476.7424   21136481.4744
  23968970.815   -13866722.41749 -10794419.02049  23968970.6874   23968976.5614
  23811264.463    -9332579.36449  -7252070.13749  23811263.5754   23811269.9104
  20192517.928   -32252050.78749 -24904742.69349  20192517.5314   20192521.6564
 98  4 22  0 49 59.9990000  0  7 26 23 30 17 10 22  6
  22317984.895   -18610002.78249 -14053538.59349  22317984.4514   22317989.5644
  22093665.934   -18416438.30849 -14050313.74549  22093664.9544   22093671.0854
  23247217.416   -17172734.42449 -12555782.91849  23247216.2674   23247222.9114
  21128822.901   -26646976.21849 -20478843.64649  21128821.8714   21128826.8554
  23986367.112   -13775304.78449 -10723184.53849  23986366.5644   23986372.3404
  23801486.289    -9383964.53849  -7292110.50549  23801485.1554   23801490.8114
  20191743.118   -32256122.40249 -24907915.39149  20191742.6274   20191746.7324
 98  4 22  0 50 29.9990000  0  7 26 23 30 17 10 22  6
  22306820.512   -18668671.97749 -14099254.79949  22306819.6404   22306825.2054
  22077375.405   -18502045.61149 -14117020.69349  22077374.4424   22077380.2284
  23264546.789   -17081668.10049 -12484822.21849  23264547.3294   23264553.4594
  21121213.009   -26686966.58749 -20510004.95049  21121212.2394   21121216.8524
  24003792.370   -13683734.77449 -10651831.34249  24003791.2814   24003797.1344
  23791804.627    -9434843.12449  -7331756.16249  23791804.6464   23791809.2704
  20191069.401   -32259662.88149 -24910674.20549  20191068.8744   20191072.9784
 98  4 22  0 50 59.9990000  0  7 26 23 30 17 10 22  6
  22295746.327   -18726866.99349 -14144601.52249  22295745.6364   22295750.6924
  22061145.791   -18587332.61549 -14183478.05349  22061144.6074   22061150.9454
  23281896.417   -16990494.90249 -12413778.25849  23281896.4384   23281903.6704
  21113633.960   -26726794.58549 -20541039.73649  21113632.9764   21113637.6294
  24021234.505   -13592076.10049 -10580409.02949  24021233.6864   24021238.1114
  23782206.460    -9485281.07049  -7371058.41249  23782205.5324   23782211.7194
  20190484.518   -32262736.54349 -24913069.27149  20190484.0094   20190488.2774
 98  4 22  0 51 29.9990000  0  7 26 23 30 17 10 22  6
  22284773.998   -18784526.40349 -14189530.89549  22284772.8134   22284778.3214
  22044988.908   -18672237.55649 -14249637.70549  22044987.9224   22044994.3194
  23299277.401   -16899157.42649 -12342606.28349  23299277.7464   23299282.9604
  21106097.275   -26766399.97049 -20571901.05849  21106096.2844   21106101.3114
  24038701.919   -13500284.69349 -10508883.30549  24038701.2434   24038707.4054
  23772707.950    -9535196.23449  -7409953.36049  23772706.3984   23772711.9754
  20190001.225   -32265276.03449 -24915048.10049  20190000.8934   20190005.0124
 98  4 22  0 51 59.9990000  0  7 26 23 30 17 10 22  6
  22273881.580   -18841765.81549 -14234132.97949  22273881.5034   22273885.8744
  22028885.355   -18756862.12749 -14315578.88449  22028884.6314   22028890.5844
  23316669.414   -16807762.39149 -12271389.44749  23316669.5164   23316675.7754
  21098585.700   -26805873.51649 -20602659.64649  21098584.7144   21098589.5044
  24056172.964   -13408473.64849 -10437342.27249  24056172.0394   24056176.5184
  23763294.232    -9584665.15449  -7448500.54549  23763293.1844   23763299.4044
  20189602.716   -32267370.31149 -24916680.00849  20189602.3194   20189606.4814
 98  4 22  0 52 29.9990000  0  7 26 23 30 17 10 22  6
  22263068.568   -18898587.92649 -14278409.92449  22263068.8584   22263073.3804
  22012841.606   -18841172.58449 -14381275.30049  22012840.7274   22012846.5734
  23334077.547   -16716282.65549 -12200106.61049  23334077.0554   23334084.2034
  21091103.918   -26845190.47049 -20633296.21449  21091102.9434   21091107.6564
  24073653.861   -13316610.50149 -10365760.63449  24073652.7874   24073659.9234
  23753973.871    -9633643.44349  -7486665.42549  23753972.9974   23753978.8954
  20189289.925   -32269014.02549 -24917960.83749  20189289.6664   20189293.7854
 98  4 22  0 52 59.9990000  0  7 26 23 30 17 10 22  6
  22252346.117   -18954934.88949 -14322316.61249  22252346.0314   22252351.2964
  21996872.453   -18925090.79749 -14446666.06849  21996871.2034   21996877.5454
  23351513.028   -16624658.70849 -12128711.40749  23351513.3144   23351519.5724
  21083663.570   -26884289.52349 -20663762.99149  21083662.6044   21083667.4224
  24091158.358   -13224623.31949 -10294082.37549  24091157.3994   24091163.3724
  23744764.395    -9682040.38249  -7524377.30649  23744762.6534   23744769.3404
  20189072.956   -32270154.19249 -24918849.29849  20189072.5864   20189076.6204
 98  4 22  0 53 29.9990000  0  7 26 23 30 17 10 22  6
  22241703.405   -19010862.35649 -14365896.40549  22241703.3694   22241708.5654
  21980969.993   -19008658.66049 -14511783.83949  21980968.9824   21980975.3194
  23368967.219   -16532936.11549 -12057239.33149  23368967.4704   23368974.1984
  21076256.233   -26923215.43849 -20694094.85449  21076255.3924   21076260.1964
  24108675.641   -13132569.52149 -10222352.15849  24108674.9924   24108681.9104
  23735655.379    -9729907.33349  -7561676.21949  23735654.2384   23735659.9794
  20188942.133   -32270841.84849 -24919385.14249  20188941.6374   20188945.8564
 98  4 22  0 53 59.9990000  0  7 26 23 30 17 10 22  6
  22231139.029   -19066378.78249 -14409155.92749  22231139.2534   22231143.7094
  21965130.068   -19091897.88549 -14576645.52649  21965129.1484   21965134.9974
  23386434.571   -16441145.26949 -11985714.06649  23386434.7584   23386440.7624
  21068877.485   -26961990.86949 -20724309.46249  21068876.6004   21068881.4694
  24126203.899   -13040458.12649 -10150577.11849  24126202.3284   24126208.6064
  23726640.290    -9777282.21249  -7598591.67549  23726639.2994   23726644.2584
  20188891.514   -32271107.85049 -24919592.41849  20188891.0024   20188895.2994
 98  4 22  0 54 29.9990000  0  7 26 23 30 17 10 22  6
  22220667.126   -19121408.73149 -14452036.36349  22220666.3934   22220671.4974
  21949363.452   -19174751.78649 -14641206.96849  21949362.6724   21949368.2404
  23403925.278   -16349231.97049 -11914093.39849  23403924.7704   23403931.2894
  21061537.720   -27000561.40049 -20754364.40949  21061536.7814   21061541.6744
  24143753.853   -12948233.38849 -10078713.69349  24143753.7974   24143757.3634
  23717725.929    -9824126.53349  -7635093.72049  23717724.4914   23717731.7864
  20188931.257   -32270898.82349 -24919429.54549  20188930.7844   20188935.0304
 98  4 22  0 54 59.9990000  0  7 26 23 30 17 10 22  6
  22210302.004   -19175877.61149 -14494479.62849  22210301.8784   22210306.8204
  21933680.877   -19257163.83449 -14705424.10249  21933679.9894   21933685.7884
  23421445.970   -16257160.02149 -11842349.09749  23421445.8704   23421452.4254
  21054250.573   -27038855.50349 -20784203.95749  21054249.6064   21054254.4794
  24161331.617   -12855862.19649 -10006736.23349  24161330.1194   24161336.4684
  23708919.466    -9870406.55449  -7671156.07749  23708918.2074   23708922.8394
  20189075.052   -32270143.22249 -24918840.78249  20189074.6244   20189078.8014
 98  4 22  0 55 29.9990000  0  7 26 23 30 17 10 22  6
  22200059.964   -19229700.23349 -14536419.29749  22200059.7684   22200064.4434
  21918099.365   -19339044.98449 -14769227.55649  21918098.5764   21918104.0864
  23439011.494   -16164852.42949 -11770421.18049  23439011.5204   23439017.5664
  21047034.472   -27076776.25349 -20813752.57849  21047033.6624   21047038.3774
  24178952.713   -12763262.38349  -9934580.55449  24178951.7704   24178957.4504
  23700232.963    -9916054.68649  -7706726.03749  23700232.1414   23700237.4684
  20189343.224   -32268734.20549 -24917742.85049  20189342.9394   20189346.9854
 98  4 22  0 55 59.9990000  0  7 26 23 30 17 10 22  6
  22189899.019   -19283096.19749 -14578026.50049  22189898.3934   22189903.6374
  21902573.006   -19420636.30849 -14832805.16449  21902571.9054   21902577.9854
  23456576.397   -16072549.01549 -11698496.50549  23456576.6004   23456582.1724
  21039846.658   -27114548.52149 -20843185.49649  21039845.7184   21039850.5974
  24196573.782   -12670663.54749  -9862425.65449  24196572.6714   24196579.2494
  23691624.668    -9961289.88549  -7741974.20249  23691622.3714   23691628.9894
  20189693.065   -32266895.76449 -24916310.29749  20189692.5574   20189696.8504
 98  4 22  0 56 29.9990000  0  7 26 23 30 17 10 22  6
  22179829.104   -19336013.44749 -14619260.68649  22179828.9644   22179834.1494
  21887112.542   -19501881.47049 -14896113.04349  21887111.4884   21887117.5204
  23474149.527   -15980202.42849 -11626538.20249  23474148.9354   23474155.8084
  21032697.933   -27152115.26649 -20872458.27549  21032696.8974   21032701.9214
  24214202.003   -12578026.82349  -9790241.24549  24214200.2884   24214206.4754
  23683110.128   -10006034.86749  -7776840.41749  23683107.9964   23683115.3414
  20190136.748   -32264564.23849 -24914493.53249  20190136.2804   20190140.5144
 98  4 22  0 56 59.9990000  0  7 26 23 30 17 10 22  6
  22169845.722   -19388475.92349 -14660140.49549  22169845.3354   22169850.4344
  21871712.552   -19582808.81049 -14959173.26149  21871711.4794   21871717.4304
  23491723.716   -15887849.40249 -11554574.89849  23491724.9574   23491730.0914
  21025579.942   -27189520.42249 -20901605.13949  21025579.0744   21025584.0204
  24231833.561   -12485372.10449  -9718042.79049  24231832.5814   24231839.3694
  23674683.937   -10050316.08249  -7811345.26249  23674682.1494   23674688.0184
  20190669.806   -32261762.99649 -24912310.75849  20190669.4004   20190673.5634
 98  4 22  0 57 29.9990000  0  7 26 23 30 17 10 22  6
  22159951.333   -19440471.15449 -14700656.22449  22159950.7754   22159956.0924
  21856373.304   -19663416.93749 -15021984.74249  21856372.4784   21856378.1694
  23509304.302   -15795462.87349 -11482585.49849  23509305.5064   23509310.4524
  21018489.514   -27226780.73349 -20930639.14049  21018488.6834   21018493.4254
  24249472.954   -12392676.76849  -9645812.70249  24249471.2604   24249477.5814
  23666349.656   -10094111.53749  -7845471.55449  23666349.4174   23666352.9744
  20191292.232   -32258492.30249 -24909762.17749  20191291.7704   20191295.9364
 98  4 22  0 57 59.9990000  0  7 26 23 30 17 10 22  6
  22150158.946   -19491930.40449 -14740754.29049  22150159.3444   22150164.0834
  21841106.614   -19743643.64449 -15084499.01049  21841105.4274   21841111.2464
  23526902.239   -15702985.51149 -11410525.29349  23526901.6454   23526908.0194
  21011434.801   -27263853.55749 -20959527.03849  21011433.8774   21011438.6154
  24267131.336   -12299881.87149  -9573505.00849  24267130.2654   24267134.8344
  23658121.263   -10137353.19149  -7879166.32949  23658119.2454   23658125.4914
  20192012.517   -32254706.97549 -24906812.57449  20192012.1114   20192016.2114
 98  4 22  0 58 29.9990000  0  7 26 23 30 17 10 22  6
  22140481.368   -19542787.01449 -14780382.78849  22140480.9944   22140486.5464
  21825927.470   -19823410.27149 -15146654.77049  21825926.4564   21825932.3914
  23544528.694   -15610358.54349 -11338348.50649  23544528.5724   23544535.0314
  21004424.581   -27300692.51949 -20988232.71449  21004423.5004   21004428.4054
  24284821.192   -12206920.87349  -9501067.93349  24284820.0594   24284826.6234
  23650009.262   -10179981.70249  -7912383.34249  23650007.2214   23650013.0314
  20192843.745   -32250338.80649 -24903408.82449  20192843.3454   20192847.4524
 98  4 22  0 58 59.9990000  0  7 26 23 30 17 10 22  6
  22130896.144   -19593158.10749 -14819632.94849  22130895.9104   22130901.3214
  21810812.398   -19902840.31249 -15208548.26349  21810811.3694   21810817.0074
  23562159.880   -15517706.40749 -11266152.12049  23562159.1874   23562166.6944
  20997433.310   -27337431.77549 -21016860.70949  20997432.3104   20997437.0604
  24302520.107   -12113912.38549  -9428593.80649  24302519.5064   24302524.3024
  23641987.110   -10222138.21249  -7945232.58849  23641985.7644   23641991.3994
  20193762.181   -32245512.31349 -24899647.94249  20193761.7904   20193765.9564
 98  4 22  0 59 29.9990000  0  7 26 23 30 17 10 22  6
  22121404.663   -19643036.04149 -14858498.82949  22121403.9414   22121409.7014
  21795764.150   -19981919.25149 -15270168.16649  21795763.2274   21795768.9594
  23579796.445   -15425025.60749 -11193933.40149  23579796.9064   23579803.6114
  20990466.649   -27374041.79449 -21045387.98849  20990465.8234   20990470.4894
  24320227.281   -12020861.85049  -9356086.94849  24320225.2184   24320233.1404
  23634057.402   -10263807.83049  -7977702.41149  23634056.1334   23634061.7194
  20194767.781   -32240228.00649 -24895530.31749  20194767.3534   20194771.7464
 98  4 22  0 59 59.9990000  0  8 26 23 21 30 17 10 22  6
  22112037.007   -19692263.22549 -14896857.64349  22112036.8954   22112041.6214
  21780811.900   -20060493.60249 -15331394.88849  21780810.8384   21780816.7474
  24892308.289    -4148510.96749  -2953919.36949  24892306.0954   24892315.7614
  23597463.701   -15332183.54949 -11121589.03949  23597464.3654   23597470.8534
  20983556.710   -27410353.73049 -21073683.00149  20983555.7574   20983560.6614
  24337969.182   -11927627.75449  -9283437.05849  24337968.4354   24337973.0944
  23626247.448   -10304848.17549  -8009681.87649  23626245.7904   23626251.5564
  20195890.214   -32234329.66849 -24890934.22349  20195889.5374   20195893.9584
 98  4 22  1  0 29.9990000  0  8 26 23 21 30 17 10 22  6
  22102753.365   -19741048.41849 -14934872.03449  22102752.7434   22102758.0504
  21765914.187   -20138781.49949 -15392398.39849  21765913.3124   21765918.9684
  24872334.242    -4253473.13749  -3035707.64349  24872333.0224   24872342.8454
  23615125.908   -15239368.58949 -11049265.77349  23615125.9194   23615132.5564
  20976665.121   -27446569.42349 -21101903.01549  20976664.3074   20976669.1754
  24355704.783   -11834426.03949  -9210812.35449  24355703.1384   24355708.9584
  23618517.094   -10345472.57749  -8041337.25749  23618516.0624   23618521.6704
  20197091.099   -32228019.00149 -24886016.82349  20197090.5654   20197095.0174
 98  4 22  1  0 59.9990000  0  8 26 23 21 30 17 10 22  6
  22093571.707   -19789297.56549 -14972468.73849  22093571.5394   22093576.6864
  21751089.072   -20216687.54549 -15453104.36049  21751087.9454   21751094.0714
  24852387.589    -4358291.82449  -3117384.16449  24852385.9114   24852395.8344
  23632803.037   -15146475.18349 -10976881.41049  23632803.0914   23632808.9234
  20969814.070   -27482572.01949 -21129956.98449  20969813.0604   20969817.7634
  24373452.299   -11741162.61449  -9138139.61349  24373451.5114   24373457.2974
  23610882.631   -10385592.20149  -8072599.29449  23610880.8574   23610886.6234
  20198386.850   -32221210.00549 -24880711.12049  20198386.3584   20198390.5464
 98  4 22  1  1 29.9990000  0  8 26 23 21 30 17 10 22  6
  22084479.733   -19837075.99549 -15009698.64049  22084478.9234   22084484.2194
  21736326.840   -20294263.48749 -15513553.09949  21736325.7454   21736331.8644
  24832456.335    -4463029.57549  -3198997.60449  24832454.6594   24832464.8604
  23650483.918   -15053562.03649 -10904481.64849  23650483.4414   23650489.5844
  20962995.042   -27518406.26249 -21157879.76249  20962994.2814   20962998.8794
  24391199.459   -11647900.99549  -9065468.23749  24391196.1064   24391203.6754
  23603335.978   -10425250.50049  -8103501.87649  23603335.6214   23603340.3164
  20199764.513   -32213970.46849 -24875069.93249  20199764.0244   20199768.2744
 98  4 22  1  1 59.9990000  0  8 26 23 21 30 17 10 22  6
  22075479.579   -19884371.80849 -15046552.47949  22075479.0044   22075484.5204
  21721628.211   -20371505.12249 -15573741.33349  21721627.5504   21721633.0714
  24812545.234    -4567661.22049  -3280528.35049  24812543.1044   24812552.1894
  23668171.237   -14960614.59549 -10832055.15549  23668170.9264   23668177.5684
  20956209.529   -27554064.22049 -21185665.17649  20956208.3894   20956213.2294
  24408949.081   -11554625.16049  -8992785.81149  24408948.9764   24408955.0204
  23595880.705   -10464427.69049  -8134029.53249  23595878.9434   23595885.0694
  20201228.004   -32206279.64849 -24869077.09749  20201227.4614   20201231.6204
 98  4 22  1  2 29.9990000  0  8 26 23 21 30 17 10 22  6
  22066577.909   -19931151.10849 -15083003.85749  22066577.8064   22066582.9814
  21707002.864   -20448361.73649 -15633629.56149  21707001.9954   21707007.6274
  24792661.413    -4672149.53049  -3361947.43649  24792659.3694   24792669.4524
  23685870.928   -14867602.17849 -10759578.02649  23685871.2134   23685877.7044
  20949465.195   -27589505.73249 -21213281.93349  20949464.1984   20949468.9344
  24426710.079   -11461291.39549  -8920058.24549  24426707.4824   24426714.2294
  23588527.398   -10503068.90949  -8164139.57049  23588526.0234   23588532.2244
  20202784.401   -32198100.49049 -24862703.74649  20202783.7744   20202788.0864
 98  4 22  1  2 59.9990000  0  8 26 23 21 30 17 10 22  6
  22057762.200   -19977477.88249 -15119102.60249  22057761.4794   22057766.8604
  21692437.861   -20524900.94649 -15693270.44849  21692436.8184   21692442.4814
  24772790.441    -4776570.49449  -3443314.04149  24772789.1254   24772797.8614
  23703563.863   -14774625.29249 -10687128.58849  23703564.1244   23703570.2034
  20942750.439   -27624791.95149 -21240777.67049  20942749.2964   20942754.2724
  24444468.797   -11367968.36949  -8847339.03449  24444467.5174   24444473.1484
  23581265.271   -10541232.56749  -8193877.48849  23581263.6714   23581270.6984
  20204418.133   -32189515.39249 -24856014.07349  20204417.6434   20204421.9584
 98  4 22  1  3 29.9990000  0  8 26 23 21 30 17 10 22  6
  22049056.442   -20023226.47049 -15154750.82049  22049056.2564   22049061.1614
  21677956.794   -20600999.27149 -15752567.79949  21677955.7344   21677961.5794
  24752959.838    -4880779.28749  -3524515.33649  24752958.8434   24752968.2644
  23721273.494   -14681561.03849 -10614611.10649  23721273.1344   23721280.8024
  20936088.396   -27659801.11749 -21268057.53049  20936087.4284   20936092.2174
  24462250.018   -11274526.84849  -8774527.49149  24462248.6284   24462255.8634
  23574118.970   -10578784.42349  -8223138.64149  23574117.3684   23574123.5954
  20206156.741   -32180378.96449 -24848894.79949  20206156.2294   20206160.5974
 98  4 22  1  3 59.9990000  0  8 26 23 21 30 17 10 22  6
  22040443.893   -20068485.65349 -15190017.68449  22040443.4584   22040448.0634
  21663543.274   -20676742.57149 -15811588.50049  21663542.4924   21663548.1244
  24733154.679    -4984854.88349  -3605612.88249  24733153.2044   24733162.6434
  23738983.599   -14588494.26349 -10542091.65049  23738984.0034   23738990.5544
  20929460.380   -27694631.65049 -21295198.19249  20929459.2874   20929464.1834
  24480037.700   -11181052.50849  -8701690.40549  24480037.4134   24480042.8394
  23567070.086   -10615827.58149  -8252003.45249  23567069.0384   23567075.2004
  20207987.347   -32170759.07449 -24841398.79249  20207986.8824   20207991.2034
 98  4 22  1  4 29.9990000  0  8 26 23 21 30 17 10 22  6
  22031950.910   -20113116.74949 -15224795.13349  22031950.6684   22031954.2664
  21649227.518   -20751972.20849 -15870208.95149  21649226.5324   21649232.2744
  24713402.317    -5088652.64749  -3686493.96449  24713401.4684   24713410.3164
  23756722.514   -14495276.66549 -10469454.64449  23756722.2734   23756729.3194
  20922892.638   -27729145.18149 -21322091.84549  20922891.7634   20922896.5344
  24497858.636   -11087403.34949  -8628717.03649  24497857.5864   24497863.5474
  23560143.744   -10652226.54249  -8280366.28549  23560142.4834   23560148.6264
  20209936.682   -32160515.24649 -24833416.58449  20209936.1624   20209940.6184
 98  4 22  1  4 59.9990000  0  8 26 23 21 30 17 10 22  6
  22023568.860   -20157164.32649 -15259117.89149  22023569.1004   22023573.4334
  21634998.216   -20826747.70549 -15928475.52049  21634997.1834   21635002.9164
  24693697.135    -5192203.42649  -3767182.59349  24693694.8214   24693704.6524
  23774484.537   -14401936.52449 -10396722.16049  23774484.2274   23774491.1234
  20916375.187   -27763394.48849 -21348779.60649  20916374.2454   20916378.9064
  24515702.573   -10993632.89549  -8555649.21449  24515701.6534   24515707.7454
  23553329.411   -10688035.94349  -8308269.70749  23553328.2004   23553334.6074
  20211996.987   -32149688.20949 -24824979.94049  20211996.6364   20212000.8614
 98  4 22  1  5 29.9990000  0  8 26 23 21 30 17 10 22  6
  22015268.432   -20200783.79149 -15293107.05649  22015268.4174   22015272.5964
  21620827.399   -20901215.60649 -15986502.39749  21620826.4434   21620832.0554
  24674008.659    -5295665.43149  -3847802.02149  24674007.7204   24674016.4354
  23792241.094   -14308625.61549 -10324012.45349  23792240.8444   23792248.7234
  20909876.756   -27797543.82849 -21375389.47749  20909875.7944   20909880.6024
  24533539.584   -10899899.54549  -8482610.28449  24533536.7564   24533543.9964
  23546596.525   -10723416.87849  -8335839.26249  23546595.4614   23546600.1724
  20214142.194   -32138415.21549 -24816195.80249  20214141.7714   20214146.1454
 98  4 22  1  5 59.9990000  0  8 26 23 21 30 17 10 22  6
  22007059.743   -20243920.41849 -15326719.98249  22007059.0504   22007064.2454
  21606722.246   -20975338.45949 -16044260.40349  21606721.2384   21606726.7654
  24654340.523    -5399021.49049  -3928338.90249  24654338.9964   24654348.5914
  23809996.391   -14215321.15249 -10251307.77649  23809996.2934   23810003.8054
  20903403.275   -27831562.31349 -21401897.38049  20903402.3764   20903407.1054
  24551374.494   -10806176.66649  -8409579.50349  24551373.7484   24551378.5604
  23539951.961   -10758333.52149  -8363047.01249  23539949.8724   23539956.5964
  20216377.750   -32126667.52649 -24807041.76249  20216377.3234   20216381.4594
 98  4 22  1  6 29.9990000  0  8 26 23 21 30 17 10 22  6
  21998959.891   -20286484.85849 -15359887.04249  21998959.5574   21998964.9094
  21592694.010   -21049057.03849 -16101703.39749  21592692.9604   21592698.4344
  24634703.089    -5502215.25949  -4008749.35349  24634701.2114   24634711.4004
  23827761.706   -14121963.63749 -10178561.76049  23827761.3644   23827769.4184
  20896968.799   -27865375.71749 -21428245.47349  20896967.7204   20896972.6794
  24569218.696   -10712404.56249  -8336510.36049  24569217.1254   24569223.1454
  23533410.391   -10792709.57949  -8389833.54749  23533409.9294   23533415.4514
  20218713.947   -32114390.83049 -24797475.54149  20218713.6364   20218717.6904
 98  4 22  1  6 59.9990000  0  8 26 23 21 30 17 10 22  6
  21990937.662   -20328641.77149 -15392736.55449  21990937.6214   21990942.0094
  21578704.286   -21122573.26649 -16158988.71449  21578702.8454   21578708.7774
  24615058.185    -5605448.77149  -4089190.80049  24615056.4714   24615064.8984
  23845501.157   -14028742.90249 -10105922.32049  23845501.3134   23845509.0224
  20890539.164   -27899163.69249 -21454573.75549  20890538.0114   20890543.0894
  24587037.478   -10618766.34149  -8263545.56549  24587036.2494   24587044.0624
  23526937.653   -10826726.06549  -8416339.91649  23526936.4814   23526942.9694
  20221116.428   -32101765.77849 -24787637.85749  20221116.0834   20221120.3404
 98  4 22  1  7 29.9990000  0  8 26 23 21 30 17 10 22  6
  21983038.926   -20370150.06749 -15425080.65649  21983038.8394   21983042.6254
  21564799.891   -21195641.02749 -16215924.57749  21564799.1004   21564804.6824
  24595447.545    -5708502.68649  -4169492.29449  24595445.9674   24595454.6004
  23863256.751   -13935436.65949 -10033216.26949  23863257.5114   23863264.3254
  20884159.194   -27932690.54449 -21480698.57149  20884158.2484   20884163.1574
  24604873.969   -10525034.95649  -8190508.15749  24604871.7424   24604877.2354
  23520577.844   -10860147.62449  -8442382.68149  23520576.6544   23520581.6874
  20223629.550   -32088559.36249 -24777347.15549  20223629.0034   20223633.2284
 98  4 22  1  7 59.9990000  0  8 26 23 21 30 17 10 22  6
  21975260.529   -20411025.79749 -15456931.84949  21975259.9444   21975264.4434
  21550978.065   -21268275.07849 -16272522.49049  21550977.0194   21550982.5504
  24575871.624    -5811373.93549  -4249651.46849  24575869.9994   24575879.0984
  23881027.678   -13842050.48949  -9960447.92549  23881026.8094   23881034.8644
  20877827.517   -27965963.65049 -21506625.65549  20877826.5414   20877831.4814
  24622724.258   -10431231.03549  -8117414.24849  24622724.3834   24622729.1164
  23514329.383   -10892983.24949  -8467968.88449  23514328.4694   23514333.1334
  20226249.087   -32074793.56249 -24766620.56249  20226248.4704   20226252.7534
 98  4 22  1  8 29.9990000  0  7 26 23 21 30 17 22  6
  21967599.035   -20451286.86349 -15488304.06349  21967598.7184   21967603.6754
  21537237.388   -21340482.47549 -16328787.94749  21537236.3024   21537241.9084
  24556332.998    -5914048.95049  -4329657.68749  24556331.4454   24556339.6284
  23898812.984   -13748588.39649  -9887620.41049  23898813.6464   23898820.3884
  20871542.622   -27998991.16549 -21532361.37649  20871541.5724   20871546.3564
  23508191.705   -10925236.37449  -8493101.18049  23508189.6194   23508196.4674
  20228972.836   -32060480.05249 -24755467.19849  20228972.4444   20228976.7644
 98  4 22  1  8 59.9990000  0  7 26 23 21 30 17 22  6
  21960034.217   -20491039.81849 -15519280.34149  21960033.3954   21960038.8954
  21523563.569   -21412338.65149 -16384779.71949  21523562.6484   21523568.2174
  24536817.254    -6016604.14649  -4409570.58149  24536816.5754   24536826.2954
  23916593.115   -13655153.60749  -9814814.18249  23916593.0174   23916601.1284
  20865286.549   -28031866.94249 -21557978.84849  20865285.5334   20865290.1294
  23502148.674   -10956991.15249  -8517845.14049  23502147.6924   23502153.2114
  20231784.432   -32045705.25349 -24743954.39049  20231783.9574   20231788.2494
 98  4 22  1  9 29.9990000  0  7 26 23 21 30 17 22  6
  21952582.624   -20530198.07949 -15549793.22749  21952582.2044   21952587.2054
  21509979.204   -21483724.90749 -16440405.31949  21509978.3624   21509983.9084
  24517345.228    -6118929.17249  -4489304.11149  24517342.4774   24517353.8574
  23934383.328   -13561666.46649  -9741967.15649  23934383.3314   23934390.8874
  20859077.637   -28064494.76949 -21583403.12349  20859076.5924   20859081.5374
  23496218.188   -10988155.95849  -8542129.41249  23496217.1674   23496223.3074
  20234702.009   -32030373.37949 -24732007.48149  20234701.5084   20234705.7814
 98  4 22  1  9 59.9990000  0  7 26 23 21 30 17 22  6
  21945232.865   -20568821.70149 -15579889.51049  21945232.5824   21945236.9414
  21496471.118   -21554710.15349 -16495718.44849  21496470.2234   21496475.6544
  24497904.472    -6221089.53249  -4568909.33649  24497902.2854   24497911.1544
  23952170.537   -13468193.39449  -9669131.13449  23952170.1384   23952178.1214
  20852904.147   -28096936.74849 -21608682.58949  20852903.1764   20852907.9414
  23490388.118   -11018793.44649  -8566002.76849  23490387.7334   23490392.8764
  20237714.540   -32014542.45849 -24719671.71249  20237714.1524   20237718.3194
 98  4 22  1 10 29.9990000  0  7 26 23 21 30 17 22  6
  21937955.200   -20607066.15349 -15609690.33549  21937954.4304   21937959.2084
  21483009.311   -21625452.28049 -16550842.13149  21483008.2834   21483013.8634
  24478462.021    -6323259.02249  -4648521.69049  24478460.1754   24478468.5844
  23969924.167   -13374897.68249  -9596433.31049  23969924.6564   23969931.0384
  20846735.672   -28129352.37449 -21633941.50649  20846734.8264   20846739.6054
  23484628.550   -11049061.58749  -8589588.33149  23484627.3114   23484632.9264
  20240791.317   -31998373.79349 -24707072.74749  20240790.7724   20240795.0064
 98  4 22  1 10 59.9990000  0  7 26 23 21 30 17 22  6
  21930803.893   -20644645.48849 -15638972.89749  21930803.0014   21930807.6604
  21469648.569   -21695663.12849 -16605551.83349  21469647.5824   21469653.0444
  24459068.529    -6425170.38249  -4727932.87149  24459068.2494   24459075.0154
  23987698.640   -13281493.78849  -9523651.18249  23987698.4224   23987705.5504
  20840626.341   -28161457.20549 -21658958.24949  20840625.4454   20840629.9974
  23478993.210   -11078676.28749  -8612664.72649  23478991.3634   23478997.8404
  20243986.195   -31981584.42449 -24693990.15049  20243985.8704   20243990.1654
 98  4 22  1 11 29.9990000  0  7 26 23 21 30 17 22  6
  21923736.642   -20681783.71449 -15667911.73649  21923736.5034   21923741.3834
  21456340.897   -21765595.35249 -16660044.43149  21456339.8854   21456345.3264
  24439679.558    -6527059.53749  -4807326.77249  24439677.4034   24439686.5184
  24005450.808   -13188206.38949  -9450959.79549  24005450.7524   24005458.4104
  20834529.903   -28193494.17649 -21683922.11549  20834529.0164   20834533.9274
  23473434.733   -11107884.75849  -8635424.56949  23473433.4504   23473439.2004
  20247255.868   -31964402.25149 -24680601.43549  20247255.4674   20247259.8324
 98  4 22  1 11 59.9990000  0  7 26 23 21 30 17 22  6
  21916770.787   -20718390.30649 -15696436.32949  21916770.6454   21916774.8284
  21443100.069   -21835176.12849 -16714263.17049  21443099.2514   21443104.5084
  24420315.065    -6628819.10649  -4886619.70749  24420314.1684   24420322.6774
  24023199.792   -13094934.49149  -9378280.52149  24023198.4964   24023206.3114
  20828460.907   -28225386.86249 -21708773.54549  20828459.9274   20828464.6604
  23467971.424   -11136594.23049  -8657795.58749  23467969.8534   23467976.3844
  20250615.872   -31946745.40149 -24666842.86049  20250615.3314   20250619.7354
 98  4 22  1 12 29.9990000  0  7 26 23 21 30 17 22  6
  21909919.539   -20754393.74049 -15724490.91449  21909919.3384   21909924.1734
  21429939.243   -21904336.53449 -16768154.34949  21429938.2424   21429943.8834
  24400991.136    -6730366.07749  -4965746.97049  24400988.1974   24400997.7074
  24040957.005   -13001619.04049  -9305567.31549  24040957.8714   24040964.4254
  20822431.031   -28257073.98149 -21733464.80149  20822429.8124   20822434.8834
  23462615.703   -11164737.16949  -8679725.13649  23462614.3604   23462619.9254
  20254076.639   -31928558.80949 -24652671.49549  20254076.1954   20254080.7184
 98  4 22  1 12 59.9990000  0  7 26 23 21 30 17 22  6
  21903182.739   -20789795.42449 -15752076.62449  21903182.4924   21903187.4154
  21416855.496   -21973091.93349 -16821729.94649  21416854.7004   21416860.2134
  24381706.791    -6831704.30549  -5044711.57949  24381705.3374   24381714.4734
  24058717.490   -12908287.63549  -9232841.67049  24058717.7264   24058725.1904
  20816437.971   -28288567.51249 -21758005.21749  20816436.9614   20816441.6944
  23457364.896   -11192330.91649  -8701226.76149  23457364.0054   23457369.3124
  20257638.926   -31909838.82649 -24638084.52749  20257638.4794   20257643.0344
 98  4 22  1 13 29.9990000  0  7 26 23 21 30 17 22  6
  21896566.660   -20824562.55849 -15779167.83749  21896566.1934   21896570.7604
  21403854.877   -22041410.37849 -16874965.05649  21403853.9004   21403859.5404
  24362470.082    -6932792.40649  -5123481.29249  24362469.7234   24362477.2934
  24076483.837   -12814925.76449  -9160092.31949  24076484.2674   24076490.6034
  20810488.255   -28319833.28449 -21782368.14849  20810487.0704   20810492.2174
  23452222.808   -11219353.74249  -8722283.49949  23452221.7254   23452227.1674
  20261309.190   -31890551.61549 -24623055.54449  20261308.8084   20261313.2404
 98  4 22  1 13 59.9990000  0  7 26 23 21 30 17 22  6
  21890070.645   -20858699.13749 -15805767.73649  21890070.3504   21890074.7894
  21390940.089   -22109277.72649 -16927848.67149  21390939.2014   21390944.6694
  24343280.583    -7033634.27249  -5202059.17449  24343279.9784   24343286.8534
  24094254.496   -12721541.05949  -9087325.16049  24094254.1354   24094262.8664
  20804586.863   -28350845.36449 -21806533.39849  20804585.8654   20804590.8414
  23447191.837   -11245791.66149  -8742884.47749  23447191.8674   23447196.7764
  20265088.408   -31870691.92949 -24607580.47549  20265087.9324   20265092.1674
 98  4 22  1 14 29.9990000  0  7 26 23 21 30 17 22  6
  21883670.778   -20892330.78749 -15831974.18249  21883670.3804   21883674.7334
  21378090.912   -22176800.61749 -16980463.87949  21378089.9764   21378095.6344
  24324110.629    -7134371.98249  -5280555.83949  24324109.7494   24324116.4044
  24112005.272   -12628260.76649  -9014639.35649  24112005.8964   24112013.0574
  20798713.487   -28381710.21749 -21830583.92749  20798712.3614   20798717.1364
  23442248.808   -11271767.44849  -8763125.34549  23442248.0194   23442252.9234
  20268956.341   -31850365.87449 -24591741.99849  20268955.9744   20268960.1244
 98  4 22  1 14 59.9990000  0  7 26 23 21 30 17 22  6
  21877368.027   -20925452.00349 -15857782.89949  21877367.3044   21877372.5084
  21365311.366   -22243957.44849 -17032793.84849  21365310.4834   21365316.0894
  24304964.282    -7234985.40249  -5358955.65149  24304963.0544   24304970.8004
  24129739.729   -12535066.81149  -8942020.83049  24129740.6884   24129748.1614
  20792873.217   -28412400.87049 -21854498.72049  20792872.1644   20792877.0654
  23437396.776   -11297264.71549  -8782993.32649  23437396.7784   23437401.2384
  20272917.711   -31829548.57549 -24575520.75349  20272917.2514   20272921.5084
 98  4 22  1 15 29.9990000  0  7 26 23 21 30 17 22  6
  21871166.046   -20958042.98449 -15883178.43449  21871165.6474   21871170.3814
  21352608.297   -22310712.51049 -17084810.74749  21352607.3784   21352612.7194
  24285848.188    -7335440.61849  -5437232.25349  24285847.9874   24285855.5474
  24147464.649   -12441921.69449  -8869440.39549  24147464.6284   24147471.5904
  20787071.391   -28442889.52149 -21878256.10949  20787070.6104   20787075.4484
  23432643.024   -11322246.65749  -8802459.77149  23432641.4404   23432647.8854
  20276976.204   -31808221.41249 -24558902.19649  20276975.7524   20276980.1744
 98  4 22  1 15 59.9990000  0  7 26 23 21 30 17 22  6
  21865066.222   -20990097.70449 -15908156.10449  21865066.1304   21865071.0794
  21339981.395   -22377067.20349 -17136515.65949  21339980.4194   21339985.8064
  24266762.811    -7435734.93349  -5515383.49049  24266762.1204   24266769.7064
  24165182.854   -12348812.37449  -8796887.83449  24165183.3224   24165191.2884
  20781306.733   -28473183.13349 -21901861.51249  20781305.8114   20781310.5204
  23427988.512   -11346706.39549  -8821519.30849  23427987.4924   23427993.0494
  20281131.191   -31786386.82149 -24541888.24749  20281130.5454   20281134.9374
 98  4 22  1 16 29.9990000  0  7 26 23 21 30 17 22  6
  21859075.105   -21021581.79149 -15932689.13149  21859075.0774   21859078.8044
  21327434.994   -22442998.81449 -17187890.92049  21327433.9254   21327439.4644
  24247712.925    -7535842.07049  -5593388.85449  24247711.3294   24247720.0374
  24182899.432   -12255711.85749  -8724342.12249  24182899.4674   24182906.8334
  20775580.959   -28503272.17749 -21925307.52049  20775580.0154   20775584.8844
  23423438.030   -11370620.22449  -8840153.45649  23423436.6124   23423441.6114
  20285383.674   -31764039.79549 -24524474.99949  20285383.2514   20285387.7714
 98  4 22  1 16 59.9990000  0  7 26 23 21 30 17 22  6
  21853187.593   -21052520.65749 -15956797.31649  21853187.0334   21853191.8014
  21314959.314   -22508558.89849 -17238976.67249  21314958.1824   21314963.8694
  24228692.082    -7635796.72149  -5671275.38949  24228689.9174   24228698.6984
  24200606.995   -12162658.71049  -8651833.34049  24200607.2784   24200614.5024
  20769886.083   -28533198.87649 -21948627.01749  20769885.3084   20769889.9424
  23418984.361   -11394023.73649  -8858389.95849  23418983.1354   23418989.4834
  20289725.474   -31741223.42649 -24506696.01649  20289725.0264   20289729.5304
 98  4 22  1 17 29.9990000  0  7 26 23 21 30 17 22  6
  21847413.561   -21082863.33649 -15980440.93449  21847413.8404   21847417.5624
  21302560.307   -22573715.90749 -17289748.34149  21302559.3354   21302564.5894
  24209706.049    -7735568.17349  -5749019.18049  24209705.1404   24209713.9174
  24218312.891   -12069614.55749  -8579331.55949  24218313.6504   24218320.8584
  20764228.343   -28562930.54949 -21971794.55349  20764227.5344   20764232.0574
  23414634.415   -11416881.88049  -8876201.49549  23414633.1774   23414639.1934
  20294163.064   -31717903.90449 -24488524.97649  20294162.6744   20294166.9194
 98  4 22  1 17 59.9990000  0  7 26 23 21 30 17 22  6
  21841773.022   -21112504.79949 -16003538.17349  21841772.9754   21841777.3604
  21290254.748   -22638382.09549 -17340137.54149  21290253.8444   21290259.1044
  24190770.945    -7835072.60349  -5826554.93149  24190769.4394   24190775.8704
  24236035.165   -11976484.20149  -8506762.60749  24236033.9034   24236043.7014
  20758627.416   -28592363.55049 -21994729.34849  20758626.6324   20758631.1964
  23410405.977   -11439101.22349  -8893515.26249  23410405.5044   23410410.4274
  20298712.732   -31693995.35649 -24469894.97349  20298712.2644   20298716.7794
 98  4 22  1 18 29.9990000  0  7 26 23 21 30 17 22  6
  21836248.882   -21141534.19049 -16026158.44849  21836248.2504   21836252.7394
  21278027.053   -22702638.89649 -17390207.73449  21278026.1494   21278031.5084
  24171870.656    -7934393.15449  -5903947.37949  24171869.8634   24171876.0244
  24253756.070   -11883360.33449  -8434198.70149  24253755.7744   24253762.8164
  20753068.851   -28621573.96449 -22017490.70749  20753068.0904   20753072.8274
  23406283.319   -11460766.39349  -8910397.21649  23406282.3084   23406288.4084
  20303358.325   -31669582.69049 -24450872.15249  20303357.8784   20303362.0194
 98  4 22  1 18 59.9990000  0  7 26 23 21 30 17 22  6
  21830835.338   -21169982.42749 -16048325.88049  21830835.1074   21830839.4254
  21265870.286   -22766522.91849 -17439987.43849  21265869.3254   21265874.7304
  24153000.907    -8033552.95849  -5981214.58749  24152999.9964   24153007.0784
  24271466.763   -11790290.54549  -8361676.94849  24271467.2134   24271474.9934
  20747545.460   -28650599.68549 -22040108.14649  20747544.4444   20747549.0954
  23402257.733   -11481921.06549  -8926881.36049  23402257.2044   23402262.1174
  20308095.639   -31644687.92549 -24431473.66249  20308095.2884   20308099.6514
 98  4 22  1 19 29.9990000  0  7 26 23 21 30 17 22  6
  21825551.170   -21197750.96049 -16069963.67749  21825550.8764   21825555.1224
  21253807.578   -22829912.50849 -17489381.88549  21253806.6064   21253811.9084
  24134183.204    -8132440.08749  -6058269.32349  24134181.2444   24134189.5934
  24289183.966   -11697186.17449  -8289128.25749  24289183.8684   24289191.3814
  20742077.602   -28679333.47949 -22062498.11749  20742076.7994   20742081.3944
  23398349.181   -11502459.88049  -8942885.64449  23398347.2514   23398353.8894
  20312943.786   -31619210.73149 -24411621.32449  20312943.0524   20312947.6964
 98  4 22  1 19 59.9990000  0  7 26 23 21 30 17 22  6
  21820369.220   -21224982.04549 -16091182.67549  21820368.7234   21820373.5904
  21241815.831   -22892929.25149 -17538485.79549  21241814.8484   21241820.2314
  24115392.466    -8231184.97049  -6135213.22349  24115390.7924   24115397.3654
  24306880.774   -11604189.94349  -8216663.82349  24306881.6964   24306888.5944
  20736639.711   -28707909.81549 -22084765.38849  20736638.6844   20736643.4104
  23394532.544   -11522516.12549  -8958513.88249  23394531.4934   23394537.0144
  20317880.382   -31593268.62649 -24391406.71249  20317880.0944   20317884.3264
 98  4 22  1 20 29.9990000  0  7 26 23 21 30 17 22  6
  21815291.645   -21251664.20949 -16111973.92649  21815291.3484   21815296.3374
  21229898.487   -22955555.22149 -17587285.20549  21229897.5284   21229902.8114
  24096633.721    -8329762.13749  -6212026.42849  24096630.8904   24096639.6924
  24324557.017   -11511301.55749  -8144283.41749  24324556.5304   24324566.2294
  20731230.834   -28736333.56749 -22106913.76249  20731229.8884   20731234.6404
  23390808.284   -11542086.61449  -8973763.61849  23390807.2314   23390813.1624
  20322911.265   -31566831.28249 -24370806.19849  20322910.7024   20322915.2714
 98  4 22  1 20 59.9990000  0  7 26 23 21 30 17 22  6
  21810308.705   -21277849.83249 -16132378.28249  21810308.7074   21810312.8374
  21218046.619   -23017837.11949 -17635816.51949  21218045.5634   21218050.9284
  24077895.185    -8428232.80549  -6288756.63549  24077894.2814   24077903.8114
  24342203.572   -11418568.13849  -8072023.79749  24342204.2034   24342210.5414
  20725841.888   -28764652.70049 -22128980.62149  20725840.9394   20725845.7444
  23387168.022   -11561216.65549  -8988670.13749  23387166.7014   23387173.5864
  20328029.636   -31539933.96249 -24349847.26949  20328029.1484   20328033.8054
 98  4 22  1 21 29.9990000  0  7 26 23 21 30 17 22  6
  21805433.283   -21303470.55449 -16152342.45949  21805433.1834   21805437.6784
  21206274.952   -23079697.32149 -17684019.25049  21206273.9124   21206279.1424
  24059188.342    -8526537.09249  -6365357.21849  24059186.2724   24059195.4524
  24359836.382   -11325907.49249  -7999820.89449  24359837.5454   24359845.2474
  20720487.037   -28792792.67249 -22150907.87849  20720486.0464   20720490.8434
  23383625.754   -11579831.95949  -9003175.57849  23383624.7734   23383630.6914
  20333247.115   -31512515.97649 -24328482.63149  20333246.4964   20333251.1064
 98  4 22  1 21 59.9990000  0  7 26 23 21 30 17 22  6
  21800684.859   -21328423.74049 -16171786.47149  21800684.3804   21800689.3004
  21194595.135   -23141075.23149 -17731846.15749  21194594.2084   21194599.6104
  24040527.572    -8624599.67849  -6441769.48249  24040528.3294   24040534.4624
  24377472.502   -11233229.83349  -7927604.71449  24377473.8564   24377481.5094
  20715179.916   -28820681.67249 -22172639.55449  20715178.9104   20715183.8964
  23380195.975   -11597855.28149  -9017219.72449  23380194.6684   23380200.5924
  20338578.357   -31484500.20749 -24306652.18749  20338577.8264   20338582.1874
 98  4 22  1 22 29.9990000  0  7 26 23 21 30 17 22  6
  21796059.661   -21352728.88949 -16190725.52649  21796059.5124   21796063.8204
  21182999.519   -23202010.61849 -17779328.25149  21182998.7154   21183003.9234
  24021907.086    -8722450.83749  -6518017.00149  24021904.7114   24021914.5004
  24395105.809   -11140566.62649  -7855399.79649  24395106.2394   24395113.5764
  20709914.883   -28848349.60049 -22194198.97749  20709914.1354   20709918.7434
  23376874.258   -11615310.88949  -9030821.50049  23376873.6574   23376878.7434
  20344013.988   -31455935.87649 -24284394.30649  20344013.6024   20344018.0784
 98  4 22  1 22 59.9990000  0  7 26 23 21 30 17 22  6
  21791517.003   -21376600.64649 -16209326.87549  21791516.8474   21791521.4454
  21171447.608   -23262716.15549 -17826631.22549  21171446.5734   21171452.0504
  24003285.815    -8820304.80049  -6594266.67949  24003285.6214   24003293.5734
  24412696.048   -11048130.29549  -7783371.64349  24412696.8624   24412704.1264
  20704653.197   -28875999.85249 -22215744.62649  20704652.2974   20704657.1384
  23373621.492   -11632405.34149  -9044141.83149  23373620.3094   23373626.5444
  20349510.506   -31427051.61649 -24261887.13149  20349510.1474   20349514.5404
 98  4 22  1 23 29.9990000  0  7 26 23 21 30 17 22  6
  21787105.925   -21399781.01649 -16227389.46949  21787106.3604   21787110.0064
  21159984.575   -23322954.67049 -17873570.30049  21159983.7684   21159988.9064
  23984713.560    -8917901.76849  -6670316.10349  23984711.5904   23984722.3454
  24430286.869   -10955691.10449  -7711341.24349  24430288.3234   24430293.9344
  20699439.664   -28903397.39149 -22237093.35649  20699438.6674   20699443.3374
  23370481.575   -11648906.76649  -9057000.07749  23370480.0734   23370487.7764
  20355111.786   -31397616.99249 -24238951.09149  20355111.4104   20355115.7604
 98  4 22  1 23 59.9990000  0  7 26 23 21 30 17 22  6
  21782803.878   -21422388.04949 -16245005.32149  21782803.7394   21782808.2814
  21148590.081   -23382833.16949 -17920228.84049  21148589.0164   21148594.2894
  23966172.199    -9015337.06849  -6746239.56849  23966172.0344   23966179.1294
  24447856.908   -10863360.72749  -7639395.63949  24447859.3394   24447862.7704
  20694255.661   -28930639.38449 -22258320.87849  20694254.6564   20694259.3984
  23367434.095   -11664922.05949  -9069479.52949  23367433.4924   23367438.7574
  20360799.636   -31367727.07349 -24215660.28049  20360799.1324   20360803.8514
 98  4 22  1 24 29.9990000  0  7 26 23 21 30 17 22  6
  21778611.112   -21444420.94649 -16262173.78449  21778610.9614   21778615.7204
  21137271.894   -23442310.47349 -17966574.75949  21137270.7724   21137276.1054
  23947667.135    -9112581.37749  -6822014.20749  23947667.3154   23947672.5344
  24465411.654   -10771110.22349  -7567512.26749  24465410.6294   24465419.3724
  20689108.050   -28957689.87249 -22279399.18149  20689107.0394   20689111.9584
  23364483.560   -11680427.43249  -9081561.63349  23364482.4554   23364487.6894
  20366579.017   -31337356.48449 -24191994.92749  20366578.6214   20366583.1634
 98  4 22  1 24 59.9990000  0  7 26 23 21 30 17 22  6
  21774523.055   -21465903.93349 -16278913.74649  21774522.9914   21774527.3274
  21126027.400   -23501400.52349 -18012618.92749  21126026.3664   21126031.4834
  23929197.307    -9209640.54749  -6897644.61649  23929194.5534   23929203.4004
  24482946.693   -10678963.43649  -7495709.75249  24482947.1084   24482956.4564
  20683993.822   -28984565.33549 -22300341.09449  20683992.9704   20683997.6264
  23361625.226   -11695448.57049  -9093266.40749  23361623.5154   23361629.7904
  20372448.124   -31306514.10749 -24167961.94049  20372447.8084   20372452.3364
 98  4 22  1 25 29.9990000  0  7 26 23 21 30 17 22  6
  21770544.979   -21486808.69249 -16295203.13749  21770544.6264   21770549.4144
  21114861.127   -23560079.45949 -18058342.74749  21114860.0574   21114865.5104
  23910769.690    -9306478.07549  -6973102.30049  23910768.5594   23910775.9064
  24500468.278   -10586888.06449  -7423962.88349  24500468.7784   24500475.1914
  20678920.623   -29011225.29849 -22321115.08949  20678919.7624   20678924.4984
  23358866.373   -11709946.85449  -9104563.75349  23358864.5854   23358870.6454
  20378414.067   -31275162.97649 -24143532.51049  20378413.6184   20378418.3054
 98  4 22  1 25 59.9990000  0  7 26 23 21 30 17 22  6
  21766688.310   -21507075.42849 -16310995.37149  21766687.7064   21766692.2714
  21103786.578   -23618276.45949 -18103691.02649  21103785.6634   21103790.9074
  23892398.160    -9403019.94549  -7048329.57449  23892397.3084   23892404.4354
  24517991.015   -10494806.24049  -7352211.01349  24517991.1084   24517998.4804
  20673902.772   -29037594.39649 -22341662.43549  20673901.7764   20673906.6624
  23356222.951   -11723837.70149  -9115387.77649  23356221.3444   23356226.8824
  20384491.345   -31243226.74749 -24118647.17749  20384491.1604   20384495.6124
 98  4 22  1 26 29.9990000  0  7 26 23 21 30 17 22  6
  21762937.968   -21526783.13549 -16326352.00949  21762938.0514   21762941.9564
  21092786.767   -23676080.80749 -18148733.33649  21092785.6484   21092791.1524
  23874066.401    -9499354.02649  -7123394.96749  23874065.0894   23874073.0484
  24535497.113   -10402811.75249  -7280527.17249  24535497.6984   24535505.9244
  20668921.886   -29063769.20549 -22362058.39249  20668921.0844   20668925.5934
  23353679.029   -11737205.53449  -9125804.23649  23353678.0854   23353683.8084
  20390662.272   -31210798.42449 -24093378.41249  20390661.9084   20390666.5294
 98  4 22  1 26 59.9990000  0  7 26 23 21 30 17 22  6
  21759304.639   -21545876.38949 -16341229.82849  21759303.8474   21759309.2864
  21081870.257   -23733447.17049 -18193434.36549  21081869.3364   21081874.6234
  23855783.046    -9595432.83949  -7198261.44649  23855782.4554   23855789.3744
  24552993.080   -10310870.92749  -7208885.15549  24552993.6164   24553001.0394
  20663986.815   -29089703.15049 -22382266.65849  20663985.8704   20663990.5104
  23351244.974   -11749997.46049  -9135771.97149  23351243.5904   23351249.3014
  20396936.738   -31177826.17749 -24067685.78149  20396936.2954   20396940.7504
 98  4 22  1 27 29.9990000  0  7 26 23 21 30 17 22  6
  21755775.949   -21564419.30049 -16355678.82249  21755775.7404   21755780.3684
  21071022.004   -23790454.91449 -18237855.94749  21071020.8664   21071026.2334
  23837530.208    -9691352.04449  -7273003.58149  23837527.8834   23837532.6244
  24570464.520   -10219058.40249  -7137343.08849  24570464.8914   24570473.4654
  20659081.521   -29115480.65349 -22402353.01249  20659080.8464   20659085.4854
  23348905.756   -11762288.79049  -9145349.61749  23348904.2504   23348910.1454
  20403299.877   -31144387.68549 -24041629.88349  20403299.6304   20403304.0034
 98  4 22  1 27 59.9990000  0  7 26 23 21 30 17 22  6
  21752365.838   -21582339.52549 -16369642.61449  21752365.2414   21752370.5094
  21060255.449   -23847033.41849 -18281943.06649  21060254.5994   21060259.6794
  23819315.557    -9787070.02749  -7347588.92049  23819313.5424   23819319.7384
  24587920.685   -10127326.17549  -7065863.59949  24587920.7274   24587930.5414
  20654213.467   -29141062.45949 -22422286.88949  20654212.7264   20654217.4844
  23346668.433   -11774044.65549  -9154510.02949  23346667.5284   23346672.9274
  20409763.006   -31110423.79949 -24015164.57649  20409762.8554   20409767.2844
 98  4 22  1 28 29.9990000  0  7 26 23 21 30 17 22  6
  21749079.047   -21599611.30249 -16383101.11749  21749078.9164   21749083.4944
  21049573.987   -23903164.58749 -18325681.60549  21049572.9644   21049578.2294
  23801140.872    -9882578.61149  -7422011.10849  23801141.5334   23801146.2984
  24605361.372   -10035675.35449  -6994447.52749  24605362.2624   24605369.8924
  20649385.049   -29166435.83749 -22442058.35649  20649384.0294   20649388.8234
  23344534.987   -11785254.74249  -9163245.15849  23344534.1454   23344539.0954
  20416327.184   -31075929.30949 -23988285.79049  20416326.6614   20416331.4074
 98  4 22  1 28 59.9990000  0  7 26 23 21 30 17 22  6
  21745912.684   -21616250.58949 -16396066.76149  21745912.3284   21745916.9474
  21038971.569   -23958880.22049 -18369096.33549  21038970.8644   21038976.0394
  23783000.880    -9977904.27649  -7496290.71249  23783000.0724   23783006.0584
  24622780.348    -9944139.22749  -6923120.82749  24622778.4654   24622788.7614
  20644589.626   -29191635.88349 -22461694.75149  20644588.7594   20644593.5354
  23342499.079   -11795952.63349  -9171581.18149  23342498.9444   23342503.4564
  20422989.153   -31040920.56049 -23961006.26049  20422988.6494   20422993.2884
 98  4 22  1 29 29.9990000  0  6 26 23 21 17 22  6
  21742855.418   -21632316.70349 -16408585.78749  21742855.5544   21742860.0314
  21028435.189   -24014249.21849 -18412240.96649  21028434.2084   21028439.5224
  23764884.853   -10073103.76649  -7570472.03949  23764882.9544   23764891.4274
  20639813.869   -29216732.74049 -22481250.73949  20639812.9454   20639817.8244
  23340548.827   -11806201.87349  -9179567.61249  23340548.3154   23340554.4664
  20429736.775   -31005461.41049 -23933375.76149  20429736.4984   20429740.8944
 98  4 22  1 29 59.9990000  0  6 26 23 21 17 22  6
  21739916.251   -21647762.14549 -16420621.18249  21739916.5394   21739920.3764
  21017976.819   -24069208.24149 -18455066.14849  21017975.9184   21017981.0214
  23746806.681   -10168104.81749  -7644498.72649  23746806.4284   23746810.1604
  20635070.812   -29241657.71849 -22500672.80149  20635069.9284   20635074.5104
  23338695.155   -11815943.14949  -9187158.22549  23338693.8884   23338699.6224
  20436580.181   -30969499.15049 -23905353.23449  20436579.7404   20436584.2854
 98  4 22  1 30 29.9990000  0  6 26 23 21 17 22  6
  21737103.740   -21662541.70949 -16432137.70749  21737103.4064   21737107.9294
  21007603.392   -24123720.77649 -18497543.41549  21007602.4994   21007607.5384
  23728778.339   -10262844.39849  -7718321.73549  23728778.0194   23728782.5294
  20630373.163   -29266344.27349 -22519909.07349  20630372.3304   20630376.8634
  23336951.010   -11825109.11349  -9194300.54749  23336949.6064   23336955.9874
  20443529.949   -30932977.96849 -23876895.21049  20443529.5894   20443534.2014
 98  4 22  1 30 59.9990000  0  6 26 23 21 17 22  6
  21734409.969   -21676697.35049 -16443168.06749  21734409.8614   21734414.3034
  20997307.721   -24177824.72749 -18539702.30749  20997306.6074   20997312.1664
  23710792.725   -10357359.05549  -7791969.41749  23710792.6004   23710798.6034
  20625714.385   -29290826.09149 -22538985.81549  20625713.2264   20625718.0564
  23335307.701   -11833743.66749  -9201028.78649  23335307.7334   23335312.5724
  20450581.333   -30895922.84849 -23848021.12049  20450580.9174   20450585.7464
 98  4 22  1 31 29.9990000  0  6 26 23 21 17 22  6
  21731826.922   -21690271.71849 -16453745.48149  21731826.3404   21731830.9034
  20987086.335   -24231538.50749 -18581557.16549  20987085.3334   20987090.2604
  23692842.375   -10451687.83449  -7865472.24349  23692840.5484   23692847.5724
  20621091.352   -29315120.15949 -22557916.24949  20621090.2764   20621095.0194
  23333759.329   -11841881.29549  -9207369.80249  23333758.6454   23333764.8334
  20457725.493   -30858380.26649 -23818767.18149  20457725.1524   20457729.6524
 98  4 22  1 31 59.9990000  0  6 26 23 21 17 22  6
  21729351.473   -21703279.80749 -16463881.63049  21729351.7634   21729356.2004
  20976939.611   -24284859.60949 -18623106.03549  20976938.6184   20976943.9884
  23674924.527   -10545846.54249  -7938842.60749  23674922.6424   23674928.7124
  20616505.275   -29339220.00149 -22576695.34549  20616504.3814   20616508.9094
  23332302.131   -11849541.28249  -9213338.63549  23332300.6944   23332306.3294
  20464960.852   -30820358.41549 -23789139.77349  20464960.3734   20464965.0324
 98  4 22  1 32 29.9990000  0  6 26 23 21 17 22  6
  21726994.486   -21715666.06049 -16473533.25049  21726994.1054   21726998.2414
  20966877.454   -24337736.45949 -18664308.73849  20966876.5934   20966881.7204
  23657048.553   -10639785.09449  -8012041.44049  23657047.3674   23657054.6854
  20611963.928   -29363084.96049 -22595291.41449  20611962.9754   20611967.5984
  23330944.953   -11856672.48049  -9218895.42549  23330943.3244   23330949.6654
  20472297.499   -30781804.17149 -23759097.52449  20472297.0144   20472301.7654
 98  4 22  1 32 59.9990000  0  6 26 23 21 17 22  6
  21724754.484   -21727437.18849 -16482705.55049  21724754.2364   21724758.4254
  20956903.557   -24390149.48249 -18705150.03449  20956902.6184   20956907.7144
  23639214.525   -10733502.48249  -8085067.86649  23639214.0934   23639221.5404
  20607464.545   -29386729.31949 -22613715.59549  20607463.6604   20607468.4804
  23329686.221   -11863287.34149  -9224049.88849  23329684.6154   23329691.0334
  20479732.775   -30742731.64649 -23728651.43349  20479732.4964   20479737.0114
 98  4 22  1 33 29.9990000  0  6 26 23 21 17 22  6
  21722621.053   -21738648.36049 -16491441.51949  21722621.1824   21722625.2444
  20947006.993   -24442156.14449 -18745674.68049  20947006.2294   20947011.1324
  23621412.487   -10827052.58149  -8157963.96049  23621411.7574   23621417.9494
  20602995.709   -29410213.39549 -22632014.87249  20602994.8334   20602999.4874
  23328516.840   -11869433.44449  -9228839.06349  23328514.7954   23328521.4044
  20487253.316   -30703210.97449 -23697856.13749  20487252.9104   20487257.5244
 98  4 22  1 33 59.9990000  0  6 26 23 21 17 22  6
  21720601.259   -21749263.18049 -16499712.80249  21720600.8214   21720604.8654
  20937191.775   -24493735.53849 -18785866.38949  20937190.9644   20937195.8834
  23603653.681   -10920375.82649  -8230683.30549  23603652.3524   23603658.8614
  20598563.842   -29433502.72749 -22650162.39849  20598562.8524   20598567.6014
  23327445.710   -11875060.33649  -9233223.68549  23327444.3864   23327451.0234
  20494867.371   -30663198.81649 -23666677.87549  20494866.9494   20494871.4624
 98  4 22  1 34 29.9990000  0  6 26 23 21 17 22  6
  21718691.526   -21759298.90249 -16507532.83249  21718691.1734   21718695.3334
  20927448.771   -24544935.41349 -18825762.37249  20927447.7094   20927452.8624
  23585934.797   -11013488.46549  -8303238.51949  23585934.7974   23585939.0724
  20594160.796   -29456640.96649 -22668192.19449  20594159.8004   20594164.6814
  23326468.900   -11880194.07049  -9237224.01049  23326467.6324   23326474.3054
  20502568.212   -30622730.76149 -23635144.38549  20502568.0474   20502572.4614
 98  4 22  1 34 59.9990000  0  6 26 23 21 17 22  6
  21716901.543   -21768705.32849 -16514862.50249  21716901.1724   21716905.3774
  20917784.826   -24595719.69049 -18865334.50949  20917783.9304   20917789.1084
  23568263.355   -11106352.19349  -8375599.79749  23568262.7514   23568269.8454
  20589797.266   -29479571.52749 -22686060.16349  20589796.4114   20589801.1854
  23325594.279   -11884790.89549  -9240805.97849  23325593.1084   23325599.2684
  20510363.308   -30581767.36449 -23603224.90249  20510363.1314   20510367.5674
 98  4 22  1 35 29.9990000  0  6 26 23 21 17 22  6
  21715233.112   -21777472.79449 -16521694.28449  21715232.7674   21715237.0444
  20908198.096   -24646098.02149 -18904590.31949  20908197.0764   20908202.1134
  23550638.775   -11198970.48049  -8447769.81049  23550638.2224   23550645.2654
  20585476.778   -29502275.90249 -22703751.88949  20585476.0124   20585480.7164
  23324823.306   -11888842.48249  -9243963.06949  23324822.2524   23324828.3064
  20518254.800   -30540297.47249 -23570910.72749  20518254.4184   20518259.0864
 98  4 22  1 35 59.9990000  0  6 26 23 21 17 22  6
  21713677.302   -21785648.49049 -16528064.94049  21713676.6944   21713681.3834
  20898678.803   -24696122.10049 -18943570.08549  20898677.8264   20898682.9694
  23533049.274   -11291403.08549  -8519795.12549  23533048.1404   23533055.6474
  20581188.823   -29524809.20049 -22721310.29549  20581187.6604   20581192.5034
  23324143.125   -11892415.47749  -9246747.25149  23324142.3824   23324147.0594
  20526233.869   -30498367.24649 -23538237.84149  20526233.4244   20526238.2314
 98  4 22  1 36 29.9990000  0  6 26 23 21 17 22  6
  21712245.926   -21793170.58549 -16533926.30849  21712245.5154   21712250.3914
  20889238.592   -24745730.65749 -18982226.08949  20889237.5124   20889242.6754
  23515499.472   -11383627.34949  -8591658.11649  23515499.1594   23515504.3684
  20576942.007   -29547126.41349 -22738700.33149  20576941.1304   20576945.8584
  23323562.948   -11895463.76649  -9249122.57149  23323561.8644   23323567.9474
  20534309.145   -30455931.74049 -23505171.24049  20534308.6044   20534313.5194
 98  4 22  1 36 59.9990000  0  6 26 23 21 17 22  6
  21710943.036   -21800017.07349 -16539261.22549  21710942.3474   21710947.0984
  20879889.779   -24794858.79149 -19020507.73149  20879888.9944   20879893.9974
  23497997.179   -11475602.76649  -8663327.20949  23497995.4164   23498002.1574
  20572746.041   -29569176.53849 -22755882.24349  20572745.1454   20572749.7644
  23323090.801   -11897945.19249  -9251056.17049  23323090.0814   23323095.3914
  20542490.625   -30412937.67749 -23471669.40649  20542490.2104   20542494.8854
 98  4 22  1 37 29.9990000  0  6 26 23 21 17 22  6
  21709744.550   -21806315.04949 -16544168.72449  21709744.0774   21709748.9054
  20870609.703   -24843625.83749 -19058508.00549  20870608.7084   20870613.9274
  23480522.444   -11567432.47449  -8734882.73849  23480520.1844   23480528.1034
  20568578.282   -29591078.23149 -22772948.49049  20568577.4004   20568581.9014
  23322704.555   -11899976.51549  -9252639.02549  23322704.2784   23322709.3614
  20550758.789   -30369488.14649 -23437812.66849  20550758.3664   20550763.1004
 98  4 22  1 37 59.9990000  0  6 26 23 21 17 22  6
  21708665.928   -21811982.95749 -16548585.26549  21708666.1134   21708670.4994
  20861413.058   -24891954.33149 -19096166.54549  20861412.0954   20861417.1254
  23463093.727   -11659020.26249  -8806249.76649  23463093.0694   23463099.1844
  20564453.439   -29612754.36449 -22789838.98149  20564452.4964   20564457.2654
  23322420.641   -11901468.46249  -9253801.59249  23322418.8454   23322425.7554
  20559128.209   -30325506.76249 -23403541.48649  20559127.9124   20559132.5604
 98  4 22  1 38 29.9990000  0  6 26 23 21 17 22  6
  21707698.394   -21817067.68949 -16552547.38649  21707698.3834   21707702.5784
  20852292.125   -24939885.04949 -19133515.13049  20852291.2394   20852296.2974
  23445706.121   -11750392.48749  -8877448.84649  23445705.3764   23445712.0824
  20560366.040   -29634233.64149 -22806576.08249  20560364.9164   20560369.7584
  23322232.345   -11902456.93049  -9254571.86849  23322231.9854   23322237.6544
  20567591.721   -30281030.88549 -23368884.98849  20567591.3834   20567596.1614
 98  4 22  1 38 59.9990000  0  6 26 23 21 17 22  6
  21706846.866   -21821542.12249 -16556033.94049  21706846.8834   21706850.9294
  20843250.011   -24987401.62149 -19170541.00549  20843249.0494   20843254.1064
  23428366.392   -11841513.08149  -8948451.84949  23428365.5604   23428373.1244
  20556320.316   -29655494.01349 -22823142.60449  20556319.3664   20556324.0084
  23322143.155   -11902926.94449  -9254938.12949  23322141.9574   23322148.1104
  20576152.748   -30236042.45349 -23333829.08549  20576152.4964   20576157.0474
 98  4 22  1 39 29.9990000  0  6 26 23 21 17 22  6
  21706103.415   -21825448.83749 -16559078.12449  21706102.9784   21706107.4574
  20834272.313   -25034579.75149 -19207303.15949  20834271.3744   20834276.2434
  23411061.711   -11932449.32149  -9019311.15949  23411061.3004   23411067.9184
  20552303.886   -29676600.53649 -22839589.24249  20552302.9274   20552307.4014
  23322142.800   -11902928.26749  -9254939.16349  23322141.8974   23322147.5314
  20584797.969   -30190611.70149 -23298428.51849  20584797.6414   20584802.1734
 98  4 22  1 39 59.9990000  0  6 26 23 21 17 22  6
  21705482.444   -21828711.76649 -16561620.65949  21705481.8384   21705486.9754
  20825375.731   -25081331.43349 -19243733.02149  20825374.7634   20825379.7054
  23393804.708   -12023135.77949  -9089975.88449  23393804.1964   23393809.4724
  20548329.236   -29697487.52749 -22855864.81549  20548328.3084   20548332.9884
  23322243.503   -11902398.99449  -9254526.77249  23322243.2874   23322249.1424
  20593537.069   -30144687.54449 -23262643.49549  20593536.5914   20593541.3324
 98  4 22  1 40 29.9990000  0  6 26 23 21 17 22  6
  21704982.662   -21831337.50549 -16563666.66249  21704982.1144   21704987.0734
  20816561.642   -25127649.44849 -19279824.94649  20816560.6254   20816565.6624
  23376592.875   -12113584.35849  -9160455.24949  23376590.7434   23376599.0634
  20544393.964   -29718167.46249 -22871979.03749  20544392.9034   20544397.8134
  23322441.787   -11901357.75549  -9253715.43949  23322440.9704   23322446.7264
  20602369.200   -30098274.70349 -23226477.70449  20602368.8074   20602373.6804
 98  4 22  1 40 59.9990000  0  6 26 23 21 17 22  6
  21704616.524   -21833261.84749 -16565166.13949  21704616.5474   21704621.0644
  20807843.840   -25173461.73849 -19315522.81749  20807842.9004   20807848.0814
  23359440.557   -12203719.95249  -9230690.67849  23359439.3474   23359446.1414
  20540510.237   -29738576.47949 -22887882.16249  20540509.3314   20540514.0954
  23322749.039   -11899742.95149  -9252457.17149  23322747.1484   23322752.2164
  20611306.865   -30051307.21649 -23189879.69849  20611306.4894   20611311.2054
 98  4 22  1 41 29.9990000  0  6 26 23 21 17 22  6
  21704348.198   -21834671.94549 -16566264.90549  21704347.9034   21704352.8274
  20799190.129   -25218937.07949 -19350958.12849  20799189.2714   20799194.1674
  23342315.084   -12293715.01049  -9300816.64549  23342314.6924   23342320.7304
  20536646.916   -29758878.22349 -22903701.69449  20536645.9064   20536650.9664
  23323130.277   -11897739.67049  -9250896.17449  23323129.0544   23323134.7244
  20620319.709   -30003944.48349 -23152973.71449  20620319.3304   20620324.0894
 98  4 22  1 41 59.9990000  0  6 26 23 21 17 22  6
  21704194.732   -21835478.42649 -16566893.32549  21704194.9784   21704198.7414
  20790619.430   -25263976.54049 -19386053.79149  20790618.5044   20790623.3094
  23325234.505   -12383473.92349  -9370758.60349  23325233.6874   23325239.8344
  20532820.597   -29778985.59349 -22919369.77349  20532819.6854   20532824.4014
  23323599.251   -11895275.22549  -9248975.85249  23323598.3494   23323604.7394
  20629424.930   -29956096.28449 -23115689.42249  20629424.3874   20629429.3814
 98  4 22  1 42 29.9990000  0  6 26 23 21 17 22  6
  21704154.226   -21835691.91449 -16567059.67249  21704153.7274   21704158.2144
  20782127.664   -25308601.00249 -19420826.07649  20782126.6134   20782131.7754
  23308197.224   -12473005.21349  -9440523.18949  23308196.2424   23308203.2994
  20529028.811   -29798911.56149 -22934896.49749  20529027.7904   20529032.6464
  23324155.978   -11892349.33349  -9246695.96049  23324154.9744   23324161.3344
  20638623.208   -29907758.94649 -23078023.97749  20638622.7694   20638627.5104
 98  4 22  1 42 59.9990000  0  6 26 23 21 17 22  6
  21704234.735   -21835268.55649 -16566729.78349  21704234.5214   21704238.8024
  20773719.940   -25352783.54349 -19455254.00849  20773719.0844   20773724.1204
  23291208.784   -12562280.08049  -9510087.95549  23291208.5324   23291214.3514
  20525279.175   -29818616.02649 -22950250.62649  20525278.1664   20525283.0774
  23324809.524   -11888915.73849  -9244020.45149  23324808.1614   23324813.0674
  20647922.489   -29858891.10349 -23039945.15649  20647921.9714   20647926.8624
 98  4 22  1 43 29.9990000  0  6 26 23 21 17 22  6
  21704425.005   -21834268.69949 -16565950.67149  21704424.9494   21704429.3364
  20765382.615   -25396596.49749 -19489393.95349  20765381.6754   20765386.5804
  23274252.525   -12651384.99249  -9579520.29849  23274252.2104   23274257.0774
  20521556.144   -29838180.48149 -22965495.65849  20521555.2234   20521560.0054
  23325549.171   -11885027.35349  -9240990.56049  23325548.3194   23325554.0144
  20657307.372   -29809573.39449 -23001515.79649  20657307.0044   20657311.7764
 98  4 22  1 43 59.9990000  0  6 26 23 21 17 22  6
  21704737.974   -21832624.11549 -16564669.16949  21704737.4534   21704742.2364
  20757125.878   -25439985.63249 -19523203.64849  20757124.8224   20757129.9314
  23257340.553   -12740257.97049  -9648771.93549  23257339.9894   23257346.3154
  20517869.024   -29857556.55249 -22980593.89049  20517868.1054   20517872.6184
  23326391.416   -11880603.93749  -9237543.74349  23326391.6354   23326397.8034
  20666786.662   -29759759.25849 -22962699.62649  20666786.2624   20666791.0764
 98  4 22  1 44 29.9990000  0  6 26 23 21 17 22  6
  21705162.865   -21830391.19749 -16562929.21949  21705162.5294   21705166.8504
  20748937.864   -25483013.78549 -19556732.06249  20748937.0404   20748941.9824
  23240461.257   -12828959.12549  -9717889.63549  23240459.7254   23240467.2124
  20514208.760   -29876791.48649 -22995582.14449  20514207.9094   20514212.5234
  23327325.154   -11875696.91349  -9233720.11749  23327323.3904   23327329.3034
  20676351.091   -29709497.89349 -22923534.96649  20676350.5704   20676355.4004
 98  4 22  1 44 59.9990000  0  6 26 23 21 17 22  6
  21705711.319   -21827508.94249 -16560683.30349  21705710.6694   21705715.6914
  20740828.972   -25525626.18649 -19589936.50849  20740828.1034   20740833.1184
  23223626.191   -12917427.33349  -9786825.81849  23223625.5394   23223630.8584
  20510591.037   -29895802.66849 -23010396.05149  20510590.0144   20510594.7324
  23328360.712   -11870253.15949  -9229478.22649  23328360.1024   23328365.8044
  20686011.195   -29658733.67049 -22883978.46849  20686010.9334   20686015.4794
 98  4 22  1 45 29.9990000  0  6 26 23 21 17 22  6
  21706388.189   -21823951.47849 -16557911.24049  21706387.6904   21706392.5304
  20732806.605   -25567783.85049 -19622786.61149  20732805.8074   20732810.6454
  23206844.239   -13005616.62349  -9855544.71449  23206843.5764   23206850.0534
  20507025.141   -29914541.54549 -23024997.77349  20507024.3424   20507028.8694
  23329502.937   -11864249.78549  -9224800.31549  23329502.4324   23329507.9934
  20695772.137   -29607439.76749 -22844009.20349  20695771.8154   20695776.5384
 98  4 22  1 45 59.9990000  0  6 26 23 21 17 22  6
  21707174.025   -21819821.87949 -16554693.36749  21707173.8664   21707178.4514
  20724851.706   -25609587.17349 -19655360.61049  20724850.8744   20724855.8054
  23190098.028   -13093618.65949  -9924117.66349  23190095.6714   23190103.5554
  20503496.289   -29933085.58849 -23039447.68049  20503495.1864   20503500.1934
  23330728.141   -11857813.00849  -9219784.63449  23330726.9044   23330733.1094
  20705617.346   -29555703.01749 -22803694.87449  20705617.0904   20705621.7294
 98  4 22  1 46 29.9990000  0  6 26 23 21 17 22  6
  21708075.631   -21815084.20949 -16551001.67249  21708075.4324   21708079.7314
  20716973.462   -25650987.35849 -19687620.47349  20716972.6884   20716977.4154
  23173395.693   -13181389.40849  -9992510.37749  23173395.5224   23173403.5284
  20500015.257   -29951378.40249 -23053701.81949  20500014.2954   20500018.9684
  23332039.381   -11850921.87549  -9214414.94349  23332039.6054   23332044.3834
  20715556.311   -29503473.47549 -22762996.57749  20715555.6894   20715560.5804
 98  4 22  1 46 59.9990000  0  6 26 23 21 17 22  6
  21709088.475   -21809761.61249 -16546854.18649  21709088.4314   21709092.9394
  20709169.861   -25691995.58949 -19719574.91649  20709168.8514   20709173.9564
  23156735.904   -13268937.39549 -10060729.52449  23156735.4264   23156742.1974
  20496577.176   -29969445.86349 -23067780.36049  20496576.2164   20496581.0474
  23333434.571   -11843592.14749  -9208703.47149  23333431.6314   23333438.7884
  20725582.065   -29450787.77549 -22721942.83549  20725581.5884   20725586.4324
 98  4 22  1 47 29.9990000  0  6 26 23 21 17 22  6
  21710228.890   -21803768.81349 -16542184.47749  21710229.2014   21710232.4414
  20701458.122   -25732520.98749 -19751153.13349  20701457.3194   20701462.2794
  23140134.057   -13356180.25449 -10128710.90849  23140132.2304   23140141.1214
  20493191.888   -29987235.68849 -23081642.56849  20493191.0194   20493195.6164
  23334925.839   -11835753.58149  -9202595.50549  23334925.5274   23334931.0284
  20735708.771   -29397571.67449 -22680475.78249  20735708.5484   20735713.2664
 98  4 22  1 47 59.9990000  0  6 26 23 21 17 22  6
  21711489.808   -21797142.57849 -16537021.17949  21711489.2894   21711493.9114
  20693829.021   -25772612.17149 -19782392.99549  20693828.1414   20693833.1274
  23123581.348   -13443164.91149 -10196491.09649  23123580.1794   23123586.9554
  20489847.977   -30004807.97949 -23095335.26749  20489847.1944   20489851.8764
  23336507.963   -11827439.62149  -9196117.12649  23336506.8134   23336512.6144
  20745928.923   -29343864.36649 -22638625.96849  20745928.6224   20745933.3654
 98  4 22  1 48 29.9990000  0  6 26 23 21 17 22  6
  21712865.191   -21789914.88249 -16531389.20549  21712865.3664   21712869.2214
  20686275.325   -25812307.10649 -19813324.08749  20686274.4204   20686279.3324
  23107071.780   -13529923.33349 -10264094.99949  23107071.4474   23107077.5384
  20486535.013   -30022217.60249 -23108901.20749  20486534.0384   20486538.7364
  23338178.973   -11818659.05349  -9189275.13449  23338178.4554   23338183.4014
  20756232.311   -29289719.81549 -22596435.45349  20756232.0404   20756236.8274
 98  4 22  1 48 59.9990000  0  6 26 23 21 17 22  6
  21714353.745   -21782092.78049 -16525294.05449  21714353.4164   21714357.8994
  20678792.915   -25851627.34749 -19843963.20549  20678792.1704   20678797.1314
  23090602.925   -13616467.95849 -10331532.31349  23090601.3594   23090608.4154
  20483247.927   -30039491.26049 -23122361.19649  20483246.9034   20483251.7754
  23339938.758   -11809411.58049  -9182069.32849  23339937.6974   23339943.8604
  20766614.665   -29235160.31349 -22553921.58849  20766614.3024   20766619.0944
 98  4 22  1 49 29.9990000  0  6 26 23 21 17 22  6
  21715977.374   -21773560.33049 -16518645.38449  21715977.1824   21715982.0874
  20671402.558   -25890464.02149 -19874225.52549  20671401.6564   20671406.4524
  23074196.082   -13702685.90049 -10398715.07649  23074196.2064   23074202.5124
  20480009.491   -30056509.50549 -23135622.17449  20480008.6354   20480013.2944
  23341808.638   -11799585.20549  -9174412.42249  23341806.0644   23341813.3184
  20777100.721   -29180055.89749 -22510983.11149  20777100.4134   20777105.1654
 98  4 22  1 49 59.9990000  0  6 26 23 21 17 22  6
  21717700.411   -21764505.44449 -16511589.62349  21717700.2394   21717704.6674
  20664068.940   -25929002.16349 -19904255.22349  20664067.9834   20664072.9964
  23057816.600   -13788760.36549 -10465786.03549  23057815.9664   23057822.9924
  20476788.667   -30073435.27049 -23148811.08149  20476787.7554   20476792.3534
  23343756.148   -11789349.60449  -9166436.66649  23343755.1054   23343762.0464
  20787655.512   -29124590.35249 -22467763.22449  20787655.1764   20787660.0114
 98  4 22  1 50 29.9990000  0  6 26 23 21 17 22  6
  21719537.400   -21754852.21449 -16504067.61749  21719537.4574   21719541.6844
  20656809.055   -25967153.04749 -19933983.15849  20656808.3294   20656813.0654
  23041480.948   -13874604.31149 -10532677.35249  23041478.7164   23041486.5074
  20473603.195   -30090175.05649 -23161855.06649  20473602.3104   20473607.0784
  23345795.742   -11778632.74449  -9158085.87849  23345794.1134   23345799.6504
  20798293.803   -29068685.65549 -22424201.15749  20798293.6114   20798298.5514
 98  4 22  1 50 59.9990000  0  6 26 23 21 17 22  6
  21721484.966   -21744617.78249 -16496092.73349  21721484.3694   21721488.5604
  20649621.522   -26004923.63049 -19963414.75349  20649620.5354   20649625.5024
  23025187.961   -13960224.02349 -10599393.95849  23025187.4244   23025193.2524
  20470455.431   -30106716.65749 -23174744.62249  20470454.5494   20470459.1624
  23347922.368   -11767456.74249  -9149377.33149  23347922.0404   23347927.3404
  20809016.412   -29012338.03649 -22380293.95349  20809015.8384   20809020.9924
 98  4 22  1 51 29.9990000  0  6 26 23 21 17 22  6
  21723542.585   -21733804.78649 -16487667.02749  21723542.2054   21723546.6104
  20642509.118   -26042299.44649 -19992538.74249  20642508.1994   20642513.0364
  23008937.900   -14045618.71849 -10665935.24849  23008937.7744   23008943.4134
  20467348.473   -30123043.71349 -23187467.00549  20467347.3804   20467352.1554
  23350134.957   -11755830.68949  -9140318.09949  23350133.5494   23350139.3984
  20819825.586   -28955535.63149 -22336032.37649  20819825.3954   20819830.2144
 98  4 22  1 51 59.9990000  0  6 26 23 21 17 22  6
  21725717.889   -21722373.19849 -16478759.28849  21725717.5594   21725721.8104
  20635480.595   -26079234.52849 -20021319.30249  20635479.5054   20635484.5654
  22992738.365   -14130747.59649 -10732269.37249  22992736.5104   22992743.4324
  20464292.466   -30139102.95749 -23199980.70349  20464291.5664   20464296.2534
  23352441.430   -11743708.79649  -9130872.48549  23352440.1824   23352446.6244
  20830729.739   -28898233.93149 -22291381.73149  20830729.2964   20830734.3354
 98  4 22  1 52 29.9990000  0  6 26 23 21 17 22  6
  21728033.306   -21710205.43449 -16469277.91349  21728032.7064   21728037.4444
  20628558.948   -26115607.75549 -20049662.05649  20628558.2564   20628562.9054
  22976613.419   -14215484.51749 -10798298.09349  22976612.9824   22976617.6644
  20461308.702   -30154782.68849 -23212198.67949  20461307.7014   20461312.5334
  23354864.501   -11730975.79949  -9120950.70849  23354863.4644   23354869.6684
  20841752.777   -28840307.75649 -22246244.50649  20841752.4854   20841757.3964
 98  4 22  1 52 59.9990000  0  6 26 23 21 17 22  6
  21730458.242   -21697462.34849 -16459348.22749  21730457.8774   21730462.3104
  20621714.013   -26151578.13949 -20077690.90549  20621713.0954   20621717.9814
  22960531.415   -14299996.08949 -10864151.24449  22960529.3864   22960535.9184
  20458365.920   -30170247.06049 -23224248.83249  20458364.9694   20458369.6784
  23357373.551   -11717792.01149  -9110677.62649  23357371.2584   23357379.2824
  20852864.294   -28781916.27949 -22200744.70549  20852864.0234   20852868.9974
 98  4 22  1 53 29.9990000  0  6 26 23 21 17 22  6
  21732998.498   -21684112.91549 -16448946.06749  21732997.6594   21733002.7924
  20614948.654   -26187130.18149 -20105393.77849  20614947.7694   20614952.4714
  22944494.629   -14384269.43849 -10929818.71449  22944492.7984   22944499.2064
  20455464.737   -30185492.87049 -23236128.67649  20455463.8174   20455468.4034
  23359969.769   -11704148.67649  -9100046.50049  23359970.1294   23359973.6674
  20864067.363   -28723043.93849 -22154870.19249  20864067.0874   20864072.1294
 98  4 22  1 53 59.9990000  0  6 26 23 21 17 22  6
  21735648.968   -21670184.48649 -16438092.72849  21735648.4544   21735652.9674
  20608253.194   -26222314.83449 -20132810.37449  20608252.3244   20608257.1574
  22928494.096   -14468352.31849 -10995337.80949  22928494.0444   22928499.3154
  20452594.643   -30200575.21649 -23247881.15049  20452593.7544   20452598.5374
  23362647.495   -11690077.79649  -9089082.20149  23362645.8074   23362652.4354
  20875351.629   -28663744.65249 -22108662.97949  20875351.4254   20875356.1204
 98  4 22  1 54 29.9990000  0  7 26 23 21 17  3 22  6
  21738413.592   -21655656.56249 -16426772.25949  21738413.7694   21738417.5254
  20601631.067   -26257114.35449 -20159926.86249  20601630.2984   20601635.0084
  22912530.680   -14552240.69849 -11060705.35449  22912529.2864   22912535.1704
  20449755.311   -30215496.13549 -23259507.83749  20449754.4504   20449759.2184
  24360504.176    -3024890.35149  -2340224.34849  24360503.4744   24360510.8934
  23365406.688   -11675578.90349  -9077784.38549  23365405.3964   23365410.5344
  20886717.211   -28604018.44649 -22062123.10949  20886717.0374   20886721.6994
 98  4 22  1 54 59.9990000  0  7 26 23 21 17  3 22  6
  21741299.651   -21640490.63549 -16414954.64749  21741299.6614   21741303.6214
  20595086.961   -26291503.68349 -20186723.72049  20595086.0394   20595091.1104
  22896609.002   -14635909.06549 -11125901.42549  22896608.2984   22896614.5754
  20446952.545   -30230224.62649 -23270984.58249  20446951.6904   20446956.3894
  24338967.648    -3138065.43049  -2428412.67849  24338966.1744   24338972.0834
  23368251.215   -11660629.39249  -9066135.44149  23368250.9664   23368256.1004
  20898169.938   -28543834.12149 -22015226.28249  20898169.4084   20898174.5574
 98  4 22  1 55 29.9990000  0  7 26 23 21 17  3 22  6
  21744311.057   -21624665.20749 -16402623.14749  21744310.4774   21744314.6214
  20588624.436   -26325464.65449 -20213186.80249  20588623.5624   20588628.3704
  22880736.606   -14719318.91549 -11190896.08649  22880736.0564   22880742.5844
  20444191.584   -30244733.44449 -23282290.15749  20444190.6914   20444195.5014
  24317452.456    -3251128.68349  -2516513.88049  24317451.5994   24317457.9324
  23371186.842   -11645203.28149  -9054115.13649  23371185.4254   23371191.3094
  20909714.628   -28483166.62649 -21967952.94649  20909714.4464   20909719.2984
 98  4 22  1 55 59.9990000  0  7 26 23 21 17  3 22  6
  21747439.972   -21608222.44049 -16389810.58949  21747440.1604   21747443.7484
  20582241.805   -26359005.46449 -20239322.47949  20582240.9814   20582245.8074
  22864912.711   -14802473.97949 -11255692.18549  22864911.1814   22864917.6954
  20441470.908   -30259030.65949 -23293430.83949  20441469.9254   20441475.0324
  24295958.042    -3364082.31749  -2604529.65849  24295956.9594   24295963.5154
  23374211.569   -11629308.24549  -9041729.40849  23374211.7704   23374216.8204
  20921346.334   -28422041.77349 -21920323.22149  20921345.9744   20921351.0114
 98  4 22  1 56 29.9990000  0  7 26 23 21 17  3 22  6
  21750686.196   -21591163.73649 -16376518.08049  21750685.9234   21750689.8614
  20575940.999   -26392116.16949 -20265123.01049  20575940.2134   20575944.9924
  22849144.946   -14885333.92849 -11320258.34949  22849144.7064   22849150.2674
  20438796.246   -30273086.10649 -23304383.12949  20438795.3264   20438800.0504
  24274492.484    -3476883.98349  -2692427.02349  24274491.6394   24274496.1534
  23377327.961   -11612931.17249  -9028968.09749  23377326.4344   23377331.5694
  20933068.858   -28360439.65749 -21872321.59749  20933068.3984   20933073.6404
 98  4 22  1 56 59.9990000  0  7 26 23 21 17  3 22  6
  21754036.864   -21573555.81549 -16362797.61249  21754036.7644   21754040.5884
  20569705.911   -26424881.71049 -20290654.59049  20569705.0404   20569710.0284
  22833426.142   -14967936.85949 -11384624.22549  22833425.4484   22833431.8234
  20436158.164   -30286949.34149 -23315185.65149  20436157.1834   20436162.0184
  24253043.717    -3589597.28949  -2780255.54249  24253043.4374   24253048.5174
  23380526.778   -11596121.43149  -9015869.60149  23380525.0394   23380532.3194
  20944871.881   -28298414.48849 -21823990.33249  20944871.6174   20944876.3864
 98  4 22  1 57 29.9990000  0  7 26 23 21 17  3 22  6
  21757496.793   -21555373.41749 -16348629.49049  21757496.3694   21757500.7164
  20563540.535   -26457280.99249 -20315900.76449  20563539.6284   20563544.3424
  22817760.092   -15050262.02549 -11448773.66949  22817758.6244   22817764.6204
  20433562.046   -30300592.02949 -23325816.31749  20433561.0704   20433565.7704
  24231616.474    -3702197.64449  -2867996.04749  24231614.1534   24231620.9604
  23383813.580   -11578849.46849  -9002410.96349  23383813.2534   23383817.6514
  20956757.693   -28235954.28849 -21775320.06949  20956757.5494   20956762.3874
 98  4 22  1 57 59.9990000  0  7 26 23 21 17  3 22  6
  21761065.451   -21536619.71149 -16334016.20549  21761065.3684   21761069.4434
  20557442.308   -26489327.29749 -20340871.88549  20557441.3994   20557446.3034
  22802141.253   -15132339.79649 -11512730.35149  22802140.3074   22802146.6304
  20431003.897   -30314035.00149 -23336291.35249  20431003.0314   20431007.7304
  24210209.528    -3814691.34849  -2955653.45049  24210208.9414   24210213.1994
  23387184.745   -11561133.07949  -8988606.04249  23387183.4904   23387189.7004
  20968722.051   -28173081.10949 -21726328.02149  20968721.4864   20968726.9024
 98  4 22  1 58 29.9990000  0  7 26 23 21 17  3 22  6
  21764751.783   -21517247.85449 -16318921.23449  21764751.5864   21764755.8184
  20551413.151   -26521010.61649 -20365560.17249  20551412.3934   20551417.1294
  22786569.800   -15214167.86449 -11576492.43549  22786568.7574   22786575.2304
  20428487.393   -30327259.41849 -23346596.08949  20428486.4834   20428491.0874
  24188823.916    -3927073.35949  -3043223.80549  24188823.7564   24188829.7204
  23390641.324   -11542969.41649  -8974452.54149  23390640.6064   23390645.4414
  20980769.862   -28109769.47949 -21676994.31749  20980769.3664   20980774.4764
 98  4 22  1 58 59.9990000  0  7 26 23 21 17  3 22  6
  21768565.839   -21497204.73349 -16303303.21549  21768565.5164   21768570.0944
  20545466.245   -26552261.76649 -20389911.70449  20545465.5004   20545470.2414
  22771052.638   -15295711.12649 -11640032.60649  22771051.4094   22771057.6894
  20426020.357   -30340223.85849 -23356698.24549  20426019.5814   20426024.1154
  24167466.328    -4039308.17249  -3130679.45649  24167464.7424   24167471.2414
  23394190.279   -11524319.59649  -8959920.22849  23394189.6994   23394195.7304
  20992910.394   -28045970.57749 -21627280.93149  20992910.1214   20992915.0984
 98  4 22  1 59 29.9990000  0  7 26 23 21 17  3 22  6
  21772498.427   -21476538.84849 -16287199.92149  21772498.0134   21772502.8144
  20539599.246   -26583092.94649 -20413935.97949  20539598.4724   20539603.2284
  22755579.625   -15377022.14449 -11703391.81849  22755578.7014   22755585.1034
  20423593.636   -30352976.37049 -23366635.26449  20423592.7914   20423597.6124
  24146129.343    -4151435.16649  -3218051.07649  24146128.3334   24146133.7714
  23397822.787   -11505230.73949  -8945045.85049  23397820.5464   23397829.1794
  21005132.509   -27981742.99749 -21577233.51249  21005132.2704   21005137.5114
 98  4 22  1 59 59.9990000  0  7 26 23 21 17  3 22  6
  21776550.916   -21455243.13049 -16270605.84449  21776550.4584   21776554.8414
  20533814.000   -26613494.61949 -20437625.57649  20533813.1074   20533818.0094
  22740154.460   -15458081.54349 -11766554.93649  22740153.9894   22740160.2434
  20421210.041   -30365502.30849 -23376395.73149  20421209.1114   20421213.7444
  24124814.162    -4263446.28149  -3305332.41349  24124814.8284   24124819.7124
  23401540.483   -11485693.68549  -8929822.17349  23401540.8504   23401546.1534
  21017439.290   -27917070.68849 -21526839.54649  21017438.9904   21017444.0924
 98  4 22  2  0 29.9990000  0  7 26 23 21 17  3 22  6
  21780724.481   -21433310.76649 -16253515.68249  21780724.4984   21780728.4764
  20528112.928   -26643453.96649 -20460970.51049  20528111.9544   20528116.8924
  22724782.084   -15538863.96649 -11829502.24249  22724781.3214   22724787.5684
  20418873.929   -30377778.56249 -23385961.64449  20418873.0384   20418877.8384
  24103526.833    -4375311.34149  -3392499.95149  24103525.5464   24103530.2794
  23405347.195   -11465688.75849  -8914233.96549  23405346.5964   23405350.7074
  21029833.913   -27851936.44349 -21476085.60649  21029833.6394   21029838.5434
 98  4 22  2  0 59.9990000  0  7 26 23 21 17  3 22  6
  21785007.217   -21410804.67949 -16235978.47349  21785006.6444   21785011.5714
  20522487.093   -26673017.84649 -20484007.29049  20522486.1094   20522491.0204
  22709455.181   -15619407.11749 -11892263.09949  22709454.0724   22709460.1434
  20416576.136   -30389853.59849 -23395370.76749  20416575.1894   20416579.7274
  24082262.635    -4487055.56149  -3479573.31949  24082261.6874   24082267.4294
  23409237.662   -11445244.85049  -8898303.65949  23409237.2424   23409244.1634
  21042306.073   -27786395.23849 -21425014.56749  21042305.8454   21042310.8934
 98  4 22  2  1 29.9990000  0  7 26 23 21 17  3 22  6
  21789390.911   -21387767.34849 -16218027.29349  21789390.9294   21789394.5094
  20516923.977   -26702251.98349 -20506787.11949  20516923.1304   20516927.8624
  22694164.233   -15699761.43249 -11954876.80949  22694163.7274   22694169.9614
  20414310.408   -30401760.18649 -23404648.62349  20414309.6284   20414314.2344
  24061014.801    -4598714.19449  -3566580.01349  24061012.3984   24061019.0244
  23413203.555   -11424404.99549  -8882064.85349  23413203.5264   23413208.0864
  21054847.866   -27720487.69849 -21373658.07349  21054847.6024   21054852.8534
 98  4 22  2  1 59.9990000  0  7 26 23 21 17  3 22  6
  21793890.875   -21364119.94649 -16199600.73949  21793890.4244   21793895.1864
  20511435.457   -26731094.14549 -20529261.51449  20511434.7394   20511439.3814
  22678921.784   -15779860.99849 -12017292.01849  22678920.7504   22678927.7924
  20412089.524   -30413430.88849 -23413742.67549  20412088.5554   20412093.3014
  24039799.288    -4710202.08749  -3653453.65249  24039799.0534   24039805.0964
  23417255.963   -11403110.47749  -8865471.73749  23417253.4534   23417260.2254
  21067476.161   -27654125.76049 -21321947.49749  21067475.8804   21067481.1224
 98  4 22  2  2 29.9990000  0  7 26 23 21 17  3 22  6
  21798512.706   -21339831.80649 -16180674.91449  21798512.1144   21798516.7554
  20506031.589   -26759491.68149 -20551389.44649  20506030.7104   20506035.4724
  22663737.355   -15859655.19449 -12079469.27149  22663736.3224   22663742.8854
  20409920.814   -30424827.44649 -23422623.10949  20409919.7974   20409924.5284
  24018629.012    -4821453.15849  -3740142.75749  24018627.8004   24018634.1124
  23421402.722   -11381318.99249  -8848491.38449  23421400.6624   23421407.0754
  21080201.241   -27587255.31649 -21269840.69849  21080201.1104   21080206.2554
 98  4 22  2  2 59.9990000  0  7 26 23 21 17  3 22  6
  21803237.992   -21315000.45749 -16161325.81149  21803237.7434   21803242.0344
  20500695.765   -26787531.63549 -20573238.74449  20500694.7644   20500699.6344
  22648595.479   -15939226.28649 -12141472.68849  22648595.3644   22648600.6714
  20407787.034   -30436040.48549 -23431360.54049  20407785.9344   20407790.7164
  23997484.139    -4932570.04649  -3826727.30849  23997483.4984   23997488.9654
  23425625.364   -11359129.47049  -8831200.86449  23425625.1274   23425630.7144
  21093005.945   -27519966.11549 -21217407.59149  21093005.4864   21093010.7074
 98  4 22  2  3 29.9990000  0  7 26 23 21 17  3 22  6
  21808064.685   -21289636.15849 -16141561.42049  21808064.9114   21808068.6644
  20495427.902   -26815214.30349 -20594809.63749  20495427.0514   20495431.7064
  22633496.174   -16018573.34449 -12203301.50549  22633495.5974   22633502.0254
  20405686.135   -30447080.69649 -23439963.29949  20405685.3184   20405689.8714
  23976361.926    -5043567.59849  -3913218.85349  23976361.2904   23976367.1624
  23429919.309   -11336564.15649  -8813617.55349  23429917.6164   23429923.2904
  21105890.666   -27452256.44549 -21164646.84249  21105890.3264   21105895.5364
 98  4 22  2  3 59.9990000  0  7 26 23 21 17  3 22  6
  21812995.209   -21263726.33249 -16121371.92949  21812995.2084   21812999.1124
  20490231.847   -26842519.60349 -20616086.46649  20490230.8984   20490235.8584
  22618444.840   -16097668.57249 -12264934.11449  22618445.1164   22618450.0224
  20403620.371   -30457936.50249 -23448422.36549  20403619.3884   20403624.1594
  23955266.141    -5154426.40049  -3999602.30349  23955265.7654   23955270.2274
  23434287.101   -11313611.71149  -8795732.52449  23434285.8324   23434292.1524
  21118856.870   -27384118.69649 -21111552.49949  21118856.6804   21118861.6264
 98  4 22  2  4 29.9990000  0  7 26 23 21 17  3 22  6
  21818039.891   -21237216.20249 -16100714.68649  21818039.8754   21818044.0514
  20485116.629   -26869400.28549 -20637032.43549  20485115.6604   20485120.5094
  22603453.545   -16176448.55549 -12326321.07449  22603452.2864   22603458.6974
  20401604.075   -30468532.17949 -23456678.74349  20401603.0144   20401607.7154
  23934205.296    -5265101.84449  -4085842.88549  23934204.6854   23934209.7264
  23438741.222   -11290205.26949  -8777493.77549  23438739.9984   23438746.0604
  21131913.754   -27315504.59249 -21058086.98849  21131913.3614   21131918.6564
 98  4 22  2  4 59.9990000  0  7 26 23 21 17  3 22  6
  21823195.387   -21210123.66849 -16079603.61449  21823195.1364   21823198.5714
  20480074.973   -26895894.13749 -20657676.96749  20480073.9604   20480078.8544
  22588511.584   -16254968.61449 -12387505.49149  22588511.3794   22588516.2414
  20399630.405   -30478903.86549 -23464760.57649  20399629.5404   20399634.0534
  23913167.997    -5375653.16349  -4171986.72549  23913166.9594   23913172.5214
  23443273.122   -11266389.40749  -8758935.96749  23443272.5004   23443278.5524
  21145050.516   -27246470.67749 -21004294.35149  21145050.3264   21145055.2834
 98  4 22  2  5 29.9980000  0  7 26 23 21 17  3 22  6
  21828466.726   -21182423.00149 -16058018.67249  21828466.5074   21828471.1184
  20475108.774   -26921991.61849 -20678012.65549  20475107.8684   20475112.6924
  22573618.793   -16333230.91049 -12448489.06849  22573618.0194   22573623.4014
  20397703.680   -30489028.93549 -23472650.24649  20397702.8944   20397707.5864
  23892158.516    -5486058.44649  -4258016.78349  23892158.1334   23892163.5884
  23447884.734   -11242154.82549  -8740051.93149  23447883.9084   23447889.7544
  21158268.908   -27177007.57349 -20950167.26449  21158268.6554   21158273.5994
 98  4 22  2  5 59.9980000  0  7 26 23 21 17  3 22  6
  21833863.436   -21154063.01949 -16035919.97149  21833863.3114   21833868.1104
  20470222.262   -26947670.25549 -20698021.96149  20470221.4914   20470226.2524
  22558778.050   -16411219.38849 -12509259.25449  22558776.3444   22558783.4594
  20395830.889   -30498870.39249 -23480318.90049  20395829.8214   20395834.7354
  23871181.148    -5596294.76349  -4343915.18149  23871180.3364   23871186.9664
  23452583.256   -11217464.50749  -8720812.71249  23452582.1354   23452587.7914
  21171575.016   -27107083.71249 -20895681.13649  21171574.7944   21171579.8934
 98  4 22  2  6 29.9980000  0  7 26 23 21 17  3 22  6
  21839372.329   -21125114.01349 -16013362.30949  21839372.2374   21839376.6114
  20465403.596   -26972992.49049 -20717753.56349  20465402.6874   20465407.6234
  22543976.265   -16489003.19649 -12569869.97049  22543974.4214   22543981.6794
  20393997.049   -30508507.26449 -23487828.15549  20393996.0504   20394000.9424
  23850221.622    -5706437.05649  -4429740.30649  23850220.3764   23850226.8444
  23457355.487   -11192386.00849  -8701271.07149  23457354.8914   23457360.8004
  21184956.083   -27036765.76949 -20840887.95649  21184955.7904   21184960.7514
 98  4 22  2  6 59.9980000  0  7 26 23 21 17  3 22  6
  21844990.758   -21095588.76449 -15990355.61649  21844990.5884   21844995.1034
  20460652.217   -26997961.03449 -20737209.55749  20460651.3064   20460656.0344
  22529211.787   -16566590.71949 -12630327.74149  22529210.7824   22529217.0074
  20392198.361   -30517959.31749 -23495193.39349  20392197.6254   20392202.3054
  23829280.834    -5816480.87349  -4515488.68949  23829279.9634   23829285.5934
  23462198.355   -11166937.32949  -8681440.95249  23462197.6194   23462202.4464
  21198409.952   -26966065.35249 -20785796.75349  21198409.3374   21198414.5984
 98  4 22  2  7 29.9980000  0  7 26 23 21 17  3 22  6
  21850721.516   -21065473.51849 -15966889.18049  21850721.6604   21850725.4714
  20455972.515   -27022552.97349 -20756372.08549  20455971.8754   20455976.5304
  22514492.435   -16643941.25549 -12690600.84449  22514491.2724   22514497.7994
  20390439.697   -30527201.30849 -23502394.94449  20390438.7734   20390443.4324
  23808367.398    -5926381.21249  -4601125.27649  23808366.0814   23808372.3784
  23467116.937   -11141090.47549  -8661300.56049  23467115.3544   23467121.4594
  21211941.381   -26894957.20549 -20730387.84349  21211941.0094   21211946.4134
 98  4 22  2  7 59.9980000  0  7 26 23 21 17  3 22  6
  21856566.538   -21034757.78749 -15942954.83049  21856566.0244   21856571.0414
  20451370.915   -27046734.57149 -20775214.86749  20451370.0914   20451374.8354
  22499825.354   -16721016.95249 -12750659.78949  22499824.7354   22499830.7244
  20388722.616   -30536224.50149 -23509426.00649  20388721.5624   20388726.3994
  23787487.665    -6036104.11649  -4686623.58349  23787487.5154   23787493.2124
  23472117.067   -11114814.26549  -8640825.62249  23472116.1324   23472122.6344
  21225553.356   -26823426.09149 -20674649.37249  21225552.9654   21225558.3664
 98  4 22  2  8 29.9980000  0  7 26 23 21 17  3 22  6
  21862529.292   -21003423.18349 -15918538.24049  21862529.1964   21862533.3364
  20446856.470   -27070458.10249 -20793700.71449  20446855.6964   20446860.2954
  22485218.462   -16797776.42449 -12810472.33249  22485217.9484   22485223.6734
  20387053.956   -30544993.25749 -23516258.80249  20387053.0374   20387058.0424
  23766651.600    -6145598.72549  -4771944.01549  23766650.9804   23766656.7284
  23477206.050   -11088071.85949  -8619987.41049  23477204.8994   23477210.8554
  21239251.111   -26751443.91149 -20618559.41049  21239250.6334   21239255.8144
 98  4 22  2  8 59.9980000  0  7 26 23 21 17  3 22  6
  21868593.969   -20971552.56749 -15893703.99849  21868593.7884   21868598.0074
  20442414.676   -27093800.05849 -20811889.23849  20442413.9114   20442418.4024
  22470657.015   -16874296.91349 -12870098.65749  22470655.8594   22470662.5664
  20385421.552   -30553571.64149 -23522943.25349  20385420.6374   20385425.4244
  23745846.775    -6254928.94249  -4857136.34049  23745846.1034   23745851.6614
  23482367.333   -11060948.69849  -8598852.49749  23482364.6574   23482372.0984
  21253018.197   -26679097.35649 -20562185.51649  21253017.8824   21253022.9674
 98  4 22  2  9 29.9980000  0  7 26 23 21 17  3 22  6
  21874767.539   -20939110.14149 -15868424.16949  21874767.3844   21874771.2084
  20438052.154   -27116725.08749 -20829752.87849  20438051.2724   20438055.9564
  22456147.569   -16950544.62249 -12929512.41149  22456146.7134   22456152.5554
  20383831.555   -30561927.21649 -23529454.08749  20383830.7184   20383835.4484
  23725079.307    -6364062.06449  -4942175.08749  23725078.5204   23725084.1784
  23487607.047   -11033413.62649  -8577396.61249  23487606.3784   23487611.1874
  21266861.456   -26606350.64249 -20505499.79149  21266861.1584   21266866.5714
 98  4 22  2  9 59.9980000  0  7 26 23 21 17  3 22  6
  21881042.719   -20906133.69449 -15842728.23549  21881042.5494   21881046.2104
  20433761.229   -27139273.69649 -20847323.20349  20433760.3424   20433765.1044
  22441681.833   -17026562.44149 -12988747.04549  22441681.8174   22441687.2474
  20382277.150   -30570095.65249 -23535819.09149  20382276.2644   20382281.0094
  23704341.045    -6473041.14749  -5027093.81049  23704341.0064   23704345.4794
  23492916.873   -11005511.30249  -8555654.56649  23492915.7034   23492921.1814
  21280775.869   -26533230.08449 -20448522.76549  21280775.3064   21280780.6204
 98  4 22  2 10 29.9980000  0  7 26 23 21 17  3 22  6
  21887435.471   -20872539.54749 -15816550.98249  21887435.2344   21887439.0024
  20429553.590   -27161384.95349 -20864552.72949  20429552.7254   20429557.3654
  22427273.824   -17102276.72549 -13047745.15049  22427273.4924   22427279.3914
  20380774.131   -30577993.81849 -23541973.50349  20380773.2244   20380778.0114
  23683646.479    -6581791.98449  -5111834.68149  23683645.7334   23683651.2844
  23498307.363   -10977182.80749  -8533580.47249  23498306.8414   23498311.9164
  21294776.616   -26459655.85249 -20391192.21749  21294776.2734   21294781.2824
 98  4 22  2 10 59.9980000  0  7 26 23 21 17  3 22  6
  21893950.969   -20838300.07849 -15789870.87549  21893950.2944   21893954.8674
  20425429.649   -27183056.45949 -20881439.59349  20425428.7204   20425433.3164
  22412926.738   -17177671.47349 -13106494.27649  22412925.8744   22412931.6824
  20379326.318   -30585602.21849 -23547902.12649  20379325.3474   20379330.2104
  23662999.374    -6690292.98149  -5196380.84649  23662998.9374   23663004.7824
  23503782.157   -10948413.65249  -8511162.94549  23503780.4814   23503786.4404
  21308867.190   -26385609.18349 -20333493.52349  21308866.6394   21308872.4344
 98  4 22  2 11 29.9980000  0  7 26 23 21 17  3 22  6
  21900566.564   -20803535.00749 -15762781.21149  21900566.5034   21900570.6434
  20421362.996   -27204426.78049 -20898091.76449  20421362.0354   20421366.6164
  22398616.681   -17252870.82049 -13165091.14549  22398615.9414   22398621.5154
  20377909.099   -30593049.78349 -23553705.42549  20377908.2884   20377912.9004
  23642376.925    -6798664.81649  -5280826.39149  23642376.3934   23642383.2284
  23509318.643   -10919318.78449  -8488491.64149  23509316.6294   23509324.2864
  21323023.995   -26311214.58949 -20275523.75349  21323023.9484   21323029.1454
 98  4 22  2 11 59.9980000  0  7 26 23 21 17  3 22  6
  21907281.034   -20768250.08549 -15735286.45849  21907280.8954   21907284.6134
  20417351.110   -27225509.22549 -20914519.61749  20417350.1534   20417354.8084
  22384342.806   -17327880.56549 -13223540.26249  22384342.0424   22384348.3974
  20376525.259   -30600321.97749 -23559372.07149  20376524.3564   20376529.3384
  23621778.707    -6906908.17149  -5365171.80449  23621777.8934   23621784.2074
  23514916.979   -10889898.80849  -8465567.04649  23514915.4634   23514921.9624
  21337247.855   -26236468.06749 -20217279.74249  21337247.6914   21337252.6544
 98  4 22  2 12 29.9980000  0  7 26 23 21 17  3 22  6
  21914104.599   -20732392.23849 -15707345.27349  21914105.1614   21914108.9914
  20413404.500   -27246248.62249 -20930680.16749  20413403.5654   20413408.3284
  22370116.067   -17402642.82349 -13281796.51849  22370115.2414   22370121.5434
  20375187.390   -30607352.59149 -23564850.46849  20375186.3224   20375191.1814
  23601215.554    -7014968.24249  -5449374.43549  23601214.8894   23601221.2654
  23520589.250   -10860090.34549  -8442339.69449  23520588.2864   23520594.3634
  21351547.892   -26161321.20949 -20158723.79049  21351547.7614   21351552.8874
 98  4 22  2 12 59.9980000  0  7 26 23 21 17  3 22  6
  21921040.033   -20695946.27349 -15678945.81849  21921040.1104   21921043.5424
  20409528.543   -27266616.81949 -20946551.48349  20409527.6084   20409532.3774
  22355941.106   -17477132.56249 -13339840.44649  22355940.5144   22355946.3734
  20373902.577   -30614104.08049 -23570111.36549  20373901.7114   20373906.5914
  23580692.007    -7122820.33249  -5533414.98049  23580692.4464   23580697.1514
  23526343.847   -10829850.78249  -8418776.41749  23526343.2514   23526349.4424
  21365930.910   -26085738.23349 -20099827.98849  21365930.6344   21365935.5494
 98  4 22  2 13 29.9980000  0  7 26 23 21 17  3 22  6
  21928074.765   -20658978.14449 -15650139.46749  21928074.5304   21928079.3484
  20405715.608   -27286653.68249 -20962164.61949  20405714.8184   20405719.5854
  22341809.412   -17551395.11649 -13397707.34649  22341808.4484   22341813.8344
  20372661.425   -30620626.33749 -23575193.63649  20372660.4214   20372665.2954
  23560195.999    -7230527.81649  -5617342.85249  23560195.1264   23560201.2394
  23532169.799   -10799234.16649  -8394919.38249  23532168.1294   23532174.9564
  21380387.658   -26009767.47949 -20040630.02749  21380387.2564   21380392.7314
 98  4 22  2 13 59.9980000  0  7 26 23 21 17  3 22  6
  21935208.853   -20621488.08749 -15620926.42449  21935208.4814   21935213.3944
  20401969.088   -27306341.85349 -20977506.03449  20401968.3414   20401973.0564
  22327721.639   -17625426.83549 -13455394.36649  22327720.6314   22327726.6604
  20371464.380   -30626916.93449 -23580095.38849  20371463.4994   20371468.3164
  23539726.916    -7338093.86249  -5701160.49949  23539726.7364   23539730.9984
  23538067.898   -10768239.58849  -8370767.78349  23538067.0554   23538072.8984
  21394917.331   -25933413.63949 -19981133.55249  21394916.7574   21394922.3234
 98  4 22  2 14 29.9980000  0  7 26 23 21 17  3 22  6
  21942442.185   -20583476.41349 -15591306.92749  21942442.0534   21942446.8404
  20398290.565   -27325672.76549 -20992569.06349  20398289.7384   20398294.3794
  22313678.072   -17699226.29449 -13512900.41349  22313676.9134   22313682.7244
  20370308.204   -30632992.69249 -23584829.74349  20370307.2604   20370311.9674
  23519286.007    -7445511.91549  -5784862.84349  23519285.5374   23519291.7144
  23544038.416   -10736864.38849  -8346319.60549  23544036.1634   23544043.3284
  21409515.597   -25856699.25049 -19921356.12849  21409515.3014   21409519.9984
 98  4 22  2 14 59.9980000  0  7 26 23 21 17  3 22  6
  21949777.792   -20544927.26449 -15561268.62549  21949777.7654   21949782.1454
  20394681.986   -27344635.90749 -21007345.51949  20394681.1064   20394685.8424
  22299680.369   -17772784.60949 -13570218.54949  22299679.5734   22299685.5174
  20369193.055   -30638852.69649 -23589395.98449  20369191.9124   20369196.7004
  23498879.444    -7552748.85549  -5868424.06949  23498879.1744   23498884.5544
  23550083.378   -10705097.64849  -8321566.34549  23550082.9174   23550088.6734
  21424183.003   -25779621.84549 -19861295.83749  21424182.7674   21424187.6734
 98  4 22  2 15 29.9980000  0  7 26 23 21 17  3 22  6
  21957229.981   -20505765.56449 -15530753.00649  21957229.7064   21957235.1804
  20391156.890   -27363160.32349 -21021780.11149  20391156.2064   20391160.6884
  22285742.898   -17846026.46649 -13627290.09549  22285742.0724   22285747.8584
  20368128.734   -30644445.70849 -23593754.17749  20368127.7994   20368132.6224
  23478520.956    -7659733.38249  -5951788.59349  23478520.4194   23478525.7734
  23556212.288   -10672890.93049  -8296470.24349  23556211.5144   23556218.0674
  21438927.713   -25702137.82849 -19800918.69449  21438927.3394   21438932.7384
 98  4 22  2 15 59.9980000  0  7 26 23 21 17  3 22  6
  21964790.456   -20466035.35849 -15499794.39249  21964790.2924   21964795.3364
  20387701.969   -27381315.96849 -21035927.35049  20387701.1884   20387705.8244
  22271855.877   -17919002.87849 -13684154.80549  22271855.3554   22271860.8634
  20367105.355   -30649823.61749 -23597944.75149  20367104.6374   20367109.3604
  23458202.618    -7766507.28649  -6034989.01049  23458200.9054   23458207.3564
  23562413.011   -10640305.36449  -8271078.93949  23562411.7324   23562417.9864
  21453739.411   -25624301.83049 -19740267.28449  21453738.8864   21453744.6914
 98  4 22  2 16 29.9980000  0  7 26 23 21 17  3 22  6
  21972455.104   -20425757.74049 -15468409.23049  21972455.1164   21972459.7984
  20384310.807   -27399136.68849 -21049813.61449  20384309.9664   20384314.5254
  22258015.952   -17991732.39149 -13740827.12449  22258014.8074   22258020.6704
  20366118.664   -30655008.80149 -23601985.15249  20366117.7204   20366122.5794
  23437922.565    -7873079.43749  -6118032.21149  23437922.3144   23437927.5064
  23568679.626   -10607375.21549  -8245419.08749  23568679.2234   23568685.2594
  21468616.583   -25546121.83249 -19679347.82849  21468615.9364   21468622.0234
 98  4 22  2 16 59.9980000  0  7 26 23 21 17  3 22  6
  21980226.134   -20384921.16449 -15436588.50849  21980225.9464   21980231.0124
  20380986.031   -27416608.33049 -21063427.86949  20380985.1184   20380989.8434
  22244229.193   -18064182.21449 -13797281.50549  22244228.4614   22244233.4244
  20365173.874   -30659973.67149 -23605853.88049  20365172.8944   20365177.7984
  23417684.654    -7979430.84249  -6200903.39549  23417684.1354   23417689.0504
  23575012.801   -10574094.02249  -8219485.75949  23575011.7694   23575019.5594
  21483564.054   -25467572.20549 -19618140.35549  21483563.4394   21483569.5764
 98  4 22  2 17 29.9980000  0  7 26 23 21 17  3 22  6
  21988108.801   -20343497.62649 -15404310.42949  21988108.3894   21988112.6564
  20377734.104   -27433697.35949 -21076743.98249  20377733.2394   20377737.9294
  22230503.172   -18136312.37749 -13853486.80249  22230502.3734   22230508.2884
  20364278.197   -30664680.54349 -23609521.57449  20364277.1744   20364281.9004
  23397492.619    -8085540.35449  -6283586.10049  23397491.1644   23397496.6004
  23581416.470   -10540442.18849  -8193263.58849  23581416.6554   23581420.7564
  21498589.397   -25388613.92749 -19556614.46749  21498588.7974   21498594.3034
 98  4 22  2 17 59.9980000  0  7 26 23 21 17  3 22  6
  21996094.605   -20301532.31949 -15371610.17849  21996094.5614   21996098.7474
  20374547.514   -27450442.96349 -21089792.48449  20374546.6554   20374551.1684
  22216827.044   -18208180.85349 -13909488.17349  22216825.9014   22216831.4884
  20363424.916   -30669164.50349 -23613015.55949  20363423.9954   20363428.9934
  23377339.899    -8191443.14649  -6366107.72049  23377339.7144   23377344.5334
  23587885.035   -10506450.58249  -8166776.62049  23587883.6884   23587890.7784
  21513684.425   -25309289.35649 -19494803.14849  21513683.7074   21513689.2844
 98  4 22  2 18 29.9980000  0  7 26 23 21 17  3 22  6
  22004185.418   -20259015.34949 -15338480.06249  22004185.6894   22004189.4304
  20371431.840   -27466815.74949 -21102550.48649  20371430.9424   20371435.4174
  22203201.273   -18279784.42449 -13965283.14449  22203200.7244   22203206.5384
  20362617.797   -30673405.98849 -23616320.61149  20362616.8044   20362621.5054
  23357231.350    -8297114.31149  -6448448.83149  23357230.5064   23357236.2224
  23594423.590   -10472090.01449  -8140002.22549  23594421.9524   23594429.0704
  21528850.729   -25229590.12649 -19432699.89549  21528850.2974   21528855.9344
 98  4 22  2 18 59.9980000  0  7 26 23 21 17  3 22  6
  22012376.937   -20215968.98949 -15304937.43749  22012376.4994   22012380.7134
  20368383.602   -27482834.28349 -21115032.43549  20368382.8924   20368387.3114
  22189620.188   -18351153.20249 -14020895.14749  22189619.6764   22189624.9184
  20361854.273   -30677417.99949 -23619446.85449  20361853.2324   20361858.2194
  23337162.237    -8402578.11449  -6530628.37949  23337160.8404   23337166.6594
  23601028.688   -10437379.51449  -8112955.12049  23601028.7184   23601032.1764
  21544082.447   -25149547.01649 -19370328.67249  21544081.9124   21544087.3654
 98  4 22  2 19 29.9980000  0  7 26 23 21 17  3 22  6
  22020677.345   -20172350.19649 -15270948.76249  22020677.5724   22020680.8824
  20365410.206   -27498459.58449 -21127207.98449  20365409.3704   20365413.9424
  22176086.984   -18422270.31549 -14076311.05649  22176085.8454   22176091.6774
  20361140.077   -30681171.16549 -23622371.40449  20361139.1574   20361144.0034
  23317139.370    -8507799.27149  -6612618.86549  23317138.5414   23317143.6694
  23607708.626   -10402277.42349  -8085602.84849  23607707.2244   23607714.7644
  21559387.623   -25069117.59749 -19307656.42649  21559387.0374   21559392.1984
 98  4 22  2 19 59.9980000  0  7 26 23 21 17  3 22  6
  22029082.844   -20128179.23149 -15236529.82849  22029083.4234   22029086.1714
  20362508.133   -27513709.93849 -21139091.36949  20362507.3794   20362511.8634
  22162598.512   -18493152.57149 -14131543.95449  22162597.7034   22162603.6394
  20360471.346   -30684685.34349 -23625109.72349  20360470.3504   20360475.1854
  23297160.938    -8612786.05549  -6694426.70349  23297159.8024   23297165.3484
  23614458.455   -10366805.80849  -8057962.69649  23614458.6104   23614464.3024
  21574764.069   -24988314.02349 -19244692.63549  21574763.5424   21574768.8574
 98  4 22  2 20 29.9980000  0  7 26 23 21 17  3 22  6
  22037587.702   -20083486.37649 -15201704.21649  22037587.4264   22037591.4894
  20359670.907   -27528619.81549 -21150709.44249  20359670.2044   20359674.7184
  22149153.028   -18563808.57349 -14186600.55649  22149152.1614   22149158.4024
  20359844.075   -30687981.61349 -23627678.23849  20359843.0944   20359848.2164
  23277220.843    -8717571.15049  -6776077.37849  23277220.9954   23277224.7214
  23621271.462   -10331004.05949  -8030065.24949  23621271.0944   23621277.2414
  21590210.094   -24907144.75649 -19181443.88749  21590209.5694   21590214.8474
 98  4 22  2 20 59.9980000  0  7 26 23 21 17  3 22  6
  22046197.005   -20038244.12849 -15166450.51749  22046197.5254   22046201.1114
  20356903.325   -27543163.69049 -21162042.31849  20356902.5504   20356906.9444
  22135757.767   -18634201.16949 -14241451.90149  22135757.0144   22135762.8554
  20359261.813   -30691041.31849 -23630062.41849  20359260.8674   20359265.8004
  23257321.808    -8822140.89849  -6857560.24949  23257321.3414   23257326.4494
  23628148.951   -10294862.17449  -8001902.77649  23628147.0744   23628154.1884
  21605728.612   -24825594.39149 -19117898.17949  21605728.1164   21605733.8824
 98  4 22  2 21 29.9980000  0  7 26 23 21 17  3 22  6
  22054907.639   -19992469.28649 -15130781.78949  22054907.3654   22054911.3854
  20354202.666   -27557355.61749 -21173100.94549  20354201.7194   20354206.3554
  22122411.959   -18704333.53349 -14296100.46949  22122411.7234   22122416.9224
  20358720.806   -30693884.28649 -23632277.71749  20358720.0114   20358724.7304
  23237460.795    -8926510.82049  -6938887.42549  23237459.0724   23237465.5334
  23635087.516   -10258400.14349  -7973490.83449  23635087.7494   23635092.6414
  21621314.975   -24743688.02749 -19054075.06149  21621313.9364   21621319.5184
 98  4 22  2 21 59.9980000  0  7 26 23 21 17  3 22  6
  22063724.945   -19946133.98649 -15094676.35949  22063724.5014   22063728.4714
  20351573.326   -27571172.72349 -21183867.50949  20351572.4804   20351577.0164
  22109123.212   -18774166.76349 -14350515.95149  22109122.7034   22109127.6744
  20358229.790   -30696464.73849 -23634288.46249  20358228.7714   20358233.6734
  23217644.743    -9030644.73449  -7020030.70749  23217644.3494   23217649.3344
  23642093.485   -10221583.99549  -7944802.95949  23642090.8114   23642097.5244
  21636973.522   -24661401.74549 -18989955.92049  21636973.0854   21636978.5294
 98  4 22  2 22 29.9980000  0  7 26 23 21 17  3 22  6
  22072643.474   -19899266.47749 -15058156.21649  22072643.3274   22072647.1464
  20349010.839   -27584638.48249 -21194360.29149  20349009.9744   20349014.4974
  22095886.458   -18843726.01649 -14404717.93349  22095885.8474   22095891.0124
  20357785.961   -30698796.86349 -23636105.69849  20357784.9894   20357789.8604
  23197867.414    -9134574.69549  -7101015.04949  23197866.9514   23197872.4814
  23649164.856   -10184422.76649  -7915846.19249  23649165.0744   23649170.1844
  21652697.086   -24578773.96649 -18925570.66549  21652696.7204   21652702.3734
 98  4 22  2 22 59.9980000  0  7 26 23 21 17  3 22  6
  22081660.565   -19851881.04549 -15021232.49349  22081660.1554   22081664.3654
  20346515.213   -27597753.12449 -21204579.47749  20346514.3814   20346518.9754
  22082702.318   -18913009.00849 -14458704.65549  22082701.1544   22082707.3854
  20357388.603   -30700885.17649 -23637732.94549  20357387.7344   20357392.5054
  23178130.829    -9238290.52049  -7181832.52649  23178131.2844   23178135.8194
  23656303.823   -10146908.48849  -7886614.28449  23656302.8024   23656308.4734
  21668482.430   -24495821.85649 -18860932.68849  21668481.4824   21668487.6444
 98  4 22  2 23 29.9980000  0  7 26 23 21 17  3 22  6
  22090769.128   -19804014.95949 -14983934.24249  22090769.2294   22090772.7344
  20344079.110   -27610554.92749 -21214554.90049  20344078.2084   20344082.8474
  22069564.540   -18982048.13149 -14512501.34549  22069564.0694   22069569.5034
  20357032.725   -30702755.21649 -23639190.11349  20357031.9104   20357036.5864
  23158432.782    -9341804.36249  -7262492.61649  23158433.0604   23158437.4144
  23663503.964   -10109070.42249  -7857130.16649  23663502.9484   23663509.2604
  21684328.614   -24412549.24749 -18796044.97549  21684328.2724   21684333.2084
 98  4 22  2 23 59.9980000  0  7 26 23 21 17  3 22  6
  22099968.943   -19755669.49049 -14946262.44549  22099968.6004   22099973.2404
  20341704.488   -27623033.61149 -21224278.53949  20341703.7324   20341708.1174
  22056473.721   -19050841.14649 -14566106.28149  22056473.0014   22056478.0684
  20356720.688   -30704394.89449 -23640467.77149  20356719.8264   20356724.5424
  23138775.626    -9445103.74349  -7342985.61849  23138774.9794   23138780.2664
  23670767.606   -10070901.38649  -7827388.03949  23670767.0394   23670772.6424
  21700238.711   -24328940.90749 -18730895.65349  21700238.2284   21700243.4374
 98  4 22  2 24 29.9980000  0  7 26 23 21 17  3 22  6
  22109274.880   -19706766.83249 -14908156.48249  22109274.7884   22109278.7954
  20339409.711   -27635092.55249 -21233675.10449  20339409.0004   20339413.2734
  22043446.428   -19119299.83949 -14619450.68649  22043446.0004   22043451.1374
  20356465.501   -30705735.86449 -23641512.67849  20356464.7334   20356469.4934
  23119178.617    -9548086.90349  -7423232.20749  23119177.6664   23119184.0244
  23678106.754   -10032334.46649  -7797335.94049  23678105.1194   23678112.4284
  21716228.347   -24244914.68249 -18665420.69249  21716228.3184   21716233.5954
 98  4 22  2 24 59.9980000  0  7 26 23 21 17  3 22  6
  22118680.283   -19657341.13349 -14869642.94649  22118680.2664   22118684.4024
  20337186.821   -27646773.97549 -21242777.49249  20337185.9794   20337190.4874
  22030472.003   -19187480.99949 -14672578.83049  22030471.0724   22030476.7414
  20356258.318   -30706824.46649 -23642360.92449  20356257.3964   20356262.2074
  23099639.168    -9650767.19249  -7503242.79749  23099639.3824   23099644.0704
  23685508.887    -9993435.25549  -7767024.91249  23685507.7744   23685513.2694
  21732290.106   -24160509.75949 -18599650.64449  21732289.0094   21732295.1904
 98  4 22  2 25 29.9980000  0  7 26 23 21 17  3 22  6
  22128189.232   -19607370.85349 -14830705.06749  22128188.3944   22128192.8464
  20335035.967   -27658076.72949 -21251584.82149  20335035.0884   20335039.5484
  22017546.570   -19255404.58349 -14725506.27549  22017545.8504   22017551.3864
  20356099.696   -30707658.08049 -23643010.49049  20356098.7164   20356103.7004
  23080158.542    -9753138.61949  -7583012.69249  23080158.1494   23080163.9344
  23692971.130    -9954221.98249  -7736469.12949  23692969.3394   23692975.4384
  21748424.392   -24075723.62849 -18533583.56949  21748424.1694   21748429.2584
 98  4 22  2 25 59.9980000  0  7 26 23 21 17  3 22  6
  22137788.695   -19556924.12049 -14791395.91549  22137787.4494   22137793.0104
  20332943.710   -27669071.34449 -21260152.04349  20332942.8974   20332947.4244
  22004656.988   -19323139.85649 -14778286.98049  22004656.0944   22004662.1814
  20355973.879   -30708319.37649 -23643525.77649  20355973.2534   20355977.7724
  23060721.492    -9855280.81949  -7662603.99549  23060721.6754   23060725.8514
  23700478.501    -9914769.28549  -7705726.82049  23700477.2214   23700483.7784
  21764611.893   -23990657.62049 -18467298.39149  21764611.5234   21764616.4824
 98  4 22  2 26 29.9980000  0  7 26 23 21 17  3 22  6
  22147490.709   -19505938.91749 -14751667.18649  22147490.4114   22147494.1734
  20330918.701   -27679712.71649 -21268444.00349  20330917.8284   20330922.3324
  21991814.515   -19390627.12449 -14830874.43549  21991813.4944   21991819.4644
  20355891.046   -30708754.63249 -23643864.93049  20355890.1804   20355894.8494
  23041338.844    -9957137.31149  -7741972.64949  23041338.2934   23041343.9724
  23708043.996    -9875012.61949  -7674747.63649  23708043.5934   23708049.6154
  21780864.252   -23905251.24249 -18400747.98749  21780864.2014   21780869.3494
 98  4 22  2 26 59.9980000  0  7 26 23 21 17  3 22  6
  22157292.783   -19454428.91549 -14711529.51949  22157292.9654   22157296.6254
  20328954.248   -27690035.99249 -21276488.10049  20328953.3784   20328957.8644
  21979017.381   -19457876.43149 -14883276.46649  21979016.4644   21979022.3214
  20355850.865   -30708965.95149 -23644029.59549  20355849.8584   20355854.7064
  23022000.851   -10058759.03449  -7821158.36049  23022000.0614   23022005.8374
  23715667.392    -9834951.87549  -7643531.50449  23715666.2664   23715672.6874
  21797178.342   -23819520.45749 -18333944.80749  21797178.2474   21797183.2464
 98  4 22  2 27 29.9980000  0  7 26 23 21 17  3 22  6
  22167202.956   -19402350.69049 -14670949.08849  22167202.8454   22167206.8614
  20327058.371   -27699998.92049 -21284251.40249  20327057.6414   20327062.0644
  21966279.000   -19524817.00849 -14935437.91449  21966277.9824   21966284.1214
  20355862.064   -30708906.84549 -23643983.52849  20355861.2214   20355865.9764
  23002713.500   -10160114.74949  -7900136.80549  23002712.2844   23002717.8714
  23723361.566    -9794518.42249  -7612024.96049  23723360.1104   23723366.7034
  21813561.792   -23733424.97749 -18266857.46449  21813561.3064   21813567.0454
 98  4 22  2 27 59.9980000  0  7 26 23 21 17  3 22  6
  22177202.676   -19349802.03349 -14630002.07049  22177202.8424   22177205.8184
  20325214.899   -27709686.40249 -21291800.07249  20325213.8874   20325218.4574
  21953586.455   -19591516.25249 -14987411.30349  21953585.6094   21953591.3454
  20355911.513   -30708646.96449 -23643781.01049  20355910.3864   20355915.2974
  22983460.785   -10261288.10749  -7978973.15449  22983460.8114   22983466.5354
  23731114.260    -9753778.00149  -7580279.20449  23731113.2224   23731119.8044
  21829998.143   -23647051.40749 -18199553.41149  21829997.9074   21830003.6044
 98  4 22  2 28 29.9980000  0  7 26 23 21 17  3 22  6
  22187301.615   -19296731.74749 -14588648.61549  22187301.4714   22187305.8704
  20323436.433   -27719032.23349 -21299082.52849  20323435.4884   20323440.1094
  21940949.111   -19657925.84549 -15039158.98649  21940948.4874   21940954.0164
  20356014.695   -30708104.83049 -23643358.55949  20356013.6654   20356018.4934
  22964255.953   -10362210.10949  -8057613.62849  22964255.5674   22964260.3284
  23738936.995    -9712669.18249  -7548246.41749  23738936.3664   23738942.5874
  21846499.653   -23560335.69749 -18131982.76049  21846499.2634   21846504.9594
 98  4 22  2 28 59.9980000  0  7 26 23 21 17  3 22  6
  22197500.636   -19243136.30249 -14546885.91949  22197501.0104   22197504.8944
  20321725.319   -27728024.15749 -21306089.20449  20321724.5434   20321728.9994
  21928367.619   -19724041.84749 -15090677.90249  21928367.0074   21928372.4604
  20356172.687   -30707274.26049 -23642711.35449  20356171.8064   20356176.6124
  22945104.102   -10462853.51449  -8136037.02249  22945103.3264   22945108.4214
  23746826.002    -9671211.83649  -7515942.03749  23746824.5654   23746830.6104
  21863063.906   -23473290.21449 -18064155.15149  21863063.3364   21863069.1914
 98  4 22  2 29 29.9980000  0  7 26 23 21 17  3 22  6
  22207794.788   -19189041.18549 -14504733.87049  22207794.6244   22207799.0644
  20320078.562   -27736677.89749 -21312832.35849  20320077.7234   20320082.1334
  21915834.898   -19789901.63749 -15141997.16649  21915833.9744   21915839.4174
  20356381.297   -30706177.91549 -23641857.05049  20356380.4014   20356385.1594
  22926007.930   -10563204.61849  -8214232.64749  22926007.4154   22926012.5144
  23754773.388    -9629448.83049  -7483399.44149  23754772.4834   23754778.9884
  21879686.515   -23385937.98649 -17996088.52549  21879686.5284   21879691.7194
 98  4 22  2 29 59.9980000  0  7 26 23 21 17  3 22  6
  22218180.051   -19134466.63149 -14462208.25749  22218179.1354   22218183.9294
  20318493.013   -27745009.63549 -21319324.60449  20318492.1514   20318496.6214
  21903345.854   -19855531.86449 -15193137.55249  21903344.6504   21903350.5454
  20356637.206   -30704833.04949 -23640809.09249  20356636.3044   20356640.8854
  22906964.707   -10663277.12449  -8292211.16749  22906963.6694   22906969.8334
  23762772.658    -9587412.33149  -7450643.81849  23762771.8154   23762778.7764
  21896366.054   -23298286.40549 -17927788.63849  21896365.3024   21896371.4254
 98  4 22  2 30 29.9980000  0  7 26 23 21 17  3 22  6
  22228667.512   -19079354.54549 -14419263.78149  22228667.9134   22228671.3974
  20316978.714   -27752967.39349 -21325525.44649  20316977.9894   20316982.3914
  21890911.262   -19920876.04049 -15244055.04549  21890910.5784   21890915.7644
  20356948.312   -30703198.07949 -23639535.07749  20356947.4894   20356952.1344
  22887984.065   -10763020.67549  -8369933.37349  22887983.5694   22887989.2004
  23770830.461    -9545068.82849  -7417648.88349  23770829.9974   23770835.1824
  21913112.471   -23210283.53449 -17859215.02649  21913112.2784   21913117.6704
 98  4 22  2 30 59.9980000  0  7 26 23 21 17  3 22  6
  22239256.985   -19023706.04149 -14375901.31549  22239256.7034   22239260.3894
  20315530.325   -27760578.60249 -21331456.23949  20315529.5424   20315534.0374
  21878531.231   -19985933.31649 -15294748.95549  21878530.3794   21878536.3564
  20357311.478   -30701289.63849 -23638047.97249  20357310.7474   20357315.2454
  22869063.228   -10862450.51549  -8447411.11749  22869062.1084   22869067.5514
  23778944.366    -9502430.82449  -7384424.50749  23778942.8604   23778949.3654
  21929924.875   -23121933.97749 -17790371.21649  21929925.2094   21929930.1444
 98  4 22  2 31 29.9980000  0  7 26 23 21 17  3 22  6
  22249944.664   -18967541.18049 -14332136.49549  22249944.8744   22249947.3004
  20314143.795   -27767864.76049 -21337133.75349  20314143.1214   20314147.3554
  21866202.083   -20050723.31949 -15345234.60049  21866201.6544   21866206.4484
  20357723.500   -30699124.42949 -23636360.79049  20357722.6924   20357727.5054
  22850194.974   -10961603.42649  -8524673.09849  22850194.3704   22850199.6894
  23787114.242    -9459496.90049  -7350969.58549  23787112.7744   23787119.4494
  21946800.463   -23033252.12449 -17721268.48449  21946800.4064   21946805.5094
 98  4 22  2 31 59.9980000  0  7 26 23 21 17  3 22  6
  22260737.432   -18910825.21649 -14287942.22649  22260737.2224   22260740.4024
  20312829.545   -27774771.18749 -21342515.37249  20312828.7714   20312833.1434
  21853932.682   -20115199.11149 -15395475.40849  21853931.8084   21853937.6104
  20358190.789   -30696668.95749 -23634447.43349  20358190.1284   20358194.5614
  22831386.137   -11060444.58249  -8601692.13849  22831386.3204   22831390.5154
  23795349.577    -9416220.48149  -7317247.72449  23795349.8424   23795355.2044
  21963745.008   -22944208.32649 -17651883.73649  21963744.4064   21963750.2994
 98  4 22  2 32 29.9980000  0  7 26 23 21 17  3 22  6
  22271621.681   -18853629.09449 -14243373.80949  22271620.7084   22271625.9294
  20311576.865   -27781353.98949 -21347644.81949  20311576.0294   20311580.5794
  21841711.948   -20179419.54149 -15445517.25149  21841710.8284   21841716.7484
  20358702.724   -30693978.59149 -23632351.04649  20358702.0244   20358706.5424
  22812626.472   -11159027.60549  -8678510.02649  22812625.2784   22812630.7404
  23803638.343    -9372663.62249  -7283307.33149  23803635.3264   23803642.9014
  21980744.340   -22854875.84549 -17582274.05449  21980743.4784   21980749.9114
 98  4 22  2 32 59.9980000  0  8 26 23 21  1 17  3 22  6
  22282595.375   -18795961.73449 -14198438.20449  22282594.8514   22282600.0714
  20310386.914   -27787607.18649 -21352517.42449  20310386.1224   20310390.5544
  21829537.332   -20243397.48149 -15495370.12549  21829536.3164   21829541.8184
  24229896.188    -5112228.72949  -3682979.32649  24229895.3824   24229903.6924
  20359258.956   -30691055.54649 -23630073.34149  20359258.1994   20359262.8984
  22793917.997   -11257341.13949  -8755117.91549  22793917.1204   22793922.1964
  23811981.456    -9328819.17649  -7249142.89549  23811980.3494   23811987.8764
  21997798.178   -22765257.09249 -17512441.30649  21997798.0114   21997803.0744
 98  4 22  2 33 29.9980000  0  8 26 23 21  1 17  3 22  6
  22293659.148   -18737819.98649 -14153132.96149  22293657.7624   22293664.0644
  20309267.086   -27793491.80649 -21357102.83249  20309266.3084   20309270.6684
  21817413.115   -20307110.54849 -15545016.61049  21817412.2604   21817417.5984
  24207421.195    -5230334.68549  -3775009.73849  24207419.8824   24207427.6144
  20359864.144   -30687875.20749 -23627595.15049  20359863.3304   20359868.1874
  22775268.367   -11355345.09149  -8831484.60349  22775266.9414   22775272.9124
  23820381.190    -9284680.06449  -7214748.81449  23820380.3244   23820386.8404
  22014910.463   -22675331.69749 -17442369.59549  22014909.9554   22014915.3824
 98  4 22  2 33 59.9980000  0  8 26 23 21  1 17  3 22  6
  22304797.388   -18679286.67049 -14107522.60749  22304796.1014   22304802.4464
  20308203.686   -27799079.84149 -21361457.13949  20308202.7644   20308207.4054
  21805324.305   -20370637.37649 -15594517.98949  21805323.3094   21805328.5464
  24184932.161    -5348514.88449  -3867097.99949  24184930.7114   24184938.1284
  20360504.426   -30684510.48349 -23624973.28049  20360503.5674   20360508.1384
  22756664.546   -11453108.25549  -8907663.66349  22756664.1894   22756669.6854
  23828819.257    -9240336.18949  -7180195.20249  23828819.7514   23828824.8524
  22032067.905   -22585168.86949 -17372112.87049  22032068.0374   22032073.5694
 98  4 22  2 34 29.9980000  0  8 26 23 21  1 17  3 22  6
  22316024.950   -18620284.77649 -14061547.12249  22316024.1084   22316030.1244
  20307206.036   -27804322.47149 -21365542.29849  20307205.2644   20307209.9114
  21793283.426   -20433912.45149 -15643823.19649  21793282.5644   21793288.0994
  24162440.950    -5466706.54249  -3959195.20149  24162439.2314   24162445.9724
  20361196.376   -30680874.27949 -23622139.86549  20361195.5484   20361200.3694
  22738120.156   -11550559.20949  -8983599.43749  22738120.0174   22738124.7194
  23837310.080    -9195717.64949  -7145427.51349  23837309.8444   23837316.0874
  22049285.211   -22494691.87249 -17301611.35549  22049284.3684   22049290.5174
 98  4 22  2 34 59.9980000  0  8 26 23 21  1 17  3 22  6
  22327349.383   -18560774.20849 -14015175.25849  22327349.0384   22327354.8044
  20306280.068   -27809188.59349 -21369334.06749  20306279.1754   20306283.5114
  21781295.312   -20496910.05149 -15692912.19349  21781294.4644   21781300.2684
  24139954.014    -5584875.41949  -4051274.67349  24139952.1894   24139960.2704
  20361947.646   -30676926.46449 -23619063.64049  20361946.9174   20361951.3354
  22719641.691   -11647663.82549  -9059265.33049  22719641.0204   22719645.4154
  23845858.138    -9150797.64649  -7110424.97149  23845856.3874   23845864.8984
  22066570.041   -22403859.44249 -17230832.89649  22066569.4424   22066575.8504
 98  4 22  2 35 29.9980000  0  8 26 23 21  1 17  3 22  6
  22338785.137   -18500679.53249 -13968348.23649  22338785.2814   22338790.4284
  20305437.502   -27813616.32349 -21372784.22049  20305436.6694   20305441.2384
  21769376.695   -20559542.70749 -15741716.83249  21769375.5854   21769381.2414
  24117484.454    -5702953.24149  -4143283.20949  24117482.6844   24117490.1084
  20362773.440   -30672586.87449 -23615682.13349  20362772.5764   20362777.2434
  22701243.002   -11744349.98749  -9134605.17249  22701242.4274   22701247.1474
  23854477.396    -9105502.65949  -7075130.23049  23854476.1404   23854482.0054
  22083935.408   -22312603.84049 -17159724.64649  22083934.8904   22083940.5674
 98  4 22  2 35 59.9980000  0  8 26 23 21  1 17  3 22  6
  22350295.011   -18440195.56349 -13921217.86249  22350295.3624   22350300.2434
  20304637.310   -27817821.32049 -21376060.82649  20304636.3434   20304640.8504
  21757488.185   -20622017.16149 -15790398.18049  21757487.7054   21757492.4894
  24094994.041    -5821140.18049  -4235376.75849  24094992.1944   24095000.4724
  20363633.862   -30668065.13549 -23612158.70749  20363633.4304   20363637.8564
  22682882.719   -11840834.01349  -9209787.50749  22682881.9084   22682886.3774
  23863130.877    -9060029.06049  -7039696.27849  23863130.3994   23863137.0784
  22101339.868   -22221142.96449 -17088456.47649  22101339.5814   22101344.9124
 98  4 22  2 36 29.9980000  0  8 26 23 21  1 17  3 22  6
  22361886.007   -18379285.73249 -13873755.65649  22361886.4484   22361890.1634
  20303885.924   -27821769.70449 -21379137.48149  20303884.9134   20303889.5844
  21745639.256   -20684283.58049 -15838917.41949  21745638.2584   21745643.8534
  24072490.673    -5939395.10449  -4327523.28149  24072488.5134   24072495.0344
  20364535.158   -30663328.90349 -23608468.13749  20364534.2464   20364538.9774
  22664569.131   -11937072.60249  -9284778.57049  22664569.0854   22664573.1004
  23871826.029    -9014335.84649  -7004091.25749  23871823.3914   23871832.1874
  22118787.817   -22129453.49749 -17017010.16349  22118787.4124   22118793.3324
 98  4 22  2 36 59.9980000  0  8 26 23 21  1 17  3 22  6
  22373566.426   -18317905.26949 -13825926.71749  22373565.7334   22373569.2684
  20303194.845   -27825401.24549 -21381967.25149  20303193.8014   20303198.3444
  21733844.042   -20746267.40949 -15887216.45749  21733842.8044   21733848.7244
  24049987.301    -6057650.02849  -4419669.81949  24049986.3014   24049992.8274
  20365484.328   -30658341.18349 -23604581.60049  20365483.5094   20365488.1284
  22646314.794   -12032999.74949  -9359526.96549  22646313.4334   22646319.5034
  23880574.109    -8968363.89349  -6968268.99549  23880573.7934   23880580.4604
  22136287.937   -22037489.68849 -16945350.09149  22136287.7074   22136293.2944
 98  4 22  2 37 29.9980000  0  8 26 23 21  1 17  3 22  6
  22385334.368   -18256063.48149 -13777738.30949  22385333.1564   22385336.9254
  20302561.309   -27828730.31349 -21384561.32349  20302560.5204   20302564.9024
  21722103.502   -20807964.06749 -15935291.73549  21722102.8714   21722108.3164
  24027487.284    -6175887.38349  -4511802.64149  24027485.0784   24027492.6634
  20366476.761   -30653125.91449 -23600517.75249  20366475.8824   20366480.4234
  22628120.451   -12128611.67749  -9434029.74749  22628120.4384   22628125.1204
  23889376.800    -8922106.64049  -6932224.41249  23889375.3404   23889382.7534
  22153836.198   -21945272.92449 -16873492.91049  22153835.6394   22153841.3774
 98  4 22  2 37 59.9980000  0  8 26 23 21  1 17  3 22  6
  22397193.832   -18193740.85449 -13729175.21649  22397193.6954   22397197.0574
  20301991.978   -27831722.37449 -21386892.77849  20301991.0944   20301995.6214
  21710420.965   -20869356.12649 -15983129.65949  21710420.1394   21710425.2434
  24004998.363    -6294067.31149  -4603890.70749  24004998.0664   24005005.8694
  20367517.210   -30647658.23349 -23596257.22249  20367516.4624   20367521.0324
  22609992.811   -12223873.18249  -9508259.46749  22609992.3784   22609997.3134
  23898237.681    -8875541.41049  -6895939.87249  23898236.6354   23898243.9864
  22171440.207   -21852763.49349 -16801407.66349  22171439.8124   22171445.2624
 98  4 22  2 38 29.9980000  0  8 26 23 21  1 17  3 22  6
  22409141.986   -18130952.09949 -13680248.92149  22409142.1944   22409145.0294
  20301483.358   -27834395.01049 -21388975.34949  20301482.5864   20301487.1054
  21698792.909   -20930461.93649 -16030744.53749  21698792.0594   21698797.1754
  23982518.899    -6412197.14549  -4695939.73249  23982516.9594   23982525.0044
  20368603.832   -30641948.01549 -23591807.70049  20368602.9404   20368607.6884
  22591929.782   -12318795.04049  -9582224.53949  22591929.2534   22591934.2254
  23907152.621    -8828693.86849  -6859435.35549  23907151.1144   23907158.4434
  22189098.620   -21759967.83949 -16729099.40749  22189098.9964   22189103.5624
 98  4 22  2 38 59.9980000  0  8 26 23 21  1 17  3 22  6
  22421176.899   -18067708.78049 -13630968.40249  22421176.7024   22421180.5944
  20301031.360   -27836770.29049 -21390826.20749  20301030.4994   20301034.9424
  21687213.344   -20991312.66849 -16078160.64949  21687212.3654   21687217.9944
  23960048.547    -6530279.19649  -4787951.56649  23960046.8854   23960055.6024
  20369735.315   -30636001.76249 -23587174.25449  20369734.5364   20369739.2104
  22573928.317   -12413393.27749  -9655937.41149  22573927.5854   22573931.7754
  23916113.901    -8781601.44349  -6822740.00449  23916112.8704   23916119.4734
  22206808.469   -21666902.02749 -16656580.63849  22206808.3364   22206814.4474
 98  4 22  2 39 29.9980000  0  8 26 23 21  1 17  3 22  6
  22433303.787   -18003981.05849 -13581310.43749  22433303.1574   22433307.8344
  20300640.196   -27838825.95349 -21392428.01049  20300639.3904   20300643.6974
  21675682.415   -21051907.87049 -16125377.64949  21675681.8384   21675687.2384
  23937586.405    -6648317.58749  -4879929.35549  23937584.6354   23937592.5064
  20370918.513   -30629783.97749 -23582329.21249  20370917.6674   20370922.4374
  22555989.895   -12507659.91249  -9729391.89449  22555988.5144   22555994.4304
  23925120.862    -8734270.21449  -6785858.56549  23925120.2244   23925126.3024
  22224574.622   -21573540.23849 -16583831.24649  22224574.5774   22224580.9894
 98  4 22  2 39 59.9980000  0  8 26 23 21  1 17  3 22  6
  22445521.784   -17939774.53449 -13531279.39349  22445521.6794   22445525.0204
  20300309.354   -27840564.30249 -21393782.56049  20300308.5694   20300312.9134
  21664198.983   -21112253.46649 -16172400.14849  21664198.2584   21664203.3804
  23915129.060    -6766330.72149  -4971887.49849  23915126.3734   23915134.0574
  20372157.058   -30623275.43849 -23577257.60449  20372156.1704   20372160.5414
  22538112.503   -12601605.59849  -9802596.29849  22538111.1104   22538117.0964
  23934169.631    -8686718.62249  -6748805.42749  23934168.3204   23934175.5764
  22242397.641   -21479880.43349 -16510849.61149  22242397.2694   22242403.2124
 98  4 22  2 40 29.9980000  0  8 26 23 21  1 17  3 22  6
  22457832.536   -17875080.83649 -13480868.73349  22457832.4464   22457837.6724
  20300036.046   -27842000.47349 -21394901.63449  20300035.1284   20300039.5554
  21652764.489   -21172341.97349 -16219222.32149  21652763.6944   21652768.9334
  23892675.593    -6884324.04549  -5063830.18549  23892674.2264   23892681.1204
  20373450.940   -30616476.17649 -23571959.46249  20373449.9544   20373454.6854
  22520296.543   -12695228.51549  -9875549.19449  22520296.1234   22520300.2004
  23943259.742    -8638950.20849  -6711583.34049  23943258.7774   23943265.9384
  22260272.711   -21385946.10949 -16437654.05449  22260272.4844   22260277.6444
 98  4 22  2 40 59.9980000  0  8 26 23 21  1 17  3 22  6
  22470231.363   -17809925.11149 -13430098.04049  22470231.3834   22470236.3434
  20299819.063   -27843140.73749 -21395790.14649  20299818.2284   20299822.7074
  21641378.069   -21232177.75449 -16265847.56949  21641377.3064   21641382.6294
  23870224.583    -7002304.49149  -5155762.86349  23870223.8484   23870230.2044
  20374798.047   -30609397.15449 -23566443.33949  20374797.1014   20374801.6924
  22502542.853   -12788524.81949  -9948247.57649  22502542.2944   22502547.7394
  23952392.438    -8590958.06249  -6674186.89049  23952391.7744   23952397.7234
  22278196.396   -21291756.83149 -16364259.84149  22278196.1764   22278201.4104
 98  4 22  2 41 29.9980000  0  8 26 23 21  1 17  3 22  6
  22482713.214   -17744333.26449 -13378987.51949  22482713.2714   22482718.3914
  20299655.688   -27843999.18849 -21396459.06049  20299654.9314   20299659.3214
  21630038.237   -21291768.81949 -16312282.13649  21630037.6574   21630042.9354
  23847774.297    -7120280.71749  -5247692.23649  23847773.5304   23847780.7984
  20376194.931   -30602056.87049 -23560723.62849  20376193.9844   20376198.7104
  22484848.687   -12881508.68549 -10020702.49549  22484847.8844   22484853.1944
  23961569.680    -8542731.23949  -6636607.60649  23961569.3214   23961577.2214
  22296166.019   -21197325.83549 -16290677.27349  22296165.1964   22296172.1694
 98  4 22  2 41 59.9980000  0  8 26 23 21  1 17  3 22  6
  22495284.414   -17678271.45549 -13327510.78249  22495284.7984   22495289.2224
  20299554.844   -27844529.20249 -21396872.04249  20299554.0514   20299558.2854
  21618755.607   -21351059.14849 -16358482.35449  21618754.9374   21618760.1864
  23825338.082    -7238183.08449  -5339564.08749  23825337.3024   23825344.3994
  20377649.711   -30594411.97049 -23554766.55249  20377648.5474   20377653.2294
  22467224.636   -12974123.93449 -10092870.19349  22467224.5544   22467228.9964
  23970804.497    -8494202.05749  -6598792.70249  23970804.5474   23970810.1114
  22314191.193   -21102603.39649 -16216867.60249  22314191.1474   22314196.9054
 98  4 22  2 42 29.9980000  0  8 26 23 21  1 17  3 22  6
  22507938.028   -17611776.36349 -13275696.43449  22507937.9894   22507942.3354
  20299511.348   -27844757.59149 -21397049.99549  20299510.4614   20299514.8454
  21607521.870   -21410092.72949 -16404482.51349  21607521.1144   21607526.6224
  23802910.806    -7356038.94749  -5431399.69249  23802909.4094   23802916.3974
  20379154.634   -30586503.13749 -23548603.81549  20379153.6264   20379158.3334
  22449665.486   -13066397.70649 -10164771.79249  22449664.8404   22449670.0704
  23980091.211    -8445400.54649  -6560765.57749  23980090.9194   23980096.8504
  22332265.666   -21007621.98649 -16142856.13249  22332266.1444   22332271.1894
 98  4 22  2 42 59.9980000  0  8 26 23 21  1 17  3 22  6
  22520668.737   -17544876.13349 -13223566.37249  22520669.6654   22520671.5244
  20299523.510   -27844693.78449 -21397000.26649  20299522.7834   20299527.0134
  21596332.692   -21468892.12849 -16450300.19349  21596331.8114   21596337.1654
  23780489.061    -7473865.48049  -5523212.44449  23780488.3804   23780494.5314
  20380706.985   -30578345.46349 -23542247.18149  20380706.1014   20380710.6284
  22432165.836   -13158358.29049 -10236429.35249  22432165.7754   22432170.1574
  23989424.240    -8396355.79949  -6522548.93349  23989422.1994   23989431.4614
  22350389.309   -20912381.99349 -16068643.17949  22350388.8984   22350394.3114
 98  4 22  2 43 29.9980000  0  8 26 23 21  1 17  3 22  6
  22533479.124   -17477557.78349 -13171110.49949  22533479.0474   22533481.6954
  20299591.025   -27844338.84849 -21396723.67449  20299590.0864   20299594.6514
  21585188.374   -21527455.96949 -16495934.33449  21585187.4164   21585192.7024
  23758074.648    -7591653.41649  -5614995.12749  23758073.3784   23758081.2534
  20382307.457   -30569934.78249 -23535693.39849  20382306.3034   20382311.0714
  22414725.229   -13250009.66549 -10307845.97949  22414725.1694   22414729.4954
  23998799.151    -8347090.28149  -6484160.29649  23998797.5484   23998803.7434
  22368563.589   -20816875.07649 -15994222.22549  22368564.4154   22368569.1114
 98  4 22  2 43 59.9980000  0  8 26 23 21  1 17  3 22  6
  22546370.438   -17409813.12549 -13118322.45649  22546370.1834   22546374.4674
  20299716.253   -27843680.69049 -21396210.80349  20299715.4294   20299719.9704
  21574091.767   -21585768.92249 -16541372.98349  21574091.0184   21574096.3734
  23735669.951    -7709390.09049  -5706737.87249  23735669.9784   23735676.5754
  20383959.483   -30561253.19049 -23528928.49849  20383958.7594   20383963.2584
  22397347.566   -13341329.95349 -10379004.59249  22397347.0994   22397351.7864
  24008214.999    -8297609.91149  -6445604.20049  24008213.6404   24008219.2304
  22386789.515   -20721097.68249 -15919590.53749  22386788.8294   22386794.6934
 98  4 22  2 44 29.9980000  0  8 26 23 21  1 17  3 22  6
  22559351.606   -17341595.30049 -13065165.70849  22559350.3274   22559356.5564
  20299906.984   -27842678.24049 -21395429.65449  20299906.0674   20299910.5084
  21563052.276   -21643781.80349 -16586577.81149  21563051.4004   21563056.5274
  23713286.813    -7827013.20349  -5798392.11349  23713284.8944   23713292.9794
  20385670.762   -30552260.35449 -23521921.08349  20385669.7354   20385674.5344
  22380043.384   -13432264.22149 -10449862.41149  22380042.5394   22380048.3154
  24017677.285    -8247884.63449  -6406857.29449  24017675.2394   24017681.4244
  22405073.359   -20625015.62449 -15844721.42149  22405072.6314   22405079.4074
 98  4 22  2 44 59.9980000  0  8 26 23 21  1 17  3 22  6
  22572416.171   -17272940.11149 -13011668.16949  22572415.8524   22572420.1594
  20300155.376   -27841372.83749 -21394412.44949  20300154.4464   20300158.9594
  21552064.552   -21701522.53449 -16631570.56549  21552063.7374   21552068.8224
  23690921.375    -7944543.62049  -5889974.13049  23690920.3774   23690927.6354
  20387433.117   -30542999.02149 -23514704.45149  20387432.3644   20387436.7934
  22362807.055   -13522841.28149 -10520441.91949  22362806.3314   22362811.6724
  24027177.693    -8197959.60549  -6367954.70149  24027177.2514   24027184.4054
  22423405.765   -20528678.50849 -15769653.57749  22423404.6704   22423411.2964
 98  4 22  2 45 29.9980000  0  8 26 23 21  1 17  3 22  6
  22585554.888   -17203895.85249 -12957867.44549  22585554.4964   22585558.3564
  20300452.006   -27839813.95749 -21393197.72549  20300451.0604   20300455.5994
  21541118.719   -21759042.98849 -16676391.66949  21541118.2244   21541122.8574
  23668568.596    -8062007.82749  -5981504.56549  23668568.0614   23668574.0524
  20389239.435   -30533506.56749 -23507307.71949  20389238.6744   20389243.4694
  22345633.578   -13613087.64549 -10590763.72349  22345632.8704   22345638.4434
  24036710.859    -8147863.91649  -6328919.16649  24036709.0334   24036719.4474
  22441775.110   -20432146.82749 -15694434.12449  22441775.2024   22441780.5704
 98  4 22  2 45 59.9980000  0  8 26 23 21  1 17  3 22  6
  22598768.233   -17134459.82349 -12903761.44449  22598767.8494   22598772.2784
  20300798.469   -27837993.17449 -21391778.92149  20300797.6804   20300802.0234
  21530213.732   -21816348.95549 -16721045.63349  21530213.1244   21530218.1054
  23646228.321    -8179406.22149  -6072983.72149  23646227.9174   23646234.8094
  20391090.618   -30523778.64149 -23499727.50849  20391089.5624   20391094.6814
  22328525.135   -13702992.76949 -10660819.62849  22328525.0944   22328529.7684
  24046279.669    -8097578.33249  -6289735.64549  24046280.5064   24046283.5134
  22460181.039   -20335422.46249 -15619064.51349  22460180.5414   22460185.9834
 98  4 22  2 46 29.9980000  0  8 26 23 21  1 17  3 22  6
  22612065.123   -17064585.00149 -12849313.52649  22612065.5034   22612069.7724
  20301202.198   -27835871.66349 -21390125.77349  20301201.6214   20301205.8854
  21519355.998   -21873406.43649 -16765505.97649  21519355.0904   21519360.3254
  23623905.583    -8296712.64549  -6164391.20649  23623904.5014   23623912.0174
  20392993.255   -30513780.33949 -23491936.60849  20392992.1054   20392996.9394
  22311489.248   -13792516.35649 -10730578.22749  22311488.6084   22311493.5094
  24055891.630    -8047068.84849  -6250377.58849  24055889.6944   24055898.9924
  22478630.168   -20238471.78249 -15543518.55649  22478629.8884   22478635.5154
 98  4 22  2 46 59.9980000  0  8 26 23 21  1 17  3 22  6
  22625440.721   -16994296.42049 -12794543.20549  22625441.1334   22625446.2594
  20301658.480   -27833473.91849 -21388257.38549  20301657.6354   20301662.0024
  21508540.120   -21930244.29049 -16809795.19749  21508539.3884   21508544.6244
  23601591.478    -8413973.58749  -6255763.27249  23601589.9294   23601598.3374
  20394945.532   -30503520.85549 -23483942.20549  20394944.7444   20394949.3794
  22294520.435   -13881688.26649 -10800062.79149  22294520.0854   22294524.9624
  24065542.924    -7996348.83349  -6210855.62649  24065544.0314   24065549.6724
  22497119.304   -20141310.24049 -15467808.28649  22497119.6484   22497123.9034
 98  4 22  2 47 29.9980000  0  8 26 23 21  1 17  3 22  6
  22638896.631   -16923584.78449 -12739443.25149  22638895.7294   22638901.6584
  20302171.649   -27830777.24449 -21386156.07049  20302170.8804   20302175.2004
  21497769.657   -21986843.48049 -16853898.44049  21497768.9244   21497774.5314
  23579286.076    -8531188.65949  -6347099.57749  23579285.8504   23579292.5204
  20396951.267   -30492980.98949 -23475729.32349  20396950.1754   20396954.9704
  22277620.356   -13970498.40949 -10869265.48049  22277619.6754   22277624.9864
  24075238.823    -7945398.59049  -6171154.13549  24075238.2694   24075241.6014
  22515653.840   -20043910.71849 -15391912.58849  22515654.0774   22515659.2724
 98  4 22  2 47 59.9980000  0  8 26 23 21  1 17  3 22  6
  22652424.899   -16852492.54949 -12684046.70549  22652424.3434   22652428.0414
  20302734.374   -27827819.82549 -21383851.57349  20302733.5604   20302737.8244
  21487040.199   -22043226.98549 -16897833.59549  21487039.3524   21487044.1504
  23556979.854    -8648408.69649  -6438439.77049  23556978.5034   23556986.3764
  20399002.358   -30482202.56549 -23467330.54249  20399001.4154   20399005.9164
  22260780.804   -14058990.62149 -10938220.42149  22260780.5724   22260785.5104
  24084967.120    -7894274.67649  -6131317.37149  24084965.0664   24084973.3704
  22534226.643   -19946310.34849 -15315860.35549  22534226.4304   22534232.4484
 98  4 22  2 48 29.9980000  0  8 26 23 21  1 17  3 22  6
  22666032.238   -16780984.65249 -12628326.26149  22666032.4024   22666035.5974
  20303353.105   -27824568.22149 -21381317.84849  20303352.3624   20303356.5834
  21476362.775   -22099336.86949 -16941555.54249  21476361.7344   21476367.0444
  23534683.124    -8765578.34049  -6529740.68449  23534681.5594   23534688.7364
  20401106.061   -30471147.08949 -23458715.87849  20401105.1194   20401109.7724
  22244010.193   -14147120.72749 -11006893.19449  22244009.8824   22244013.6314
  24094735.063    -7842944.81349  -6091320.13249  24094734.1934   24094741.8374
  22552847.025   -19848459.75649 -15239613.15449  22552846.0004   22552852.5854
 98  4 22  2 48 59.9980000  0  8 26 23 21  1 17  3 22  6
  22679720.799   -16709051.22049 -12572274.24449  22679721.0164   22679724.9674
  20304032.072   -27821000.17649 -21378537.54349  20304031.2724   20304035.6804
  21465741.135   -22155153.72949 -16985049.18049  21465740.3274   21465745.3904
  23512403.480    -8882658.34549  -6620971.76549  23512402.2734   23512410.1714
  20403266.914   -30459791.58349 -23449867.41749  20403266.1134   20403270.5824
  22227311.802   -14234871.47249 -11075270.37149  22227311.5624   22227316.3784
  24104546.748    -7791383.11849  -6051142.23649  24104546.4304   24104552.1874
  22571518.346   -19750341.60849 -15163157.47149  22571518.3334   22571522.9514
 98  4 22  2 49 29.9980000  0  8 26 23 21  1 17  3 22  6
  22693483.474   -16636727.98049 -12515918.46949  22693482.9294   22693488.1734
  20304765.742   -27817144.84349 -21375533.37649  20304764.8044   20304769.2244
  21455171.316   -22210698.38949 -17028330.69749  21455170.4554   21455176.0354
  23490137.454    -8999667.02549  -6712147.25749  23490136.8974   23490143.0864
  20405478.009   -30448172.22749 -23440813.35249  20405477.0824   20405481.7184
  22210682.565   -14322258.86049 -11143364.40049  22210681.7454   22210687.4834
  24114397.137    -7739621.20649  -6010808.29349  24114395.9014   24114404.8404
  22590230.416   -19652009.06049 -15086534.73549  22590230.1494   22590235.5144
 98  4 22  2 49 59.9980000  0  8 26 23 21  1 17  3 22  6
  22707321.825   -16564006.42249 -12459252.32749  22707321.0494   22707325.7544
  20305551.331   -27813016.49449 -21372316.47349  20305550.4704   20305554.8014
  21444654.216   -22265965.98149 -17071396.32649  21444653.4054   21444658.5704
  23467886.507    -9116596.44749  -6803260.98549  23467885.7914   23467891.6204
  20407740.480   -30436282.58949 -23431548.68849  20407739.4964   20407744.2204
  22194125.856   -14409264.89149 -11211161.28649  22194125.1974   22194130.0614
  24124282.614    -7687669.67849  -5970326.72649  24124280.8984   24124286.2134
  22608981.383   -19553472.16849 -15009752.76649  22608981.0584   22608985.8204
 98  4 22  2 50 29.9980000  0  8 26 23 21  1 17  3 22  6
  22721243.896   -16490845.72749 -12402243.98649  22721243.8904   22721247.9724
  20306396.308   -27808576.16049 -21368856.45349  20306395.3454   20306399.9214
  21434194.214   -22320933.48649 -17114228.11949  21434193.6174   21434198.7114
  23445656.642    -9233414.77149  -6894288.14349  23445654.5914   23445662.8684
  20410061.238   -30424086.95949 -23422045.58649  20410060.2494   20410064.8574
  22177648.638   -14495852.82849 -11278632.37449  22177647.9744   22177653.3204
  24134212.000    -7635493.29149  -5929669.70949  24134211.5834   24134220.3204
  22627777.130   -19454699.81649 -14932787.31849  22627776.8764   22627782.5204
 98  4 22  2 50 59.9980000  0  8 26 23 21  1 17  3 22  6
  22735240.429   -16417293.43549 -12344930.50449  22735240.2114   22735245.6454
  20307294.126   -27803857.83749 -21365179.82249  20307293.2534   20307297.7074
  21423782.443   -22375647.73849 -17156862.57149  21423781.7354   21423786.8284
  23423437.213    -9350177.97749  -6985272.38149  23423436.9124   23423442.8564
  20412434.724   -30411613.97949 -23412326.37249  20412433.9764   20412438.3954
  22161245.465   -14582052.20449 -11345800.69349  22161245.0094   22161249.5634
  24144175.774    -7583132.95849  -5888869.60149  24144174.6164   24144182.2204
  22646608.526   -19355740.41149 -14855676.09149  22646607.9204   22646613.5354
 98  4 22  2 51 29.9980000  0  8 26 23 21  1 17  3 22  6
  22749314.817   -16343332.00149 -12287298.24749  22749313.9384   22749320.1244
  20308244.165   -27798865.36549 -21361289.56849  20308243.3564   20308247.7304
  21413420.896   -22430097.93849 -17199291.26449  21413420.0084   21413425.3914
  23401229.517    -9466879.71549  -7076208.71149  23401227.5674   23401234.8344
  20414862.120   -30398857.88749 -23402386.55649  20414861.2164   20414865.8444
  22144918.790   -14667849.36849 -11412655.60149  22144917.9824   22144923.7984
  24154173.453    -7530594.27949  -5847930.41349  24154172.7544   24154178.5254
  22665480.640   -19256566.94649 -14778398.07649  22665479.4354   22665486.3264
 98  4 22  2 51 59.9980000  0  8 26 23 21  1 17  3 22  6
  22763463.776   -16268978.59649 -12229360.55349  22763464.0824   22763467.9734
  20309243.077   -27793616.04049 -21357199.17449  20309242.2644   20309246.6944
  21403104.510   -22484310.89149 -17241535.09949  21403103.8804   21403108.8294
  23379031.575    -9583530.00049  -7167104.95249  23379029.8244   23379038.1664
  20417340.267   -30385835.24049 -23392239.03749  20417339.3004   20417343.9464
  22128662.251   -14753277.92349 -11479223.27749  22128661.7964   22128665.8974
  24164198.554    -7477912.97449  -5806880.04849  24164198.4444   24164205.6794
  22684392.630   -19157183.44649 -14700956.40449  22684392.9824   22684397.5564
 98  4 22  2 52 29.9980000  0  8 26 23 21  1 17  3 22  6
  22777682.075   -16194261.48249 -12171139.40349  22777682.1294   22777685.5344
  20310291.597   -27788105.99949 -21352905.62249  20310290.7284   20310295.1854
  21392829.064   -22538308.56749 -17283611.17249  21392828.2234   21392833.2774
  23356844.873    -9700121.83049  -7257955.63049  23356843.3544   23356850.8994
  20419867.314   -30372555.28049 -23381891.00549  20419866.5214   20419870.9724
  22112471.666   -14838360.14749 -11545521.08149  22112471.4154   22112475.6784
  24174249.803    -7425092.53149  -5765721.33749  24174247.9964   24174255.0454
  22703343.594   -19057595.47549 -14623355.39849  22703342.6234   22703348.5544
 98  4 22  2 52 59.9980000  0  8 26 23 21  1 17  3 22  6
  22791966.503   -16119196.88649 -12112647.50349  22791966.5204   22791970.3854
  20311387.585   -27782346.52549 -21348417.71449  20311386.5304   20311390.9854
  21382593.558   -22592096.39049 -17325523.73549  21382592.8594   21382597.8574
  23334672.884    -9816636.21449  -7348745.97549  23334671.9034   23334678.0574
  20422440.617   -30359032.67749 -23371353.90349  20422439.7894   20422444.4884
  22096346.763   -14923096.75349 -11611549.58849  22096346.6874   22096350.2524
  24184327.417    -7372134.42149  -5724455.31949  24184325.9104   24184333.2864
  22722332.360   -18957809.34049 -14545599.95949  22722331.9574   22722337.5124
 98  4 22  2 53 29.9980000  0  8 26 23 21  1 17  3 22  6
  22806314.961   -16043795.23249 -12053892.96649  22806314.0774   22806319.0204
  20312528.787   -27776349.37349 -21343744.59849  20312527.9604   20312532.4894
  21372396.460   -22645682.42049 -17367279.06249  21372395.6284   21372400.5324
  23312517.121    -9933064.72549  -7439469.40649  23312516.5814   23312522.9334
  20425058.797   -30345273.99749 -23360632.84649  20425057.8174   20425062.5804
  22080284.395   -15007505.37149 -11677322.50849  22080283.5684   22080287.5694
  24194428.522    -7319052.38949  -5683092.77049  24194427.0574   24194434.3424
  22741356.636   -18857836.16949 -14467698.78849  22741357.3564   22741362.0174
 98  4 22  2 53 59.9980000  0  8 26 23 21  1 17  3 22  6
  22820730.793   -15968039.09349 -11994862.21849  22820729.9874   22820735.3594
  20313722.678   -27770075.17849 -21338855.60249  20313721.8834   20313726.2424
  21362242.229   -22699043.06849 -17408858.75849  21362241.5684   21362246.5744
  23290386.533   -10049361.73249  -7530090.37949  23290385.4824   23290392.1684
  20427729.532   -30331238.91349 -23349696.41049  20427728.5184   20427733.3444
  22064293.225   -15091539.47549 -11742803.60249  22064292.4884   22064297.4634
  24204561.901    -7265802.58849  -5641599.41249  24204561.9904   24204567.8964
  22760418.584   -18757665.03849 -14389643.34849  22760418.0404   22760424.2334
 98  4 22  2 54 29.9980000  0  8 26 23 21  1 17  3 22  6
  22835212.909   -15891934.45749 -11935559.91149  22835211.5224   22835216.9584
  20314966.401   -27763539.27149 -21333762.67749  20314965.5424   20314969.8864
  21352130.241   -22752181.81249 -17450265.54749  21352129.4784   21352134.5714
  23268279.285   -10165535.71649  -7620615.47549  23268278.7564   23268285.0384
  20430453.360   -30316925.16349 -23338542.83249  20430452.5524   20430456.9804
  22048377.298   -15175177.96449 -11807976.42449  22048376.0874   22048380.9164
  24214727.788    -7212380.85049  -5599972.14849  24214726.8134   24214734.0924
  22779514.770   -18657313.81249 -14311447.59949  22779515.0604   22779520.5344
 98  4 22  2 54 59.9980000  0  8 26 23 21  1 17  3 22  6
  22849767.548   -15815448.81449 -11875960.71349  22849768.0954   22849771.8934
  20316260.423   -27756739.08749 -21328463.82349  20316259.5364   20316263.7734
  21342065.936   -22805069.83449 -17491476.96049  21342065.0864   21342070.3454
  23246195.386   -10281586.76349  -7711044.77649  23246195.2944   23246201.6654
  20433233.662   -30302314.47449 -23327157.87249  20433232.8874   20433237.7344
  22032542.515   -15258390.52249 -11872817.34849  22032542.4884   22032546.6604
  24224928.341    -7158777.13649  -5558203.06949  24224929.0514   24224933.4694
  22798645.495   -18556781.25849 -14233110.55849  22798645.0564   22798651.3414
 98  4 22  2 55 29.9980000  0  8 26 23 21  1 17  3 22  6
  22864404.506   -15738531.24249 -11816024.95249  22864403.6934   22864408.4244
  20317612.834   -27749632.12249 -21322925.91849  20317612.0504   20317616.4124
  21332056.853   -22857667.85649 -17532462.39649  21332056.2754   21332061.0414
  23224140.317   -10397486.98749  -7801356.55049  23224140.3124   23224146.2374
  20436080.049   -30287356.78849 -23315502.52649  20436079.1774   20436083.8164
  22016798.009   -15341128.29649 -11937288.31849  22016797.4784   22016802.0524
  24235168.808    -7104964.23249  -5516270.97449  24235167.8324   24235174.6784
  22817815.288   -18456043.23149 -14154613.42249  22817813.8464   22817820.3144
 98  4 22  2 55 59.9980000  0  8 26 23 21  1 17  3 22  6
  22879123.011   -15661185.07849 -11755755.21249  22879123.0234   22879126.4724
  20319021.065   -27742231.70949 -21317159.35249  20319020.1454   20319024.5004
  21322100.787   -22909987.47949 -17573230.90049  21322100.0174   21322104.8534
  23202110.694   -10513253.11149  -7891563.83349  23202109.5844   23202115.9444
  20438987.545   -30272077.62649 -23303596.68249  20438986.6544   20438991.1864
  22001143.373   -15423393.75549 -12001391.24149  22001142.2864   22001147.5594
  24245445.599    -7050959.66849  -5474189.52549  24245444.2384   24245450.7794
  22837019.745   -18355122.74549 -14075974.11849  22837018.4314   22837026.3164
 98  4 22  2 56 29.9980000  0  8 26 23 21  1 17  3 22  6
  22893908.402   -15583487.91249 -11695211.95749  22893908.6074   22893911.9394
  20320471.648   -27734608.59849 -21311219.25349  20320470.7214   20320475.1474
  21312186.809   -22962085.52749 -17613826.73149  21312185.7914   21312190.9404
  23180090.113   -10628972.13549  -7981734.40949  23180088.9284   23180096.6094
  20441940.000   -30256562.43249 -23291506.91649  20441939.1904   20441943.9074
  21985562.171   -15505273.02649 -12065193.24649  21985561.7124   21985566.8264
  24255741.480    -6996854.38749  -5432029.60749  24255739.6514   24255749.4204
  22856245.723   -18254089.52549 -13997246.98149  22856245.5304   22856251.2224
 98  4 22  2 56 59.9980000  0  8 26 23 21  1 17  3 22  6
  22908765.563   -15505412.69449 -11634374.13149  22908765.8414   22908769.5274
  20321973.937   -27726713.98649 -21305067.59549  20321973.1614   20321977.5864
  21302323.087   -23013919.76549 -17654217.01849  21302321.9594   21302327.2274
  23158086.205   -10744602.91749  -8071836.22649  23158085.3914   23158092.3594
  20444942.882   -30240782.36749 -23279210.76649  20444941.7014   20444946.5634
  21970059.983   -15586737.26149 -12128671.84349  21970059.8344   21970063.9984
  24266061.943    -6942619.32749  -5389768.61149  24266061.0554   24266068.0934
  22875502.855   -18152892.66549 -13918392.27749  22875503.2394   22875507.9104
 98  4 22  2 57 29.9980000  0  8 26 23 21  1 17  3 22  6
  22923688.217   -15426993.13549 -11573267.98949  22923688.4014   22923692.2194
  20323525.332   -27718561.44149 -21298714.94649  20323524.4974   20323528.8444
  21292503.438   -23065522.27749 -17694426.75349  21292502.9174   21292507.7924
  23136098.360   -10860149.37149  -8161872.34449  23136097.7134   23136103.5734
  20447990.353   -30224767.89449 -23266731.95549  20447989.2424   20447994.0184
  21954632.128   -15667811.32849 -12191846.41049  21954631.6154   21954636.3774
  24276404.021    -6888272.68049  -5347420.61749  24276403.8054   24276408.4714
  22894790.237   -18051537.05249 -13839413.87249  22894790.3264   22894795.9584
 98  4 22  2 57 59.9980000  0  8 26 23 21  1 17  3 22  6
  22938672.007   -15348253.00249 -11511912.06349  22938672.0584   22938676.6124
  20325124.497   -27710157.83249 -21292166.67049  20325123.8004   20325128.2414
  21282729.049   -23116887.03649 -17734451.22049  21282728.0344   21282733.2054
  23114124.621   -10975621.91849  -8251850.86849  23114123.9454   23114130.0504
  20451080.445   -30208529.15249 -23254078.40049  20451079.4724   20451084.1914
  21939276.555   -15748505.51549 -12254724.97449  21939275.4064   21939280.2884
  24286765.846    -6833820.04349  -5304990.04349  24286763.9134   24286771.2964
  22914110.318   -17950009.59149 -13760301.56649  22914110.3024   22914115.8424
 98  4 22  2 58 29.9980000  0  8 26 23 21  1 17  3 22  6
  22953720.117   -15269175.63749 -11450293.34249  22953719.9304   22953723.2274
  20326775.391   -27701482.22749 -21285406.45249  20326774.4574   20326778.7614
  21273003.304   -23167996.17349 -17774276.49349  21273002.4074   21273007.5974
  23092171.529   -11090985.81449  -8341744.72349  23092170.6834   23092177.5034
  20454220.610   -30192027.58949 -23241220.03949  20454219.7084   20454224.3514
  21923998.282   -15828793.11949 -12317286.71949  21923997.9824   21924002.7074
  24297153.723    -6779230.31249  -5262452.66449  24297153.9704   24297160.3784
  22933469.633   -17848276.08449 -13681028.70849  22933469.2804   22933475.1014
 98  4 22  2 58 59.9980000  0  8 26 23 21  1 17  3 22  6
  22968841.088   -15189713.92949 -11388375.13549  22968840.0234   22968844.4274
  20328483.927   -27692503.67749 -21278410.16549  20328483.1544   20328487.3924
  21263327.985   -23218840.08249 -17813895.09149  21263327.0854   21263332.3334
  23070249.401   -11206186.66849  -8431511.52249  23070248.6594   23070255.1794
  20457420.041   -30175214.46249 -23228118.89549  20457419.0344   20457423.8254
  21908805.992   -15908629.04049 -12379496.50049  21908805.6094   21908809.9154
  24307577.727    -6724453.24649  -5219769.26349  24307577.0354   24307582.4734
  22952875.129   -17746299.39149 -13601566.36549  22952874.3064   22952880.2574
 98  4 22  2 59 29.9980000  0  8 26 23 21  1 17  3 22  6
  22984030.972   -15109889.81449 -11326174.52749  22984031.7364   22984035.0004
  20330241.173   -27683269.28349 -21271214.52349  20330240.3574   20330244.7214
  21253696.383   -23269454.17649 -17853334.60649  21253695.5334   21253700.4144
  23048352.118   -11321257.43849  -8521176.96749  23048351.8184   23048357.6184
  20460674.046   -30158114.49249 -23214794.24349  20460673.0714   20460677.5514
  21893693.093   -15988047.77449 -12441381.19549  21893692.0824   21893697.1914
  24318031.075    -6669520.68949  -5176964.73349  24318029.9884   24318037.6464
  22972318.675   -17644122.88049 -13521948.30549  22972319.1444   22972324.8124
 98  4 22  2 59 59.9980000  0  8 26 23 21  1 17  3 22  6
  22999285.890   -15029725.02349 -11263708.44749  22999284.7864   22999289.9174
  20332041.789   -27673806.99649 -21263841.30049  20332041.0014   20332045.2384
  21244106.646   -23319848.22649 -17892602.64849  21244105.7424   21244110.6354
  23026476.838   -11436212.38849  -8610752.16349  23026475.3634   23026481.3794
  20463983.629   -30140722.48949 -23201242.03049  20463982.6904   20463987.3834
  21878657.124   -16067062.21449 -12502950.85649  21878656.0224   21878660.8334
  24328510.220    -6614452.28849  -5134054.35549  24328509.4734   24328516.4874
  22991795.413   -17541772.01649 -13442194.41449  22991794.5324   22991801.1624
 98  4 22  3  0 29.9980000  0  8 26 23 21  1 17  3 22  6
  23014602.434   -14949236.60549 -11200990.21649  23014602.6824   23014607.0084
  20333881.392   -27664139.61149 -21256308.25349  20333880.6474   20333885.0124
  21234554.507   -23370045.04149 -17931717.01349  21234553.4554   21234558.6934
  23004624.860   -11551044.83749  -8700231.90549  23004623.6404   23004630.3904
  20467350.019   -30123031.85849 -23187457.11549  20467349.0894   20467353.7454
  21863694.700   -16145690.29749 -12564219.47449  21863694.2494   21863698.6464
  24339011.396    -6559268.94049  -5091054.37949  24339010.0644   24339018.0784
  23011300.647   -17439271.14149 -13362323.61749  23011300.3484   23011305.8224
 98  4 22  3  0 59.9980000  0  8 26 23 21  1 17  3 22  6
  23029982.745   -14868413.72749 -11138011.36049  23029982.3054   23029987.1484
  20335762.197   -27654255.85249 -21248606.60649  20335761.4254   20335765.7764
  21225044.362   -23420021.01249 -17970659.28649  21225043.5584   21225048.4794
  22982797.091   -11665749.72549  -8789612.25049  22982795.1524   22982802.0274
  20470775.081   -30105033.17049 -23173432.16449  20470774.1284   20470778.9154
  21848806.981   -16223925.73749 -12625182.13049  21848806.5564   21848810.9444
  24349535.338    -6503965.37849  -5047960.75149  24349533.7694   24349541.7604
  23030835.881   -17336612.17249 -13282329.63449  23030834.9754   23030842.1824
 98  4 22  3  1 29.9980000  0  8 26 23 21  1 17  3 22  6
  23045430.611   -14787234.40849 -11074754.75749  23045431.2404   23045433.8664
  20337690.834   -27644120.85249 -21240709.18149  20337689.9004   20337694.4674
  21215589.163   -23469708.46349 -18009376.74249  21215588.2844   21215593.0374
  22960999.127   -11780298.36249  -8878870.84149  22960997.4824   22961003.5404
  20474265.500   -30086690.79349 -23159139.39649  20474264.6124   20474269.1674
  21834000.215   -16301735.48749 -12685813.07549  21833999.3274   21834004.3844
  24360085.403    -6448523.66849  -5004759.49149  24360083.5854   24360091.3184
  23050406.899   -17233765.75149 -13202189.60249  23050406.3264   23050412.3554
 98  4 22  3  1 59.9980000  0  8 26 23 21  1 17  3 22  6
  23060944.548   -14705708.22349 -11011227.85149  23060944.4804   23060948.4744
  20339670.065   -27633719.74949 -21232604.41149  20339669.2504   20339673.4754
  21206190.708   -23519097.46849 -18047861.65249  21206189.9104   21206195.0534
  22939235.094   -11894668.59849  -8967990.41149  22939233.7794   22939240.9214
  20477823.062   -30067995.67249 -23144571.76349  20477822.1294   20477826.8484
  21819277.473   -16379103.78749 -12746100.03149  21819276.9094   21819281.6554
  24370662.111    -6392943.13249  -4961450.05349  24370661.7024   24370668.5394
  23070014.046   -17130730.24449 -13121902.21149  23070014.5514   23070019.9824
 98  4 22  3  2 29.9980000  0  8 26 23 21  1 17  3 22  6
  23076523.195   -14623840.74149 -10947435.03149  23076522.5064   23076527.4384
  20341697.849   -27623063.74149 -21224301.02349  20341696.9264   20341701.4584
  21196844.778   -23568210.53249 -18086131.53749  21196843.9404   21196848.9804
  22917503.189   -12008870.55849  -9056978.87949  22917502.3934   22917508.5574
  20481441.531   -30048980.60849 -23129754.83049  20481440.6244   20481445.2654
  21804636.214   -16456043.56849 -12806053.08449  21804635.0154   21804640.5274
  24381262.412    -6337238.34549  -4918043.75449  24381261.5244   24381268.9404
  23089652.301   -17027530.50849 -13041486.84549  23089651.8574   23089658.2444
 98  4 22  3  2 59.9980000  0  8 26 23 21  1 17  3 22  6
  23092155.232   -14541693.80549 -10883424.41649  23092155.2444   23092158.9284
  20343763.561   -27612208.23149 -21215842.18349  20343762.8864   20343767.0824
  21187539.300   -23617111.07949 -18124235.81049  21187538.4124   21187543.5024
  22895790.091   -12122973.04249  -9145889.81949  22895789.2954   22895795.3804
  20485103.915   -30029734.57849 -23114757.93749  20485102.9184   20485107.7114
  21790066.800   -16532606.23949 -12865712.28349  21790066.6314   21790071.2094
  24391876.445    -6281462.17349  -4874581.85649  24391874.7174   24391883.0954
  23109308.007   -16924239.05949 -12960999.99749  23109307.6594   23109313.8724
 98  4 22  3  3 29.9980000  0  8 26 23 21  1 17  3 22  6
  23107839.545   -14459272.81249 -10819200.27549  23107839.4864   23107843.9584
  20345869.099   -27601143.40749 -21207220.22849  20345868.4484   20345872.6724
  21178274.701   -23665796.61049 -18162172.55049  21178274.0464   21178278.8704
  22874099.458   -12236957.69949  -9234708.95049  22874097.6924   22874104.6924
  20488812.386   -30010246.31149 -23099572.28049  20488811.3514   20488816.0254
  21775574.239   -16608765.18149 -12925056.88349  21775574.1244   21775578.6094
  24402505.882    -6225604.64849  -4831056.56949  24402504.2484   24402512.1294
  23128980.679   -16820858.88949 -12880444.01749  23128979.6214   23128986.3034
 98  4 22  3  3 59.9980000  0  8 26 23 21  1 17  3 22  6
  23123579.898   -14376556.66849 -10754746.15249  23123580.2684   23123583.4744
  20348017.163   -27589855.30849 -21198424.29849  20348016.4314   20348020.6414
  21169048.047   -23714282.79549 -18199953.96449  21169047.1544   21169052.2464
  22852435.472   -12350802.27149  -9323418.91849  22852434.6294   22852441.0504
  20492569.691   -29990501.50349 -23084186.72049  20492568.7404   20492573.4634
  21761165.016   -16684485.97749 -12984060.08049  21761164.7794   21761168.8454
  24413154.907    -6169643.25549  -4787450.38049  24413154.4654   24413161.7964
  23148671.972   -16717380.60149 -12799811.59649  23148671.3984   23148677.8794
 98  4 22  3  4 29.9980000  0  8 26 23 21  1 17  3 22  6
  23139380.664   -14293523.43249 -10690044.92049  23139380.2904   23139383.1244
  20350211.832   -27578322.10249 -21189437.36749  20350210.8824   20350215.2504
  21159861.312   -23762559.30149 -18237571.98849  21159860.5834   21159865.5384
  22830798.799   -12464503.28749  -9412017.02649  22830797.2884   22830804.1534
  20496377.302   -29970492.56949 -23068595.33949  20496376.4044   20496380.7584
  21746842.771   -16759749.73849 -13042707.14349  21746842.6144   21746846.8614
  24423826.103    -6113566.60049  -4743754.31049  24423824.9784   24423831.6274
  23168384.157   -16613792.22149 -12719093.38249  23168383.2024   23168389.8354
 98  4 22  3  4 59.9980000  0  8 26 23 21  1 17  3 22  6
  23155232.622   -14210220.15949 -10625133.28749  23155232.5364   23155237.5214
  20352446.847   -27566577.05949 -21180285.36249  20352446.1354   20352450.4574
  21150709.282   -23810653.41149 -18275047.88949  21150708.4294   21150713.3614
  22809179.751   -12578111.88049  -9500543.12749  22809178.8944   22809185.3174
  20500231.005   -29950241.19949 -23052815.04749  20500230.1764   20500234.5524
  21732602.648   -16834582.04749 -13101018.01349  21732602.2634   21732607.1164
  24434510.730    -6057418.38949  -4700002.49649  24434509.7614   24434517.4464
  23188112.523   -16510119.34249 -12638309.32849  23188112.6344   23188117.5354
 98  4 22  3  5 29.9980000  0  9 26 23 21  1 17  3  9 22  6
  23171143.876   -14126605.93649 -10559979.36749  23171144.8304   23171148.3204
  20354725.225   -27554604.15249 -21170955.81349  20354724.5274   20354728.7384
  21141597.209   -23858537.59849 -18312360.21249  21141596.3574   21141601.0814
  22787584.229   -12691596.67749  -9588972.76149  22787583.9144   22787589.1544
  20504138.177   -29929708.73249 -23036815.72549  20504137.1014   20504141.8884
  21718450.395   -16908952.32549 -13158968.86149  21718449.7204   21718454.5724
  24028028.698    -5862728.65249  -4554600.08149  24028028.1224   24028033.0574
  24445211.282    -6001186.54949  -4656185.57149  24445211.3324   24445216.5144
  23207863.116   -16406328.78749 -12557433.55949  23207862.4814   23207868.5874
 98  4 22  3  5 59.9980000  0  9 26 23 21  1 17  3  9 22  6
  23187114.687   -14042679.17449 -10494581.86649  23187115.0444   23187119.0774
  20357046.557   -27542405.36349 -21161450.25149  20357045.6414   20357050.1284
  21132524.379   -23906215.64249 -18349511.89049  21132523.5584   21132528.7954
  22766012.225   -12804958.06649  -9677306.22649  22766011.5084   22766017.2124
  20508095.517   -29908912.97049 -23020611.22649  20508094.5124   20508099.0784
  21704382.369   -16982880.08749 -13216574.88449  21704381.8994   21704386.8124
  24015386.999    -5929161.45449  -4606365.82249  24015386.7744   24015391.6854
  24455925.860    -5944881.24149  -4612311.35049  24455925.8254   24455931.0764
  23227635.160   -16302426.41649 -12476470.66449  23227635.1734   23227640.3594
 98  4 22  3  6 29.9980000  0  9 26 23 21  1 17  3  9 22  6
  23203146.745   -13958429.78749 -10428932.99949  23203146.3564   23203151.0964
  20359414.419   -27529962.08549 -21151754.18749  20359413.6114   20359418.0384
  21123498.679   -23953645.81549 -18386470.42449  21123497.5874   21123502.7874
  22744467.283   -12918177.09349  -9765528.76649  22744466.2344   22744472.6474
  20512107.625   -29887829.16349 -23004182.27249  20512106.6344   20512111.3794
  21690398.137   -17056367.79449 -13273838.01549  21690397.8404   21690402.1074
  24002784.663    -5995386.68849  -4657969.89049  24002783.9184   24002789.5934
  24466658.148    -5888482.60649  -4568364.38249  24466657.7354   24466666.6684
  23247433.925   -16198383.62149 -12395398.35949  23247432.9874   23247439.2204
 98  4 22  3  6 59.9980000  0  9 26 23 21  1 17  3  9 22  6
  23219239.310   -13873863.10349 -10363036.89049  23219238.7064   23219245.5074
  20361825.550   -27517291.52849 -21141881.01649  20361824.5424   20361828.9074
  21114520.924   -24000824.20349 -18423232.76849  21114520.1524   21114524.7384
  22722953.000   -13031235.39449  -9853626.07249  22722952.5574   22722958.2964
  20516175.922   -29866449.99049 -22987523.18049  20516174.8184   20516179.6764
  21676498.578   -17129410.32649 -13330754.25249  21676497.7834   21676503.0964
  23990224.542    -6061390.34049  -4709401.28249  23990224.3834   23990228.6454
  24477410.843    -5831976.81149  -4524334.00749  24477408.9824   24477417.5214
  23267260.625   -16094192.93749 -12314210.81549  23267259.7014   23267265.9714
 98  4 22  3  7 29.9980000  0  9 26 23 21  1 17  3  9 22  6
  23235392.448   -13788977.97649 -10296892.64049  23235390.4744   23235396.9014
  20364281.943   -27504382.93549 -21131822.36349  20364281.1324   20364285.1364
  21105591.839   -24047746.50149 -18459795.56149  21105590.9834   21105595.6254
  22701476.853   -13144092.93949  -9941566.92449  22701476.1154   22701482.3734
  20520300.539   -29844774.92849 -22970633.52149  20520299.8124   20520304.4254
  21662685.152   -17202000.60749 -13387318.09449  21662684.9654   21662689.1834
  23977710.590    -6127151.79349  -4760643.93949  23977710.4164   23977715.3614
  24488185.771    -5775353.82849  -4480212.27049  24488184.3334   24488191.5704
  23287115.234   -15989856.08249 -12232909.40849  23287114.5364   23287121.4444
 98  4 22  3  7 59.9980000  0  8 26 23 21  1 17  3  9  6
  23251609.864   -13703754.18549 -10230484.48949  23251609.7264   23251613.4924
  20366795.372   -27491174.69149 -21121530.21249  20366794.6514   20366798.8634
  21096721.008   -24094362.97049 -18496120.04549  21096720.2444   21096725.3184
  22680047.525   -13256704.28949 -10029315.95249  22680046.9804   22680052.9824
  20524491.861   -29822749.53349 -22953470.89149  20524491.1504   20524495.5754
  21648966.988   -17274089.93849 -13443491.58149  21648966.6424   21648970.6384
  23965252.324    -6192619.84349  -4811657.95749  23965249.6334   23965256.3534
  23307006.992   -15885324.48949 -12151456.23749  23307006.8154   23307012.0214
 98  4 22  3  8 29.9980000  0  8 26 23 21  1 17  3  9  6
  23267871.472   -13618299.16749 -10163896.16149  23267870.7984   23267875.2864
  20369343.545   -27477784.00149 -21111095.89449  20369342.7674   20369346.9134
  21087885.185   -24140795.57649 -18532301.25349  21087884.4014   21087889.2784
  22658643.900   -13369180.80049 -10116959.92049  22658642.7284   22658649.2544
  20528730.939   -29800473.03549 -22936112.57549  20528729.9764   20528734.3854
  21635326.549   -17345770.86349 -13499346.83649  21635326.3254   21635330.5124
  23952829.173    -6257903.21849  -4862528.08949  23952827.3434   23952833.1654
  23326915.785   -15780702.26549 -12069932.44449  23326915.3434   23326921.2004
 98  4 22  3  8 59.9980000  0  8 26 23 21  1 17  3  9  6
  23284164.516   -13532678.34849 -10097178.65549  23284164.1894   23284168.4644
  20371912.691   -27464282.93749 -21100575.56849  20371912.0194   20371916.2164
  21079067.640   -24187131.61549 -18568407.19949  21079066.9964   21079071.8574
  22637254.005   -13481585.28949 -10204547.75249  22637252.9564   22637259.0914
  20533002.799   -29778024.02549 -22918619.85649  20533001.9594   20533006.7624
  21621754.206   -17417094.33949 -13554923.55049  21621753.9714   21621758.5634
  23940428.819    -6323067.02749  -4913305.02549  23940428.7064   23940433.0734
  23346826.645   -15676069.49149 -11988400.43049  23346826.4184   23346832.1044
 98  4 22  3  9 29.9980000  0  8 26 23 21  1 17  3  9  6
  23300503.481   -13446816.74649 -10030273.51149  23300502.1584   23300507.7044
  20374521.131   -27450575.53149 -21089894.45849  20374520.4834   20374524.8024
  21070283.648   -24233291.66149 -18604376.02049  21070282.7174   21070287.6244
  22615891.853   -13593843.74249 -10292021.80149  22615891.3344   22615897.0754
  20537322.117   -29755325.89149 -22900933.00749  20537321.0684   20537325.9774
  21608263.357   -17487989.44949 -13610166.47849  21608262.9214   21608267.6054
  23928065.161    -6388038.78049  -4963932.32949  23928064.7254   23928069.9884
  23366753.033   -15571356.63749 -11906806.01949  23366752.7844   23366759.5634
 98  4 22  3  9 59.9980000  0  8 26 23 21  1 17  3  9  6
  23316888.325   -13360713.94649  -9963180.40249  23316887.7354   23316892.9984
  20377165.683   -27436678.41849 -21079065.52349  20377164.8624   20377169.2374
  21061531.868   -24279282.48149 -18640212.97749  21061531.0854   21061535.8254
  22594553.326   -13705978.59949 -10379399.54149  22594552.6774   22594559.0404
  20541689.293   -29732376.24049 -22883050.16249  20541688.5954   20541693.0004
  21594851.438   -17558469.59849 -13665086.05849  21594850.8664   21594855.4574
  23915734.104    -6452838.78049  -5014425.78849  23915734.2924   23915739.3314
  23386692.056   -15466577.22249 -11825159.70649  23386691.9804   23386697.5374
 98  4 22  3 10 29.9980000  0  8 26 23 21  1 17  3  9  6
  23333342.153   -13274248.61449  -9895804.82249  23333341.8744   23333346.8824
  20379863.650   -27422500.32649 -21068017.64849  20379862.6954   20379866.8444
  21052834.922   -24324984.92349 -18675825.25149  21052834.0464   21052839.0884
  22573261.656   -13817866.64049 -10466584.95949  22573260.8774   22573266.6974
  20546124.315   -29709070.07649 -22864889.52349  20546123.3354   20546128.0664
  21581540.365   -17628419.50549 -13719592.45249  21581539.7514   21581544.3024
  23903455.886    -6517361.06149  -5064702.86749  23903455.4824   23903461.8754
  23406662.337   -15361632.60249 -11743384.69349  23406662.1754   23406667.4904
 98  4 22  3 10 59.9980000  0  8 26 23 21  1 17  3  9  6
  23349860.072   -13187446.17949  -9828166.56249  23349859.5394   23349864.3544
  20382612.385   -27408055.54949 -21056761.97049  20382611.6124   20382615.8124
  21044195.137   -24370387.20749 -18711203.63849  21044194.4474   21044199.3034
  22552015.401   -13929516.35049 -10553584.67449  22552014.3754   22552020.3344
  20550627.274   -29685406.93349 -22846450.70549  20550626.4874   20550630.8064
  21568327.633   -17697852.99949 -13773696.45949  21568327.3584   21568331.9094
  23891231.135    -6581602.77449  -5114761.31749  23891230.9954   23891235.1264
  23426660.220   -15256543.06449 -11661496.73449  23426660.2814   23426665.6784
 98  4 22  3 11 29.9980000  0  8 26 23 21  1 17  3  9  6
  23366432.365   -13100357.46349  -9760305.23149  23366431.9464   23366435.5174
  20385403.660   -27393387.49249 -21045332.30049  20385402.9794   20385406.9714
  21035605.746   -24415524.89849 -18746375.83149  21035604.8844   21035609.9084
  22530804.859   -14040978.06949 -10640437.90649  22530804.4194   22530810.2274
  20555191.104   -29661423.73849 -22827762.49749  20555190.0184   20555194.8834
  21555205.487   -17766810.08749 -13827429.23349  21555204.8424   21555209.5604
  23879052.569    -6645601.43949  -5164630.34649  23879052.4364   23879056.4084
  23446675.027   -15151365.84249 -11579540.44649  23446673.9754   23446680.2684
 98  4 22  3 11 59.9980000  0  8 26 23 21  1 17  3  9  6
  23383054.076   -13013010.47149  -9692242.61649  23383053.9994   23383057.4464
  20388226.877   -27378551.37449 -21033771.67649  20388226.0054   20388230.3694
  21027058.756   -24460439.48349 -18781374.17949  21027057.8914   21027062.6584
  22509621.685   -14152296.47549 -10727179.46549  22509621.7434   22509625.3694
  20559809.481   -29637153.96649 -22808850.97949  20559808.7114   20559813.0144
  21542169.127   -17835316.26749 -13880810.66549  21542168.6374   21542172.9804
  23866916.697    -6709375.96249  -5214324.74449  23866916.0884   23866920.3424
  23466700.189   -15046132.81749 -11497540.72149  23466698.6434   23466704.4314
 98  4 22  3 12 29.9980000  0  8 26 23 21  1 17  3  9  6
  23399721.671   -12925421.50249  -9623991.49649  23399722.5494   23399726.2464
  20391079.943   -27363558.41549 -21022088.83449  20391079.1604   20391083.3934
  21018550.911   -24505148.40249 -18816212.25349  21018550.2004   21018555.0884
  22488463.720   -14263482.28749 -10813817.69049  22488462.8414   22488468.7054
  20564478.681   -29612617.23949 -22789731.44249  20564477.9784   20564482.4064
  21529218.985   -17903369.94849 -13933839.48349  21529218.6824   21529223.0164
  23854824.389    -6772920.76949  -5263840.12149  23854823.7794   23854828.4744
  23486735.929   -14940843.25249 -11415496.92749  23486735.4514   23486742.1924
 98  4 22  3 12 59.9980000  0  8 26 23 21  1 17  3  9  6
  23416433.737   -12837599.56149  -9555558.79649  23416434.2704   23416437.5264
  20393964.593   -27348399.46849 -21010276.65949  20393963.8534   20393968.2184
  21010078.927   -24549668.50849 -18850903.20949  21010078.0964   21010082.8074
  22467330.169   -14374539.10249 -10900355.41149  22467329.5714   22467334.8014
  20569197.159   -29587821.39749 -22770410.01949  20569196.2024   20569201.1544
  21516354.138   -17970975.05849 -13986518.76949  21516353.4184   21516358.0244
  23842775.883    -6836235.88449  -5313176.48849  23842776.2294   23842780.6064
  23506782.722   -14835495.35549 -11333407.70349  23506783.1734   23506788.9824
 98  4 22  3 13 29.9980000  0  8 26 23 21  1 17  3  9  6
  23433192.302   -12749532.80349  -9486935.33249  23433191.7694   23433196.5234
  20396881.808   -27333069.35449 -20998331.10849  20396881.0134   20396885.2314
  21001639.907   -24594015.53449 -18885459.29249  21001639.2084   21001643.9234
  22446223.283   -14485456.30449 -10986784.34049  22446223.0134   22446228.3654
  20573963.371   -29562774.99149 -22750893.34649  20573962.2424   20573966.8624
  21503574.586   -18038131.80049 -14038848.67449  21503573.9564   21503578.4504
  23830768.522    -6899335.35549  -5362344.85149  23830767.6534   23830772.8084
  23526842.562   -14730080.24449 -11251266.05549  23526840.3074   23526846.9094
 98  4 22  3 13 59.9980000  0  8 26 23 21  1 17  3  9  6
  23449992.789   -12661245.39949  -9418139.95649  23449993.8474   23449996.6414
  20399826.820   -27317593.04349 -20986271.64249  20399826.2044   20399830.2524
  20993232.606   -24638196.19849 -18919885.74049  20993231.7384   20993236.7694
  22425142.680   -14596235.19449 -11073105.49849  22425141.9074   22425147.7624
  20578775.694   -29537485.48649 -22731187.25049  20578774.5714   20578779.6444
  21490876.256   -18104861.66149 -14090845.95449  21490875.6764   21490880.2224
  23818800.169    -6962228.79949  -5411352.65749  23818799.6384   23818805.5604
  23546915.294   -14624597.43149 -11169071.65849  23546915.0104   23546921.6854
 98  4 22  3 14 29.9980000  0  8 26 23 21  1 17  3  9  6
  23466838.220   -12572723.33249  -9349161.71849  23466838.3764   23466841.6274
  20402806.785   -27301933.15049 -20974069.12649  20402805.8714   20402810.1814
  20984863.420   -24682176.43049 -18954156.01749  20984862.7924   20984867.3614
  22404095.808   -14706837.18049 -11159288.78749  22404094.7384   22404100.7504
  20583640.079   -29511922.60749 -22711268.14249  20583639.2734   20583643.7304
  21478264.379   -18171137.17149 -14142489.18249  21478264.3374   21478268.0864
  23806873.944    -7024901.23049  -5460188.27249  23806873.6244   23806878.2314
  23567002.304   -14519039.57649 -11086818.77749  23567001.6744   23567007.7724
 98  4 22  3 14 59.9980000  0  8 26 23 21  1 17  3  9  6
  23483727.733   -12483967.75549  -9280001.53849  23483727.3344   23483731.1264
  20405819.998   -27286098.63749 -20961730.53649  20405819.2354   20405823.6194
  20976531.695   -24725959.67949 -18988272.80149  20976530.8704   20976535.7274
  22383082.652   -14817261.28649 -11245333.49649  22383081.8054   22383088.6144
  20588556.609   -29486086.25749 -22691135.91849  20588555.8994   20588560.3254
  21465737.896   -18236964.29949 -14193783.02449  21465737.6294   21465741.7944
  23794988.840    -7087357.34949  -5508855.34449  23794988.2024   23794993.2734
  23587099.091   -14413430.97949 -11004526.38649  23587097.3324   23587106.1934
 98  4 22  3 15 29.9980000  0  8 26 23 21  1 17  3  9  6
  23500666.077   -12394956.22549  -9210641.87949  23500666.1774   23500669.9974
  20408871.744   -27270061.30249 -20949233.90049  20408871.0634   20408875.1104
  20968244.602   -24769508.40249 -19022206.83449  20968244.0374   20968248.8354
  22362105.851   -14927494.72149 -11331229.61649  22362104.8174   22362111.2094
  20593532.223   -29459939.56549 -22670761.87949  20593531.2854   20593536.3694
  21453301.583   -18302317.44149 -14244707.52949  21453301.1594   21453305.6244
  23783152.852    -7149555.35249  -5557321.30049  23783153.1464   23783158.2934
  23607209.745   -14307748.35149 -10922176.30949  23607209.3594   23607216.2924
 98  4 22  3 15 59.9980000  0  8 26 23 21  1 17  3  9  6
  23517648.421   -12305712.84649  -9141101.59549  23517646.9624   23517652.3624
  20411960.170   -27253831.67049 -20936587.42649  20411959.2854   20411963.8334
  20960001.383   -24812826.99749 -19055961.55149  20960000.6734   20960005.3094
  22341161.767   -15037556.46149 -11416991.94149  22341161.1964   22341166.8284
  20598564.261   -29433496.25249 -22650156.71149  20598563.3614   20598567.7124
  21440954.077   -18367203.94049 -14295268.40949  21440953.3674   21440957.8594
  23771368.993    -7211479.89749  -5605574.14349  23771368.9644   23771373.4794
  23627330.921   -14202010.28649 -10839783.01849  23627330.6194   23627335.2974
 98  4 22  3 16 29.9980000  0  8 26 23 21  1 17  3  9  6
  23534676.482   -12216229.12349  -9071374.02649  23534677.3024   23534681.3924
  20415086.530   -27237402.50349 -20923785.47749  20415085.7904   20415090.0414
  20951798.191   -24855934.92249 -19089552.08949  20951797.3924   20951802.2904
  22320249.724   -15147450.03449 -11502623.22949  22320248.6634   22320254.4774
  20603650.440   -29406768.10449 -22629329.57849  20603649.6704   20603654.4554
  21428695.717   -18431622.13749 -14345464.39149  21428695.2134   21428699.6384
  23759638.968    -7273122.31449  -5653607.15249  23759638.2354   23759643.7924
  23647461.472   -14096223.85749 -10757352.03149  23647461.8334   23647467.1944
 98  4 22  3 16 59.9980000  0  8 26 23 21  1 17  3  9  6
  23551750.428   -12126505.71149  -9001459.65249  23551750.3334   23551754.6024
  20418253.505   -27220759.75149 -20910817.08949  20418252.7084   20418256.9844
  20943635.011   -24898832.61449 -19122978.81949  20943634.1944   20943638.8444
  22299373.684   -15257153.85049 -11588106.65549  22299372.7354   22299378.5024
  20608791.280   -29379753.09549 -22608278.91149  20608790.5714   20608795.1234
  21416529.644   -18495555.35649 -14395282.45949  21416528.8864   21416533.5524
  23747964.849    -7334470.16149  -5701410.60749  23747964.0474   23747969.8934
  23667606.258   -13990362.96449 -10674863.00849  23667605.9674   23667611.1544
 98  4 22  3 17 29.9980000  0  8 26 23 21  1 17  3  9  6
  23568857.555   -12036606.55049  -8931408.37149  23568857.5394   23568861.1624
  20421454.828   -27203936.70649 -20897708.20949  20421454.1024   20421458.4484
  20935502.491   -24941569.08449 -19156279.93349  20935501.5744   20935506.2704
  22278527.013   -15366703.54349 -11673470.00349  22278525.9174   22278532.5504
  20613977.762   -29352498.01549 -22587041.18449  20613976.8314   20613981.6064
  21404446.928   -18559050.16349 -14444758.91249  21404446.6504   21404450.9574
  23736338.495    -7395566.48449  -5749018.07749  23736337.9154   23736342.8644
  23687758.479   -13884462.86049 -10592343.42949  23687758.0164   23687763.1504
 98  4 22  3 17 59.9980000  0  8 26 23 21  1 17  3  9  6
  23586003.954   -11946502.98749  -8861197.78349  23586003.6894   23586008.1034
  20424690.507   -27186933.15349 -20884458.68249  20424689.7624   20424694.1254
  20927401.642   -24984139.24449 -19189451.46249  20927400.9424   20927405.4934
  22257720.291   -15476043.39349 -11758669.82349  22257719.1524   22257726.0284
  20619213.701   -29324983.05449 -22565600.94649  20619212.7664   20619217.4834
  21392455.682   -18622064.60949 -14493861.06249  21392455.3714   21392459.7254
  23724761.676    -7456402.57149  -5796422.74649  23724760.7704   23724767.3244
  23707920.255   -13778511.89649 -10509784.22749  23707920.0484   23707926.0164
 98  4 22  3 18 29.9980000  0  8 26 23 21  1 17  3  9  6
  23603183.230   -11856224.58649  -8790850.99849  23603181.9174   23603187.7914
  20427954.295   -27169781.99449 -20871094.13049  20427953.5124   20427957.7574
  20919324.671   -25026583.68549 -19222525.02849  20919323.9634   20919328.7514
  22236951.052   -15585186.27749 -11843716.15249  22236950.9094   22236956.0774
  20624494.467   -29297232.44049 -22543977.08949  20624493.2504   20624498.0904
  21380551.523   -18684621.52949 -14542606.69749  21380551.0624   21380555.4524
  23713223.560    -7517035.03049  -5843668.76949  23713221.8184   23713227.5174
  23728083.691   -13672552.99949 -10427218.87749  23728083.1304   23728089.0824
 98  4 22  3 18 59.9980000  0  8 26 23 21  1 17  3  9  6
  23620415.448   -11765667.74749  -8720287.21649  23620415.8464   23620419.7904
  20431266.563   -27152375.89649 -20857530.92249  20431265.7094   20431269.7994
  20911295.689   -25068776.29549 -19255402.36049  20911295.0124   20911299.6784
  22216243.434   -15694005.56849 -11928510.33749  22216242.5954   22216248.3224
  20629842.339   -29269129.01449 -22522078.30449  20629841.4284   20629846.1224
  21368756.921   -18746602.30349 -14590903.38549  21368756.3584   21368761.2144
  23701744.953    -7577354.96649  -5890671.26249  23701744.3244   23701749.5564
  23748268.443   -13566481.36049 -10344565.66049  23748268.4864   23748273.9404
 98  4 22  3 19 29.9980000  0  8 26 23 21  1 17  3  9  6
  23637682.708   -11674928.19149  -8649581.06149  23637681.7334   23637686.4084
  20434602.626   -27134844.47349 -20843870.05749  20434601.8604   20434606.0884
  20903295.830   -25110815.73849 -19288160.33649  20903295.2304   20903299.7364
  22195576.809   -15802609.44049 -12013136.66549  22195576.0124   22195581.6344
  20635239.217   -29240768.02349 -22499978.84749  20635238.4124   20635243.0974
  21357049.289   -18808125.98149 -14638843.89149  21357049.2224   21357053.2454
  23690307.533    -7637458.49749  -5937505.16149  23690307.1524   23690312.3614
  23768452.048   -13460416.27649 -10261917.56449  23768451.7134   23768457.1024
 98  4 22  3 19 59.9980000  0  8 26 23 21  1 17  3  9  6
  23654983.790   -11584010.04849  -8578735.77649  23654983.7164   23654988.8304
  20437959.810   -27117202.38149 -20830122.95949  20437958.9654   20437963.3654
  20895328.041   -25152686.65249 -19320786.98849  20895327.2264   20895331.9014
  22174947.362   -15911017.77649 -12097610.62949  22174946.1544   22174952.3194
  20640686.864   -29212140.56049 -22477671.73549  20640686.1804   20640690.7874
  21345427.007   -18869201.66649 -14686435.31449  21345426.8684   21345431.0074
  23678909.761    -7697353.78249  -5984176.75349  23678908.9524   23678914.9614
  23788631.662   -13354371.94049 -10179285.64949  23788630.8644   23788637.0494
 98  4 22  3 20 29.9980000  0  8 26 23 21  1 17  3  9  6
  23672335.574   -11492826.74749  -8507683.83349  23672334.1444   23672340.7394
  20441362.483   -27099321.16849 -20816189.54749  20441361.6404   20441365.9144
  20887415.424   -25194267.71849 -19353187.77349  20887414.5044   20887419.4584
  22154369.747   -16019153.44649 -12181872.12749  22154368.5804   22154374.7834
  20646204.856   -29183143.44849 -22455076.58449  20646204.1004   20646208.7614
  21333904.363   -18929753.48149 -14733618.52949  21333903.5364   21333908.1794
  23667573.336    -7756927.03149  -6030597.40849  23667573.1704   23667578.1754
  23808827.854   -13248240.35349 -10096585.72949  23808826.7124   23808833.1924
 98  4 22  3 20 59.9980000  0  8 26 23 21  1 17  3  9  6
  23689722.094   -11401459.83349  -8436488.85149  23689721.9574   23689726.0164
  20444793.103   -27081293.08049 -20802141.67949  20444792.2254   20444796.3734
  20879544.018   -25235631.86149 -19385419.53049  20879543.1234   20879547.5104
  22133825.144   -16127115.98549 -12265998.71949  22133824.3424   22133829.9134
  20651776.667   -29153863.56949 -22432261.09249  20651775.6234   20651780.3884
  21322464.012   -18989872.52049 -14780464.51049  21322463.6964   21322468.1544
  23656287.025    -7816237.23449  -6076813.10449  23656285.8944   23656292.0784
  23829027.187   -13142092.32949 -10013873.01549  23829026.8184   23829030.8084
 98  4 22  3 21 29.9980000  0  8 26 23 21  1 17  3  9  6
  23707144.510   -11309904.97449  -8365147.40849  23707142.2974   23707148.4444
  20448253.363   -27063108.97549 -20787972.22949  20448252.6094   20448256.9554
  20871714.873   -25276774.13849 -19417478.42949  20871714.2834   20871719.0374
  22113311.245   -16234916.96549 -12349999.41249  22113310.4444   22113315.4754
  20657404.064   -29124291.54949 -22409217.96249  20657403.2674   20657407.8664
  21311107.905   -19049549.48549 -14826966.01349  21311107.6774   21311111.6554
  23645051.690    -7875279.38349  -6122819.92449  23645050.4224   23645055.9094
  23849231.016   -13035921.06449  -9931142.18549  23849230.2514   23849236.4514
 98  4 22  3 21 59.9980000  0  8 26 23 21  1 17  3  9  6
  23724595.450   -11218198.88349  -8293688.13949  23724594.9854   23724599.1314
  20451741.811   -27044777.14449 -20773687.67049  20451741.1444   20451745.4244
  20863920.088   -25317735.83249 -19449396.59149  20863919.3494   20863924.1344
  22092820.372   -16342596.92049 -12433905.80149  22092819.3894   22092824.1684
  20663080.281   -29094463.01949 -22385974.95249  20663079.4784   20663084.1864
  21299832.268   -19108803.58549 -14873138.01949  21299831.8534   21299836.1694
  23633863.857    -7934071.70549  -6168632.07349  23633863.2474   23633868.2514
  23869434.813   -12929749.15149  -9848410.86549  23869432.4264   23869440.0344
 98  4 22  3 22 29.9980000  0  8 26 23 21  1 17  3  9  6
  23742082.873   -11126301.93549  -8222080.12949  23742082.3284   23742086.0124
  20455262.807   -27026274.26949 -20759269.84149  20455262.0274   20455266.2524
  20856160.484   -25358512.58849 -19481170.65849  20856159.9414   20856164.0884
  22072364.101   -16450095.32249 -12517670.74049  22072362.7214   22072368.5384
  20668808.196   -29064362.67249 -22362520.13749  20668807.2524   20668811.6364
  21288647.584   -19167579.26549 -14918937.23549  21288647.4064   21288651.4524
  23622733.632    -7992561.24349  -6214208.31049  23622733.0624   23622738.0814
  23889645.766   -12823539.63849  -9765650.23249  23889644.9734   23889651.1994
 98  4 22  3 22 59.9980000  0  8 26 23 21  1 17  3  9  6
  23759617.078   -11034158.30449  -8150279.93149  23759615.8104   23759622.0554
  20458822.078   -27007569.88549 -20744694.99449  20458821.2234   20458825.6684
  20848443.208   -25399067.14949 -19512771.58549  20848442.6244   20848447.2274
  22051956.152   -16557339.46849 -12601237.54549  22051955.6994   22051960.6324
  20674596.122   -29033946.76549 -22338819.42249  20674595.2864   20674600.0324
  21277567.257   -19225806.75649 -14964309.28549  21277567.0474   21277571.2524
  23611668.880    -8050706.90149  -6259516.56749  23611669.4914   23611672.0874
  23909872.371   -12717249.18549  -9682826.55149  23909869.3024   23909877.5704
 98  4 22  3 23 29.9980000  0  8 26 23 21  1 17  3  9  6
  23777195.171   -10941784.05449  -8078300.00349  23777196.0904   23777200.4494
  20462421.082   -26988656.98749 -20729957.65749  20462419.9314   20462424.4724
  20840764.489   -25439418.92749 -19544214.48849  20840763.4704   20840768.5954
  22031597.818   -16664322.91949 -12684601.20249  22031596.9434   22031602.3524
  20680444.049   -29003215.68949 -22314873.11449  20680443.3074   20680447.6084
  21266592.282   -19283480.99549 -15009250.22049  21266591.4354   21266595.9204
  23600667.435    -8108519.98249  -6304565.70549  23600667.1984   23600671.5474
  23930110.454   -12610897.59249  -9599955.19949  23930110.8094   23930116.5494
 98  4 22  3 23 59.9980000  0  8 26 23 21  1 17  3  9  6
  23794824.086   -10849144.66449  -8006113.43949  23794823.4964   23794828.5474
  20466066.010   -26969502.58749 -20715032.14249  20466065.2584   20466069.4284
  20833131.220   -25479531.88949 -19575471.31549  20833130.4544   20833135.1024
  22011300.253   -16770987.17549 -12767716.15749  22011299.5544   22011304.8514
  20686358.468   -28972134.94249 -22290654.34649  20686357.3734   20686362.3364
  21255730.366   -19340560.64449 -15053727.85749  21255729.5354   21255734.2434
  23589737.164    -8165958.81149  -6349323.20449  23589736.1354   23589743.0714
  23950366.380   -12504452.69049  -9517011.12949  23950366.0774   23950371.7974
 98  4 22  3 24 29.9980000  0  8 26 23 21  1 17  3  9  6
  23812493.819   -10756288.12949  -7933757.72849  23812493.4744   23812499.9254
  20469744.311   -26950172.97649 -20699970.09949  20469743.6214   20469747.8444
  20825537.470   -25519437.41149 -19606566.49949  20825536.6514   20825541.2734
  21991057.177   -16877365.16649 -12850608.04049  21991056.4584   21991062.1564
  20692329.677   -28940755.82249 -22266203.08349  20692328.5194   20692333.1414
  21244974.007   -19397085.65849 -15097773.30049  21244973.3414   21244978.2804
  23578865.050    -8223091.90049  -6393842.43849  23578864.7624   23578870.3254
  23970627.623   -12397978.71649  -9434044.38349  23970626.5014   23970632.2134
 98  4 22  3 24 59.9980000  0  7 26 23 21  1 17  3  9
  23830195.437   -10663265.81849  -7861272.83649  23830196.2184   23830198.1134
  20473450.258   -26930698.23749 -20684794.96849  20473449.5364   20473453.6584
  20817977.795   -25559163.69049 -19637522.00849  20817977.0244   20817981.5224
  21970855.470   -16983525.04749 -12933329.96649  21970854.3444   21970860.1364
  20698350.885   -28909113.66449 -22241546.85149  20698350.0004   20698354.6264
  21234312.069   -19453114.39649 -15141432.03749  21234311.6124   21234316.1404
  23568041.482    -8279969.61049  -6438162.68249  23568040.6054   23568045.8734
 98  4 22  3 25 29.9980000  0  7 26 23 21  1 17  3  9
  23847924.633   -10570099.04549  -7788675.33249  23847922.8274   23847926.8324
  20477180.958   -26911093.41349 -20669518.46249  20477180.3334   20477184.5054
  20810450.999   -25598717.07349 -19668342.78449  20810450.4354   20810455.0104
  21950691.113   -17089489.39549 -13015899.53149  21950690.1834   21950696.2284
  20704422.493   -28877207.15449 -22216684.62249  20704421.7574   20704426.4914
  21223741.406   -19508663.33249 -15184716.90049  21223741.0204   21223745.3924
  23557268.780    -8336581.06949  -6482275.48749  23557268.5224   23557273.6654
 98  4 22  3 25 59.9980000  0  8 26 23 21  1 17  3  9  8
  23865686.231   -10476761.18649  -7715944.54949  23865686.5794   23865691.1524
  20480938.444   -26891347.67949 -20654132.16349  20480937.6324   20480941.9054
  20802964.735   -25638057.63749 -19698997.74349  20802963.9884   20802968.5814
  21930568.407   -17195234.52349 -13098298.29449  21930567.6944   21930573.0194
  20710548.303   -28845015.89849 -22191600.52849  20710547.5064   20710552.0964
  21213266.336   -19563710.29149 -15227610.61449  21213265.7924   21213270.0294
  23546553.493    -8392890.15949  -6526152.64649  23546553.2804   23546558.3094
  24107954.752    -6680745.52049  -4814867.17849  24107953.4814   24107960.1684
 98  4 22  3 26 29.9980000  0  8 26 23 21  1 17  3  9  8
  23883483.062   -10383239.07749  -7643070.22149  23883482.9794   23883486.0134
  20484724.501   -26871451.68149 -20638628.77149  20484723.6814   20484727.9734
  20795519.038   -25677184.81549 -19729486.41849  20795518.1624   20795522.8924
  21910488.059   -17300756.92449 -13180523.47749  21910486.9364   21910493.4044
  20716730.287   -28812529.74749 -22166286.63749  20716729.4074   20716734.2264
  21202886.331   -19618257.19449 -15270114.68049  21202885.6284   21202890.0464
  23535899.385    -8448877.85249  -6569779.38749  23535899.2564   23535904.2714
  24090926.999    -6770226.55949  -4884592.65149  24090926.0794   24090931.0264
 98  4 22  3 26 59.9980000  0  8 26 23 21  1 17  3  9  8
  23901315.862   -10289526.76349  -7570047.66049  23901313.5554   23901319.3514
  20488543.568   -26851382.37049 -20622990.33949  20488542.8874   20488547.0654
  20788114.099   -25716098.05949 -19759808.39849  20788113.4984   20788117.8554
  21890452.489   -17406044.81949 -13262565.94049  21890451.7164   21890457.0534
  20722971.070   -28779734.21849 -22140731.67749  20722970.0964   20722974.6504
  21192600.029   -19672311.64449 -15312235.00949  21192599.5094   21192603.8294
  23525312.916    -8504510.15849  -6613129.21149  23525313.5844   23525316.1324
  24073893.103    -6859740.18449  -4954343.46449  24073891.1824   24073897.5964
 98  4 22  3 27 29.9980000  0  8 26 23 21  1 17  3  9  8
  23919187.472   -10195611.24149  -7496866.71349  23919187.1214   23919192.9804
  20492397.229   -26831131.32149 -20607210.29149  20492396.5994   20492400.8484
  20780752.324   -25754784.29149 -19789953.48849  20780751.6154   20780756.0784
  21870469.540   -17511055.64249 -13344392.50949  21870468.5704   21870473.4804
  20729272.899   -28746618.03849 -22114926.86949  20729271.8244   20729276.5664
  21182411.816   -19725851.23349 -15353954.15249  21182411.0624   21182415.7054
  23514795.650    -8559778.74749  -6656195.59649  23514793.2674   23514800.2604
  24056856.390    -6949268.52549  -5024105.78849  24056857.0044   24056860.1714
 98  4 22  3 27 59.9980000  0  8 26 23 21  1 17  3  9  8
  23937109.264   -10101432.10049  -7423480.44849  23937109.5544   23937113.8644
  20496298.946   -26810627.55249 -20591233.31349  20496298.0984   20496302.4114
  20773443.796   -25793191.02549 -19819880.78849  20773443.0954   20773447.5664
  21850552.499   -17615720.27049 -13425949.30949  21850551.7084   21850556.7464
  20735645.443   -28713130.00649 -22088832.29949  20735644.6024   20735649.6424
  21172334.312   -19778808.96849 -15395219.90849  21172333.8384   21172337.9484
  23504358.527    -8614625.50749  -6698933.28249  23504358.3914   23504362.5764
  24039831.393    -7038735.48149  -5093820.28149  24039830.4124   24039835.7384
 98  4 22  3 28 29.9980000  0  8 26 23 21  1 17  3  9  8
  23955078.209   -10007004.68349  -7349900.67449  23955078.2444   23955081.9924
  20500249.831   -26789865.49949 -20575055.07649  20500249.0334   20500253.2914
  20766185.597   -25831332.90049 -19849601.69549  20766184.9094   20766189.1594
  21830703.278   -17720028.55749 -13507228.45449  21830702.1194   21830707.6744
  20742087.985   -28679274.39849 -22062451.30949  20742086.9024   20742091.5904
  21162366.811   -19831188.40349 -15436035.04349  21162366.1894   21162370.7104
  23493999.720    -8669061.34149  -6741350.77649  23493999.3934   23494003.9884
  24022818.355    -7128139.32349  -5163485.54649  24022817.2804   24022822.4594
 98  4 22  3 28 59.9980000  0  8 26 23 21  1 17  3  9  8
  23973065.360    -9912482.28949  -7276246.85449  23973063.4834   23973070.7344
  20504225.143   -26768974.86749 -20558776.64149  20504224.2214   20504228.5184
  20758955.390   -25869327.81549 -19879208.08049  20758954.6654   20758959.1784
  21810898.694   -17824102.11649 -13588324.67349  21810897.7704   21810903.0254
  20748576.683   -28645175.96849 -22035881.10249  20748575.8804   20748580.4914
  21152489.816   -19883092.42049 -15476479.71249  21152489.3764   21152493.6374
  23483693.683    -8723219.80349  -6783552.15149  23483692.7984   23483697.9414
  24005793.622    -7217605.12049  -5233199.12149  24005792.6064   24005798.1924
 98  4 22  3 29 29.9980000  0  8 26 23 21  1 17  3  9  8
  23991073.758    -9817846.49149  -7202504.74049  23991072.2864   23991079.1764
  20508226.879   -26747945.47749 -20542390.08649  20508226.0614   20508230.2894
  20751756.503   -25907158.06749 -19908686.17649  20751755.8084   20751760.3474
  21791142.703   -17927920.13049 -13669221.78449  21791141.6574   21791147.7474
  20755116.994   -28610806.59549 -22009099.76949  20755116.3624   20755120.7714
  21142712.119   -19934474.68649 -15516517.83349  21142711.7354   21142716.0894
  23473441.665    -8777094.32249  -6825532.26049  23473440.6154   23473446.9554
  23988760.272    -7307115.72249  -5302947.64249  23988758.6984   23988765.1104
 98  4 22  3 29 59.9980000  0  8 26 23 21  1 17  3  9  8
  24009098.082    -9723128.25849  -7128698.34549  24009099.1674   24009101.5984
  20512248.955   -26726809.28849 -20525920.31749  20512248.3164   20512252.3724
  20744583.273   -25944853.45549 -19938059.18149  20744582.6444   20744586.8504
  21771426.829   -18031527.72349 -13749954.93749  21771426.2254   21771431.2734
  20761704.295   -28576189.85449 -21982125.68549  20761703.5524   20761708.1244
  21133030.143   -19985353.70649 -15556163.81049  21133029.7584   21133034.2184
  23463239.799    -8830705.09549  -6867306.83649  23463238.5584   23463244.0694
  23971713.550    -7396696.76449  -5372751.01449  23971712.4694   23971717.9904
 98  4 22  3 30 29.9980000  0  8 26 23 21  1 17  3  9  8
  24027140.085    -9628316.68649  -7054819.21749  24027140.1074   24027145.2574
  20516289.908   -26705574.00249 -20509373.31749  20516289.0694   20516293.3404
  20737436.320   -25982410.90749 -19967324.69249  20737435.5024   20737440.0614
  21751749.999   -18134929.84849 -13830527.96749  21751748.9284   21751754.5904
  20768340.305   -28541317.24749 -21954952.21349  20768339.4584   20768344.1794
  21123443.928   -20035729.76349 -15595417.86349  21123443.3244   21123447.7344
  23453086.474    -8884060.94349  -6908882.76349  23453086.0264   23453091.4814
  23954650.568    -7486363.24349  -5442620.93749  23954649.5414   23954654.3084
 98  4 22  3 30 59.9980000  0  8 26 23 21  1 17  3  9  8
  24045224.053    -9533283.79749  -6980767.68649  24045223.8584   24045229.5054
  20520367.243   -26684147.32149 -20492677.18149  20520366.4264   20520370.6884
  20730336.943   -26019718.25849 -19996395.32349  20730336.2074   20730340.6484
  21732129.401   -18238036.58449 -13910870.83149  21732128.4414   21732134.0564
  20775047.234   -28506071.53949 -21927488.01449  20775046.5054   20775051.1684
  21113973.800   -20085495.27349 -15634196.16349  21113973.6304   21113977.5494
  23443003.007    -8937050.08349  -6950172.94249  23443002.2674   23443008.3804
  23937591.364    -7576009.52449  -5512475.14649  23937589.5524   23937595.3664
 98  4 22  3 31 29.9980000  0  8 26 23 21  1 17  3  9  8
  24063336.353    -9438104.10949  -6906601.69649  24063337.0184   24063341.7364
  20524464.426   -26662616.52549 -20475899.93949  20524463.5704   20524467.8064
  20723267.591   -26056867.79349 -20025342.99049  20723266.8014   20723271.2794
  21712547.484   -18340940.26249 -13991055.47449  21712547.0164   21712552.0034
  20781808.277   -28470542.12149 -21899802.73449  20781807.2444   20781812.1554
  21104598.934   -20134760.72949 -15672584.81449  21104598.4314   21104603.0154
  23432973.310    -8989756.42449  -6991242.76849  23432971.9914   23432976.4534
  23920521.847    -7665710.34049  -5582371.85049  23920521.7974   23920526.4774
 98  4 22  3 31 59.9980000  0  8 26 23 21  1 17  3  9  8
  24081488.364    -9342714.46949  -6832272.11649  24081487.4734   24081492.9044
  20528593.031   -26640920.51249 -20458993.95149  20528592.2514   20528596.4104
  20716240.501   -26093795.29149 -20054117.63749  20716239.6964   20716244.2354
  21693017.793   -18443569.35549 -14071026.14149  21693016.8874   21693022.8284
  20788634.869   -28434667.82449 -21871848.72549  20788634.2984   20788638.6374
  21095327.557   -20183481.89149 -15710549.33649  21095327.1094   21095331.2254
  23423013.175    -9042096.70949  -7032027.36549  23423012.4364   23423018.2224
  23903457.814    -7755382.14349  -5652245.93249  23903456.1724   23903462.7704
 98  4 22  3 32 29.9980000  0  8 26 23 21  1 17  3  9  8
  24099676.334    -9247135.60549  -6757795.13149  24099677.8904   24099681.3364
  20532751.272   -26619068.58449 -20441966.46649  20532750.4934   20532754.7434
  20709252.832   -26130515.50849 -20082730.76449  20709252.0134   20709256.4794
  21673541.384   -18545918.67249 -14150778.81149  21673540.8104   21673546.0724
  20795526.396   -28398452.82149 -21843629.25649  20795525.7474   20795530.6024
  21086154.252   -20231687.64149 -15748112.24349  21086153.6704   21086158.0734
  23413121.567    -9094077.68349  -7072531.99349  23413120.7244   23413126.0654
  23886399.911    -7845021.29249  -5722094.58049  23886398.9404   23886403.8894
 98  4 22  3 32 59.9980000  0  8 26 23 21  1 17  3  9  8
  24117887.186    -9151437.88249  -6683225.50849  24117886.6254   24117892.1224
  20536933.743   -26597089.61749 -20424839.99949  20536933.1074   20536937.1084
  20702297.922   -26167063.62649 -20111209.79049  20702297.2184   20702301.7544
  21654114.404   -18648007.80349 -14230328.74549  21654113.6594   21654118.3544
  20802473.773   -28361944.33749 -21815181.08449  20802472.7784   20802477.8144
  21077072.663   -20279411.79749 -15785299.88649  21077072.3564   21077076.7184
  23403293.472    -9145724.26149  -7112776.05249  23403291.9084   23403297.0974
  23869344.647    -7934647.34549  -5791932.99049  23869344.7074   23869349.1434
 98  4 22  3 33 29.9980000  0  8 26 23 21  1 17  3  9  8
  24136110.672    -9055672.88549  -6608603.46949  24136110.2294   24136115.5134
  20541136.174   -26575005.82049 -20407631.83649  20541135.5684   20541139.6404
  20695367.158   -26203484.92149 -20139589.98349  20695366.6464   20695370.9024
  21634733.713   -18749853.60749 -14309689.07149  21634733.1564   21634738.6764
  20809469.161   -28325183.48149 -21786536.27349  20809468.4954   20809472.7424
  21068078.289   -20326677.35849 -15822130.18449  21068077.7734   21068082.1764
  23393523.885    -9197063.46949  -7152780.59249  23393522.9314   23393528.3384
  23852285.962    -8024291.05249  -5861785.16949  23852285.5264   23852290.9284
 98  4 22  3 33 59.9980000  0  8 26 23 21  1 17  3  9  8
  24154360.457    -8959770.17949  -6533874.09149  24154360.9344   24154363.8414
  20545371.456   -26552749.49849 -20390289.23349  20545370.5864   20545374.8824
  20688474.034   -26239708.66449 -20167816.24149  20688473.3984   20688477.6734
  21615413.002   -18851384.45749 -14388803.96849  21615412.2224   21615417.8644
  20816525.516   -28288102.36649 -21757641.89449  20816524.8904   20816529.4114
  21059186.946   -20373401.52349 -15858538.60249  21059186.2294   21059190.6824
  23383828.117    -9248014.52449  -7192482.64849  23383827.2534   23383832.2894
  23835235.326    -8113892.26749  -5931604.23749  23835234.1714   23835241.7984
 98  4 22  3 34 29.9980000  0  8 26 23 21  1 17  3  9  8
  24172638.646    -8863717.20449  -6459027.70749  24172638.2014   24172643.5534
  20549644.115   -26530296.30749 -20372793.24149  20549643.1684   20549647.4404
  20681621.522   -26275718.77549 -20195876.04749  20681620.7424   20681625.2774
  21596153.069   -18952595.92649 -14467670.01049  21596152.5654   21596157.6484
  20823643.469   -28250697.45749 -21728495.20949  20823642.3524   20823647.0564
  21050405.211   -20419549.65749 -15894498.17349  21050405.0084   21050409.3774
  23374206.080    -9298578.57749  -7231883.16649  23374205.8044   23374211.2634
  23818192.554    -8203451.78349  -6001390.77649  23818192.0194   23818197.1554
 98  4 22  3 34 59.9980000  0  8 26 23 21  1 17  3  9  8
  24190950.233    -8767488.93849  -6384044.70449  24190951.2034   24190954.7364
  20553957.037   -26507631.79149 -20355132.56949  20553956.2224   20553960.3404
  20674813.482   -26311495.06049 -20223753.65249  20674812.8754   20674817.2494
  21576953.970   -19053487.54049 -14546286.80549  21576953.0464   21576958.4984
  20830824.897   -28212959.02349 -21699088.64149  20830824.4504   20830828.5004
  21041739.225   -20465089.77949 -15929983.97249  21041739.1174   21041743.3164
  23364659.801    -9348744.01949  -7270973.09549  23364659.3334   23364663.2584
  23801160.459    -8292956.19149  -6071134.41449  23801159.7304   23801165.8144
 98  4 22  3 35 29.9980000  0  8 26 23 21  1 17  3  9  8
  24209282.522    -8671151.59849  -6308976.73149  24209281.9234   24209287.7354
  20558292.153   -26484850.61349 -20337380.98149  20558291.4014   20558295.6244
  20668033.577   -26347123.58749 -20251516.12649  20668032.7394   20668037.5154
  21557798.309   -19154151.12249 -14624725.91349  21557797.6574   21557803.2264
  20838054.742   -28174965.83649 -21669483.55449  20838053.7964   20838058.5274
  21033171.589   -20510113.00349 -15965066.98849  21033171.0794   21033175.6134
  23355171.516    -9398604.37149  -7309825.27149  23355170.5424   23355175.7844
  23784123.080    -8382488.29249  -6140899.61249  23784122.1054   23784127.6744
 98  4 22  3 35 59.9980000  0  8 26 23 21  1 17  3  9  8
  24227645.777    -8574652.66349  -6233782.79449  24227646.6394   24227652.2914
  20562658.803   -26461903.45149 -20319500.05949  20562657.9084   20562662.2144
  20661296.607   -26382526.66849 -20279102.92749  20661295.8924   20661300.2764
  21538699.053   -19254518.27949 -14702934.03949  21538698.1804   21538703.4964
  20845345.168   -28136653.95049 -21639630.12349  20845344.5384   20845349.1214
  21024712.763   -20554564.30049 -15999704.34749  21024712.4644   21024716.7644
  23345753.519    -9448096.06849  -7348390.16849  23345753.3114   23345757.3274
  23767093.680    -8471978.68349  -6210632.32249  23767093.2044   23767099.1674
 98  4 22  3 36 29.9980000  0  8 23 21  1 17  3  9  8 31
  20567059.015   -26438780.18149 -20301481.91649  20567058.4124   20567062.3574
  20654602.804   -26417702.74049 -20306512.83749  20654602.0974   20654606.3134
  21519661.092   -19354563.26949 -14780891.14049  21519660.4294   21519665.1404
  20852699.101   -28098008.70849 -21609516.93349  20852698.2674   20852702.6884
  21016365.644   -20598429.17049 -16033884.75849  21016365.4334   21016369.7954
  23336406.780    -9497214.03349  -7386663.88049  23336406.5924   23336410.9614
  23750074.368    -8561415.36649  -6280323.20249  23750073.4464   23750079.0414
  23962148.087    -2373472.25849  -1834976.68749  23962146.6914   23962151.5884
 98  4 22  3 36 59.9980000  0  8 23 21  1 17  3  9  8 31
  20571482.942   -26415532.35249 -20283366.71849  20571482.0894   20571486.3834
  20647944.578   -26452691.84549 -20333777.05649  20647943.7964   20647948.3054
  21500681.215   -19454303.02549 -14858610.39549  21500680.4194   21500685.9814
  20860109.544   -28059066.44749 -21579172.33149  20860108.8674   20860113.3054
  21008119.560   -20641762.97949 -16067651.35449  21008118.9524   21008123.2154
  23327129.143    -9545968.73449  -7424654.52349  23327128.1054   23327134.1574
  23733058.232    -8650835.71949  -6350001.32249  23733056.8674   23733062.6274
  23943324.659    -2472390.41749  -1912055.74549  23943324.4614   23943329.8854
 98  4 22  3 37 29.9980000  0  8 23 21  1 17  3  9  8 31
  20575930.328   -26392161.23449 -20265155.44949  20575929.6304   20575933.7984
  20641323.296   -26487486.96949 -20360890.10649  20641322.5504   20641326.9684
  21481765.267   -19553706.92649 -14936067.93249  21481764.8644   21481769.9564
  20867576.344   -28019828.08049 -21548596.99449  20867575.3784   20867580.1634
  20999974.490   -20684565.11249 -16101003.65449  20999974.0114   20999978.3724
  23317925.469    -9594333.97049  -7462341.67549  23317925.3764   23317930.6734
  23716044.489    -8740243.49249  -6419669.65649  23716043.8544   23716048.9004
  23924555.668    -2571021.55349  -1988911.12449  23924554.9354   23924560.8654
 98  4 22  3 37 59.9980000  0  8 23 21  1 17  3  9  8 31
  20580395.791   -26368695.05349 -20246870.10149  20580394.8894   20580399.0834
  20634734.103   -26522113.18149 -20387871.53849  20634733.3814   20634737.7274
  21462907.046   -19652807.40549 -15013289.03449  21462906.3294   21462911.9694
  20875095.441   -27980315.38049 -21517807.88649  20875094.5934   20875099.2494
  20991929.477   -20726842.24049 -16133946.85649  20991928.5704   20991933.0394
  23308795.704    -9642311.99349  -7499727.11349  23308795.3474   23308799.7644
  23699028.384    -8829663.83249  -6489347.80249  23699027.8744   23699032.9844
  23905838.209    -2669381.57949  -2065555.28149  23905837.0934   23905841.0884
 98  4 22  3 38 29.9980000  0  8 23 21  1 17  3  9  8 31
  20584882.318   -26345117.98649 -20228498.34549  20584881.6734   20584885.5694
  20628176.201   -26556575.14649 -20414724.98949  20628175.6614   20628179.8054
  21444105.563   -19751610.17849 -15090278.17049  21444104.6954   21444109.6314
  20882668.798   -27940517.37449 -21486796.47049  20882668.0704   20882672.4484
  20983986.913   -20768580.48649 -16166470.15849  20983986.4084   20983990.6664
  23299741.927    -9689889.64349  -7536800.57149  23299741.6454   23299746.9144
  23682010.730    -8919092.46549  -6559032.40449  23682009.8564   23682015.2234
  23887173.786    -2767463.32449  -2141982.58749  23887173.2144   23887177.6144
 98  4 22  3 38 59.9980000  0  8 23 21  1 17  3  9  8 31
  20589400.692   -26321373.72349 -20209996.31049  20589399.9054   20589404.0234
  20621665.147   -26590790.67849 -20441386.43149  20621664.5594   20621669.0864
  21425369.933   -19850066.12249 -15166997.03449  21425369.0464   21425373.9504
  20890307.524   -27900375.54949 -21455517.12049  20890306.5124   20890311.3284
  20976157.854   -20809722.73649 -16198529.04249  20976157.1794   20976161.5394
  23290776.517    -9737003.47449  -7573512.61249  23290776.2014   23290780.4904
  23665004.809    -9008458.90249  -6628668.53149  23665003.4994   23665008.9074
  23868573.393    -2865209.24549  -2218148.20949  23868572.6214   23868577.7314
 98  4 22  3 39 29.9980000  0  8 23 21  1 17  3  9  8 31
  20593926.529   -26297590.49749 -20191463.91149  20593925.9324   20593929.8574
  20615176.020   -26624891.35649 -20467958.37249  20615175.3714   20615179.8114
  21406670.469   -19948332.47449 -15243568.17849  21406669.4614   21406675.0744
  20897988.171   -27860013.25549 -21424065.97949  20897987.2544   20897991.8704
  20968420.091   -20850385.18349 -16230214.05849  20968419.2054   20968423.6994
  23281869.476    -9783810.49149  -7609985.58649  23281869.0974   23281874.4994
  23647987.686    -9097883.74449  -6698350.15749  23647986.7694   23647991.8964
  23850012.279    -2962748.19149  -2294152.55349  23850010.7614   23850017.4794
 98  4 22  3 39 59.9980000  0  8 23 21  1 17  3  9  8 31
  20598473.941   -26273693.50949 -20172842.85849  20598473.0644   20598477.2104
  20608720.083   -26658817.36749 -20494394.20949  20608719.4604   20608723.7104
  21388017.702   -20046353.28449 -15319947.98549  21388017.1544   21388021.7354
  20905723.895   -27819361.71649 -21392389.47549  20905723.0694   20905727.9114
  20960783.916   -20890513.15949 -16261482.60049  20960783.1324   20960787.8564
  23273028.945    -9830266.98749  -7646185.38449  23273028.2184   23273033.0714
  23630974.934    -9187286.26149  -6768014.41649  23630973.9674   23630979.2254
  23831502.271    -3060019.21749  -2369948.11749  23831502.1144   23831506.6194
 98  4 22  3 40 29.9980000  0  8 23 21  1 17  3  9  8 31
  20603054.705   -26249621.46049 -20154085.39649  20603053.8334   20603057.9424
  20602308.419   -26692510.79449 -20520648.79649  20602307.7094   20602312.1324
  21369425.567   -20144055.29049 -15396079.37549  21369424.8654   21369429.9434
  20913522.480   -27778379.92949 -21360455.63749  20913521.9004   20913526.3264
  20953253.821   -20930083.54649 -16292316.65749  20953253.3054   20953257.8864
  23264261.033    -9876342.33349  -7682088.19949  23264259.7684   23264265.7854
  23613976.592    -9276612.98449  -6837619.59649  23613975.6154   23613981.3434
  23813051.115    -3156980.56649  -2445502.39149  23813050.7884   23813055.3544
 98  4 22  3 40 59.9980000  0  8 23 21  1 17  3  9  8 31
  20607665.902   -26225389.37649 -20135203.24049  20607665.0604   20607669.3264
  20595939.781   -26725978.20749 -20546727.28449  20595939.2484   20595943.5724
  21350893.673   -20241440.64849 -15471964.02449  21350893.0144   21350897.5924
  20921381.083   -27737082.72949 -21328276.01249  20921380.2104   20921384.6634
  20945825.871   -20969117.57949 -16322732.78849  20945825.3774   20945829.5914
  23255561.967    -9922055.58049  -7717708.85849  23255561.4104   23255565.2334
  23596993.637    -9365858.96149  -6907161.87349  23596992.8224   23596997.9934
  23794660.443    -3253624.01749  -2520808.94649  23794659.3304   23794665.6404
 98  4 22  3 41 29.9980000  0  8 23 21  1 17  3  9  8 31
  20612299.515   -26201039.62849 -20116229.38749  20612298.6534   20612302.9064
  20589602.696   -26759279.80449 -20572676.54349  20589601.9354   20589606.2844
  21332416.579   -20338538.04649 -15547624.28549  21332415.8764   21332420.9694
  20929293.244   -27695503.90049 -21295876.93549  20929292.2724   20929297.1874
  20938491.262   -21007661.38549 -16352766.90949  20938490.8044   20938495.1964
  23246924.502    -9967445.34049  -7753077.46349  23246924.2094   23246928.6124
  23580020.324    -9455053.84149  -6976664.32849  23580018.6634   23580025.2084
  23776322.427    -3349991.11849  -2595900.17249  23776321.6254   23776327.5464
 98  4 22  3 41 59.9970000  0  8 23 21  1 17  3  9  8 31
  20616973.720   -26176476.36349 -20097089.17249  20616972.9274   20616977.2574
  20583315.478   -26792319.22449 -20598421.50649  20583314.9884   20583319.2034
  21314019.033   -20435217.67949 -15622959.02049  21314018.6024   21314023.0684
  20937278.538   -27653540.75849 -21263178.40149  20937277.7844   20937282.2304
  20931269.021   -21045613.66849 -16382340.10749  20931268.2944   20931272.7234
  23238371.602   -10012391.31849  -7788100.27649  23238371.0404   23238375.1694
  23563076.033    -9544096.79249  -7046048.44149  23563075.1724   23563080.4084
  23758055.389    -3445985.26149  -2670700.73949  23758056.3204   23758057.7854
 98  4 22  3 42 29.9970000  0  8 23 21  1 17  3  9  8 31
  20621681.375   -26151737.49049 -20077812.12049  20621680.5384   20621684.7804
  20577070.002   -26825139.31649 -20623995.60049  20577069.1414   20577073.6884
  21295691.770   -20531527.89449 -15698005.89049  21295690.9704   21295696.3924
  20945333.468   -27611211.95149 -21230194.92449  20945332.6984   20945337.2204
  20924157.901   -21082982.82249 -16411458.92549  20924157.6674   20924162.1704
  23229899.416   -10056913.28549  -7822792.69649  23229899.7454   23229903.1904
  23546152.536    -9633030.06849  -7115347.07149  23546151.0494   23546157.3904
  23739854.664    -3541630.92849  -2745229.81449  23739853.5514   23739857.5484
 98  4 22  3 42 59.9970000  0  8 23 21  1 17  3  9  8 31
  20626405.418   -26126912.45149 -20058467.92949  20626404.6374   20626408.4314
  20570848.536   -26857833.36149 -20649471.45949  20570847.7884   20570852.4044
  21277419.564   -20627548.77749 -15772827.31849  21277419.0394   21277423.9944
  20953444.748   -27568587.22049 -21196980.85049  20953443.7034   20953448.9484
  20917147.655   -21119821.82849 -16440164.63349  20917147.5004   20917151.7034
  23221498.229   -10101062.13149  -7857194.36049  23221498.4214   23221503.3894
  23529236.324    -9721925.38649  -7184616.13449  23529235.6194   23529241.0374
  23721706.423    -3636999.07949  -2819542.62049  23721706.3044   23721710.9514
 98  4 22  3 43 29.9970000  0  8 23 21  1 17  3  9  8 31
  20631158.026   -26101937.09649 -20039006.59749  20631157.3674   20631161.2764
  20564658.800   -26890360.54349 -20674817.28749  20564658.0334   20564662.3794
  21259214.918   -20723214.83649 -15847372.25049  21259213.9624   21259219.2854
  20961622.218   -27525614.37949 -21163495.54749  20961621.7714   20961626.1064
  20910252.987   -21156053.89749 -16468397.39749  20910252.7534   20910256.7934
  23213181.325   -10144767.97549  -7891250.81949  23213181.3394   23213186.2534
  23512334.289    -9810746.12449  -7253827.06049  23512334.0104   23512337.7784
  23703618.964    -3732049.47449  -2893607.84249  23703618.8064   23703624.2384
 98  4 22  3 43 59.9970000  0  8 23 21  1 17  3  9  8 31
  20635944.013   -26076786.43849 -20019408.67749  20635943.3144   20635947.3534
  20558501.468   -26922717.65249 -20700030.59349  20558500.8064   20558505.2164
  21241078.789   -20818520.81449 -15921636.60749  21241078.0784   21241083.1474
  20969865.731   -27482294.43149 -21129739.76249  20969865.2844   20969869.5964
  20903478.247   -21191655.12349 -16496138.61249  20903477.9234   20903482.2694
  23204951.413   -10188015.74349  -7924950.31549  23204950.6574   23204956.3364
  23495445.695    -9899496.44149  -7322983.13249  23495444.4524   23495449.4654
  23685596.075    -3826760.80149  -2967408.82749  23685596.0034   23685601.2134
 98  4 22  3 44 29.9970000  0  8 23 21  1 17  3  9  8 31
  20640765.168   -26051451.08549 -19999666.84149  20640764.2764   20640768.6634
  20552378.649   -26954893.08849 -20725102.34349  20552377.9654   20552382.3874
  21223011.067   -20913467.05849 -15995620.64549  21223010.2764   21223015.6764
  20978174.206   -27438633.20949 -21095718.04349  20978173.4034   20978178.1214
  20896823.008   -21226628.49249 -16523390.58149  20896822.6514   20896826.9064
  23196809.235   -10230802.51349  -7958290.58849  23196807.9044   23196813.6064
  23478573.453    -9988160.30749  -7392071.84949  23478574.4414   23478576.9394
  23667640.190    -3921119.91649  -3040935.37149  23667638.6754   23667645.2734
 98  4 22  3 44 59.9970000  0  8 23 21  1 17  3  9  8 31
  20645605.224   -26026016.36549 -19979847.55949  20645604.5454   20645608.7644
  20546274.913   -26986968.43149 -20750096.09349  20546273.9514   20546278.3674
  21204999.349   -21008119.28649 -16069375.57749  21204998.8654   21205003.3844
  20986527.593   -27394735.86249 -21061512.31249  20986526.9404   20986531.2084
  20890268.432   -21261073.19649 -16550230.59949  20890267.9284   20890272.2044
  23188736.754   -10273223.22349  -7991345.62249  23188735.7224   23188740.5074
  23461701.589   -10076822.57749  -7461159.30849  23461701.8524   23461704.9674
  23649733.716    -4015218.55049  -3114258.92549  23649732.0714   23649737.8234
 98  4 22  3 45 29.9970000  0  8 23 21  1 17  3  9  8 31
  20650473.097   -26000435.40749 -19959914.33249  20650472.3954   20650476.2704
  20540201.128   -27018886.29749 -20774967.14149  20540200.3954   20540204.9254
  21187051.834   -21102434.05149 -16142867.55949  21187050.7704   21187056.0034
  20994934.129   -27350559.35849 -21027089.05149  20994933.2704   20994937.8314
  20883821.950   -21294949.99749 -16576628.09149  20883821.4314   20883825.8024
  23180737.938   -10315257.42449  -8024099.52049  23180737.1704   23180740.7044
  23444839.882   -10165431.05749  -7530204.85949  23444839.0664   23444843.9274
  23631887.846    -4108998.73749  -3187334.34249  23631886.2964   23631891.9144
 98  4 22  3 45 59.9970000  0  8 23 21  1 17  3  9  8 31
  20655378.032   -25974659.83249 -19939829.46049  20655377.1204   20655381.4074
  20534175.953   -27050548.48849 -20799638.95849  20534175.0764   20534179.4444
  21169179.987   -21196351.35249 -16216049.81249  21169179.3324   21169184.1694
  21003408.860   -27306024.50849 -20992386.56749  21003407.5044   21003412.0694
  20877493.527   -21328205.98149 -16602541.83049  20877492.9924   20877497.4554
  23172826.554   -10356832.14549  -8056495.38349  23172825.8264   23172829.4234
  23428007.973   -10253883.27349  -7599128.61849  23428006.7984   23428012.3314
  23614119.891    -4202369.74349  -3260090.93349  23614119.2754   23614124.6284
 98  4 22  3 46 29.9970000  0  8 23 21  1 17  3  9  8 31
  20660309.787   -25948743.20249 -19919634.66849  20660308.8864   20660313.0544
  20528197.125   -27081967.34549 -20824121.16149  20528196.4654   20528200.9174
  21151378.660   -21289897.82149 -16288943.11849  21151377.8364   21151383.0704
  21011947.615   -27261152.91549 -20957421.69049  21011947.2424   21011951.9474
  20871276.252   -21360877.11349 -16627999.85149  20871276.0464   20871280.4694
  23164996.675   -10397978.02449  -8088557.08649  23164995.8774   23165000.7194
  23411202.312   -10342197.28849  -7667944.67649  23411201.1834   23411206.2584
  23596422.907    -4295367.82049  -3332556.91449  23596422.1674   23596426.8234
 98  4 22  3 46 59.9970000  0  8 23 21  1 17  3  9  8 31
  20665262.321   -25922717.34149 -19899354.75849  20665261.5174   20665265.6874
  20522261.317   -27113160.13349 -20848427.20849  20522260.5754   20522265.0034
  21133643.456   -21383096.70149 -16361565.57149  21133642.7444   21133647.5894
  21020546.774   -27215963.81749 -20922209.41849  21020546.2794   21020550.2794
  20865168.743   -21392972.33749 -16653009.10549  20865168.5244   20865172.9934
  23157244.617   -10438714.56849  -8120299.77449  23157243.3644   23157248.5234
  23394418.924   -10430394.02149  -7736669.37249  23394418.2014   23394423.6384
  23578793.793    -4388009.16649  -3404744.93049  23578793.4714   23578798.2284
 98  4 22  3 47 29.9970000  0  8 23 21  1 17  3  9  8 31
  20670229.715   -25896613.57449 -19879014.15549  20670229.0184   20670233.2074
  20516365.379   -27144143.55549 -20872570.12249  20516364.6764   20516368.9914
  21115967.554   -21475984.09349 -16433945.31149  21115966.9204   21115971.8444
  21029205.200   -27170463.58749 -20886754.69049  21029204.3154   21029209.0154
  20859167.730   -21424508.02649 -16677582.36849  20859167.6094   20859171.7734
  23149569.149   -10479048.88649  -8151729.05249  23149569.5764   23149573.8524
  23377656.431   -10518481.39049  -7805308.86549  23377656.4454   23377660.3434
  23561228.131    -4480317.56549  -3476673.49749  23561227.1024   23561232.4024
 98  4 22  3 47 59.9970000  0  8 23 21  1 17  3  9  8 31
  20675206.545   -25870460.04949 -19858634.78249  20675205.9334   20675209.9214
  20510504.388   -27174943.43849 -20896570.00749  20510503.7944   20510508.0004
  21098346.168   -21568584.85549 -16506101.69449  21098345.4194   21098350.3204
  21037916.308   -27124686.67449 -20851084.38149  21037915.2944   21037920.0424
  20853267.197   -21455516.40349 -16701744.73349  20853266.6744   20853271.2474
  23141967.588   -10518995.87949  -8182856.53149  23141966.7504   23141972.0754
  23360907.605   -10606497.01649  -7873892.42949  23360906.3514   23360912.0464
  23543717.241    -4572338.06049  -3548377.73149  23543716.6444   23543721.0284
 98  4 22  3 48 29.9970000  0  8 23 21  1 17  3  9  8 31
  20680199.314   -25844222.84549 -19838190.20349  20680198.5564   20680202.5164
  20504678.197   -27205560.21249 -20920427.21749  20504677.5374   20504681.5694
  21080783.911   -21660874.69349 -16578015.80649  21080783.1874   21080787.8024
  21046680.587   -27078629.90249 -20815195.99749  21046679.5774   21046684.4254
  20847472.013   -21485970.13749 -16725474.91349  20847471.7764   20847475.8364
  23134441.150   -10558547.36249  -8213675.83249  23134441.1804   23134446.2844
  23344173.316   -10694435.44749  -7942415.83949  23344172.0864   23344177.3794
  23526263.535    -4664057.84449  -3619847.64449  23526262.7274   23526267.9474
 98  4 22  3 48 59.9970000  0  8 23 21  1 17  3  9  8 31
  20685221.900   -25817828.98449 -19817623.54749  20685221.1594   20685225.0874
  20498897.521   -27235937.78849 -20944098.03849  20498896.6994   20498900.9114
  21063293.675   -21752786.28649 -16649635.16749  21063292.7864   21063297.8104
  21055508.292   -27032240.24249 -20779048.21649  21055507.0264   21055511.8034
  20841793.932   -21515808.38049 -16748725.48049  20841793.4674   20841797.6654
  23127002.683   -10597637.23049  -8244135.41349  23127001.7704   23127007.1314
  23327467.294   -10782225.90749  -8010823.96349  23327466.0614   23327470.2734
  23508881.359    -4755402.01249  -3691024.87249  23508881.0004   23508885.2024
 98  4 22  3 49 29.9970000  0  8 23 21  1 17  3  9  8 31
  20690269.065   -25791305.76849 -19796956.10749  20690267.9264   20690272.3684
  20493154.941   -27266115.19249 -20967612.88049  20493154.2944   20493158.3554
  21045872.332   -21844335.86349 -16720972.44249  21045871.3964   21045876.5364
  21064394.596   -26985542.56149 -20742660.41349  21064394.0734   21064398.3784
  20836223.624   -21545080.38849 -16771534.83449  20836223.2634   20836227.4604
  23119647.660   -10636288.20149  -8274253.02249  23119646.7824   23119651.4644
  23310784.942   -10869892.11949  -8079135.25749  23310783.2114   23310789.2684
  23491564.352    -4846403.58849  -3761935.14349  23491563.6694   23491568.2614
 98  4 22  3 49 59.9970000  0  8 23 21  1 17  3  9  8 31
  20695332.806   -25764695.60249 -19776220.90349  20695332.0504   20695336.3394
  20487439.289   -27296151.03449 -20991017.42249  20487438.8114   20487442.9374
  21028514.515   -21935551.58049 -16792049.57249  21028513.8034   21028518.8204
  21073332.022   -26938575.91649 -20706063.05849  21073331.2764   21073335.5324
  20830752.862   -21573829.85849 -16793937.01149  20830752.4704   20830756.5094
  23112369.361   -10674536.08349  -8304056.51649  23112369.1704   23112373.0884
  23294117.734   -10957478.78549  -8147384.58949  23294116.1294   23294121.5154
  23474307.381    -4937089.19849  -3832599.20649  23474306.7464   23474311.1674
